<?xml version='1.0' encoding='UTF-8'?>
<gpx version="1.1" creator="https://www.komoot.de" xmlns="http://www.topografix.com/GPX/1/1" xmlns:xsi="http://www.w3.org/2001/XMLSchema-instance" xsi:schemaLocation="http://www.topografix.com/GPX/1/1 http://www.topografix.com/GPX/1/1/gpx.xsd">
  <metadata>
    <name>65_800WehrGersbach</name>
    <author>
      <link href="https://www.komoot.de">
        <text>komoot</text>
        <type>text/html</type>
      </link>
    </author>
  </metadata>
  <trk>
    <name>65_800WehrGersbach</name>
    <trkseg>
      <trkpt lat="47.541171" lon="7.870989">
        <ele>340.561276</ele>
        <time>2021-11-18T19:58:16.467Z</time>
      </trkpt>
      <trkpt lat="47.541410" lon="7.870791">
        <ele>340.561276</ele>
        <time>2021-11-18T19:58:20.993Z</time>
      </trkpt>
      <trkpt lat="47.541576" lon="7.870664">
        <ele>340.561276</ele>
        <time>2021-11-18T19:58:25.118Z</time>
      </trkpt>
      <trkpt lat="47.541796" lon="7.871042">
        <ele>340.561276</ele>
        <time>2021-11-18T19:58:32.224Z</time>
      </trkpt>
      <trkpt lat="47.541953" lon="7.871286">
        <ele>340.989111</ele>
        <time>2021-11-18T19:58:37.061Z</time>
      </trkpt>
      <trkpt lat="47.542039" lon="7.871556">
        <ele>341.674444</ele>
        <time>2021-11-18T19:58:41.417Z</time>
      </trkpt>
      <trkpt lat="47.542067" lon="7.871664">
        <ele>341.940021</ele>
        <time>2021-11-18T19:58:43.093Z</time>
      </trkpt>
      <trkpt lat="47.542091" lon="7.871721">
        <ele>342.094234</ele>
        <time>2021-11-18T19:58:43.705Z</time>
      </trkpt>
      <trkpt lat="47.542218" lon="7.871866">
        <ele>342.639494</ele>
        <time>2021-11-18T19:58:48.800Z</time>
      </trkpt>
      <trkpt lat="47.542394" lon="7.872341">
        <ele>343.883339</ele>
        <time>2021-11-18T19:58:58.866Z</time>
      </trkpt>
      <trkpt lat="47.542436" lon="7.872494">
        <ele>344.262487</ele>
        <time>2021-11-18T19:59:02.257Z</time>
      </trkpt>
      <trkpt lat="47.542537" lon="7.872430">
        <ele>344.636048</ele>
        <time>2021-11-18T19:59:04.369Z</time>
      </trkpt>
      <trkpt lat="47.542714" lon="7.872334">
        <ele>345.277026</ele>
        <time>2021-11-18T19:59:11.326Z</time>
      </trkpt>
      <trkpt lat="47.542814" lon="7.872280">
        <ele>345.638973</ele>
        <time>2021-11-18T19:59:14.340Z</time>
      </trkpt>
      <trkpt lat="47.542919" lon="7.872226">
        <ele>346.016939</ele>
        <time>2021-11-18T19:59:18.178Z</time>
      </trkpt>
      <trkpt lat="47.543013" lon="7.872182">
        <ele>346.352172</ele>
        <time>2021-11-18T19:59:21.685Z</time>
      </trkpt>
      <trkpt lat="47.543233" lon="7.872082">
        <ele>347.508090</ele>
        <time>2021-11-18T19:59:28.923Z</time>
      </trkpt>
      <trkpt lat="47.543251" lon="7.872152">
        <ele>347.820517</ele>
        <time>2021-11-18T19:59:32.297Z</time>
      </trkpt>
      <trkpt lat="47.543332" lon="7.872237">
        <ele>348.433843</ele>
        <time>2021-11-18T19:59:35.602Z</time>
      </trkpt>
      <trkpt lat="47.544390" lon="7.872423">
        <ele>355.016857</ele>
        <time>2021-11-18T20:00:17.322Z</time>
      </trkpt>
      <trkpt lat="47.544883" lon="7.872555">
        <ele>358.141258</ele>
        <time>2021-11-18T20:00:39.730Z</time>
      </trkpt>
      <trkpt lat="47.545131" lon="7.872664">
        <ele>359.883482</ele>
        <time>2021-11-18T20:00:50.734Z</time>
      </trkpt>
      <trkpt lat="47.545375" lon="7.872836">
        <ele>361.703358</ele>
        <time>2021-11-18T20:01:01.675Z</time>
      </trkpt>
      <trkpt lat="47.545478" lon="7.872968">
        <ele>362.620596</ele>
        <time>2021-11-18T20:01:08.483Z</time>
      </trkpt>
      <trkpt lat="47.545515" lon="7.873015">
        <ele>362.948851</ele>
        <time>2021-11-18T20:01:10.439Z</time>
      </trkpt>
      <trkpt lat="47.545746" lon="7.873302">
        <ele>364.979308</ele>
        <time>2021-11-18T20:01:23.639Z</time>
      </trkpt>
      <trkpt lat="47.545934" lon="7.873549">
        <ele>366.671661</ele>
        <time>2021-11-18T20:01:33.739Z</time>
      </trkpt>
      <trkpt lat="47.546077" lon="7.873763">
        <ele>368.040607</ele>
        <time>2021-11-18T20:01:42.935Z</time>
      </trkpt>
      <trkpt lat="47.546135" lon="7.873859">
        <ele>368.626315</ele>
        <time>2021-11-18T20:01:46.175Z</time>
      </trkpt>
      <trkpt lat="47.546309" lon="7.874154">
        <ele>370.223601</ele>
        <time>2021-11-18T20:01:57.289Z</time>
      </trkpt>
      <trkpt lat="47.547126" lon="7.875801">
        <ele>376.118193</ele>
        <time>2021-11-18T20:02:43.050Z</time>
      </trkpt>
      <trkpt lat="47.547574" lon="7.876801">
        <ele>377.505339</ele>
        <time>2021-11-18T20:03:02.046Z</time>
      </trkpt>
      <trkpt lat="47.547992" lon="7.877974">
        <ele>377.343049</ele>
        <time>2021-11-18T20:03:14.847Z</time>
      </trkpt>
      <trkpt lat="47.548234" lon="7.878638">
        <ele>376.977850</ele>
        <time>2021-11-18T20:03:20.159Z</time>
      </trkpt>
      <trkpt lat="47.548422" lon="7.878959">
        <ele>375.834414</ele>
        <time>2021-11-18T20:03:23.002Z</time>
      </trkpt>
      <trkpt lat="47.548718" lon="7.879258">
        <ele>374.406394</ele>
        <time>2021-11-18T20:03:26.540Z</time>
      </trkpt>
      <trkpt lat="47.549140" lon="7.879391">
        <ele>372.686635</ele>
        <time>2021-11-18T20:03:30.728Z</time>
      </trkpt>
      <trkpt lat="47.549318" lon="7.879398">
        <ele>371.976865</ele>
        <time>2021-11-18T20:03:32.355Z</time>
      </trkpt>
      <trkpt lat="47.549327" lon="7.879547">
        <ele>371.574391</ele>
        <time>2021-11-18T20:03:33.341Z</time>
      </trkpt>
      <trkpt lat="47.549726" lon="7.880786">
        <ele>368.005550</ele>
        <time>2021-11-18T20:03:42.214Z</time>
      </trkpt>
      <trkpt lat="47.549830" lon="7.881149">
        <ele>367.004302</ele>
        <time>2021-11-18T20:03:44.848Z</time>
      </trkpt>
      <trkpt lat="47.549927" lon="7.881490">
        <ele>366.064759</ele>
        <time>2021-11-18T20:03:47.260Z</time>
      </trkpt>
      <trkpt lat="47.549990" lon="7.881842">
        <ele>365.140150</ele>
        <time>2021-11-18T20:03:49.844Z</time>
      </trkpt>
      <trkpt lat="47.550234" lon="7.883221">
        <ele>361.388088</ele>
        <time>2021-11-18T20:03:59.661Z</time>
      </trkpt>
      <trkpt lat="47.550332" lon="7.884727">
        <ele>357.265075</ele>
        <time>2021-11-18T20:04:09.546Z</time>
      </trkpt>
      <trkpt lat="47.550391" lon="7.885109">
        <ele>356.197185</ele>
        <time>2021-11-18T20:04:12.089Z</time>
      </trkpt>
      <trkpt lat="47.550548" lon="7.885799">
        <ele>353.538311</ele>
        <time>2021-11-18T20:04:16.698Z</time>
      </trkpt>
      <trkpt lat="47.550677" lon="7.886476">
        <ele>350.923522</ele>
        <time>2021-11-18T20:04:21.129Z</time>
      </trkpt>
      <trkpt lat="47.550758" lon="7.887295">
        <ele>347.846772</ele>
        <time>2021-11-18T20:04:26.271Z</time>
      </trkpt>
      <trkpt lat="47.550789" lon="7.887816">
        <ele>345.867200</ele>
        <time>2021-11-18T20:04:29.503Z</time>
      </trkpt>
      <trkpt lat="47.550831" lon="7.888611">
        <ele>342.495237</ele>
        <time>2021-11-18T20:04:34.459Z</time>
      </trkpt>
      <trkpt lat="47.550833" lon="7.889069">
        <ele>340.558531</ele>
        <time>2021-11-18T20:04:37.268Z</time>
      </trkpt>
      <trkpt lat="47.550915" lon="7.890600">
        <ele>334.277012</ele>
        <time>2021-11-18T20:04:46.661Z</time>
      </trkpt>
      <trkpt lat="47.550904" lon="7.891725">
        <ele>330.742063</ele>
        <time>2021-11-18T20:04:53.665Z</time>
      </trkpt>
      <trkpt lat="47.550892" lon="7.893176">
        <ele>326.417362</ele>
        <time>2021-11-18T20:05:03.277Z</time>
      </trkpt>
      <trkpt lat="47.550908" lon="7.894308">
        <ele>325.339882</ele>
        <time>2021-11-18T20:05:12.483Z</time>
      </trkpt>
      <trkpt lat="47.550878" lon="7.895158">
        <ele>324.529892</ele>
        <time>2021-11-18T20:05:19.668Z</time>
      </trkpt>
      <trkpt lat="47.550838" lon="7.895509">
        <ele>324.191143</ele>
        <time>2021-11-18T20:05:22.831Z</time>
      </trkpt>
      <trkpt lat="47.550660" lon="7.896255">
        <ele>323.074929</ele>
        <time>2021-11-18T20:05:29.320Z</time>
      </trkpt>
      <trkpt lat="47.550639" lon="7.896345">
        <ele>322.923917</ele>
        <time>2021-11-18T20:05:30.507Z</time>
      </trkpt>
      <trkpt lat="47.550648" lon="7.896481">
        <ele>322.707210</ele>
        <time>2021-11-18T20:05:31.462Z</time>
      </trkpt>
      <trkpt lat="47.550819" lon="7.898109">
        <ele>320.094413</ele>
        <time>2021-11-18T20:05:43.210Z</time>
      </trkpt>
      <trkpt lat="47.550801" lon="7.900244">
        <ele>314.283613</ele>
        <time>2021-11-18T20:05:57.048Z</time>
      </trkpt>
      <trkpt lat="47.550769" lon="7.901362">
        <ele>311.228846</ele>
        <time>2021-11-18T20:06:04.319Z</time>
      </trkpt>
      <trkpt lat="47.550757" lon="7.901591">
        <ele>310.654891</ele>
        <time>2021-11-18T20:06:06.455Z</time>
      </trkpt>
      <trkpt lat="47.550688" lon="7.902451">
        <ele>308.490760</ele>
        <time>2021-11-18T20:06:14.890Z</time>
      </trkpt>
      <trkpt lat="47.550498" lon="7.903445">
        <ele>305.909221</ele>
        <time>2021-11-18T20:06:25.140Z</time>
      </trkpt>
      <trkpt lat="47.550302" lon="7.904164">
        <ele>303.868826</ele>
        <time>2021-11-18T20:06:32.399Z</time>
      </trkpt>
      <trkpt lat="47.550025" lon="7.904774">
        <ele>301.909044</ele>
        <time>2021-11-18T20:06:39.309Z</time>
      </trkpt>
      <trkpt lat="47.549868" lon="7.905010">
        <ele>301.025745</ele>
        <time>2021-11-18T20:06:42.426Z</time>
      </trkpt>
      <trkpt lat="47.549867" lon="7.905155">
        <ele>300.639208</ele>
        <time>2021-11-18T20:06:43.818Z</time>
      </trkpt>
      <trkpt lat="47.550067" lon="7.905245">
        <ele>299.813702</ele>
        <time>2021-11-18T20:06:46.733Z</time>
      </trkpt>
      <trkpt lat="47.550283" lon="7.905413">
        <ele>298.850235</ele>
        <time>2021-11-18T20:06:50.173Z</time>
      </trkpt>
      <trkpt lat="47.550497" lon="7.905558">
        <ele>298.084386</ele>
        <time>2021-11-18T20:06:53.523Z</time>
      </trkpt>
      <trkpt lat="47.550206" lon="7.906488">
        <ele>296.270616</ele>
        <time>2021-11-18T20:07:00.400Z</time>
      </trkpt>
      <trkpt lat="47.549539" lon="7.908625">
        <ele>292.915951</ele>
        <time>2021-11-18T20:07:18.265Z</time>
      </trkpt>
      <trkpt lat="47.549520" lon="7.908678">
        <ele>292.864038</ele>
        <time>2021-11-18T20:07:18.776Z</time>
      </trkpt>
      <trkpt lat="47.549308" lon="7.909381">
        <ele>292.197970</ele>
        <time>2021-11-18T20:07:25.116Z</time>
      </trkpt>
      <trkpt lat="47.549195" lon="7.909756">
        <ele>291.842714</ele>
        <time>2021-11-18T20:07:28.519Z</time>
      </trkpt>
      <trkpt lat="47.549102" lon="7.910058">
        <ele>291.555562</ele>
        <time>2021-11-18T20:07:31.232Z</time>
      </trkpt>
      <trkpt lat="47.549012" lon="7.910340">
        <ele>291.298332</ele>
        <time>2021-11-18T20:07:33.759Z</time>
      </trkpt>
      <trkpt lat="47.548412" lon="7.912168">
        <ele>289.759459</ele>
        <time>2021-11-18T20:07:50.092Z</time>
      </trkpt>
      <trkpt lat="47.548027" lon="7.913334">
        <ele>289.119818</ele>
        <time>2021-11-18T20:08:00.852Z</time>
      </trkpt>
      <trkpt lat="47.547994" lon="7.913433">
        <ele>289.084621</ele>
        <time>2021-11-18T20:08:01.773Z</time>
      </trkpt>
      <trkpt lat="47.547423" lon="7.915080">
        <ele>288.539189</ele>
        <time>2021-11-18T20:08:19.250Z</time>
      </trkpt>
      <trkpt lat="47.547113" lon="7.915971">
        <ele>288.781342</ele>
        <time>2021-11-18T20:08:29.697Z</time>
      </trkpt>
      <trkpt lat="47.547091" lon="7.916039">
        <ele>288.799559</ele>
        <time>2021-11-18T20:08:30.721Z</time>
      </trkpt>
      <trkpt lat="47.547032" lon="7.916218">
        <ele>288.847681</ele>
        <time>2021-11-18T20:08:32.924Z</time>
      </trkpt>
      <trkpt lat="47.546821" lon="7.916867">
        <ele>289.021701</ele>
        <time>2021-11-18T20:08:41.033Z</time>
      </trkpt>
      <trkpt lat="47.546262" lon="7.919081">
        <ele>289.651749</ele>
        <time>2021-11-18T20:09:08.624Z</time>
      </trkpt>
      <trkpt lat="47.546128" lon="7.919617">
        <ele>289.808816</ele>
        <time>2021-11-18T20:09:14.098Z</time>
      </trkpt>
      <trkpt lat="47.546000" lon="7.920192">
        <ele>290.092423</ele>
        <time>2021-11-18T20:09:19.916Z</time>
      </trkpt>
      <trkpt lat="47.545973" lon="7.920313">
        <ele>290.179181</ele>
        <time>2021-11-18T20:09:22.528Z</time>
      </trkpt>
      <trkpt lat="47.545913" lon="7.920765">
        <ele>290.492786</ele>
        <time>2021-11-18T20:09:26.731Z</time>
      </trkpt>
      <trkpt lat="47.545881" lon="7.921096">
        <ele>290.720422</ele>
        <time>2021-11-18T20:09:30.746Z</time>
      </trkpt>
      <trkpt lat="47.545810" lon="7.921755">
        <ele>291.174733</ele>
        <time>2021-11-18T20:09:39.686Z</time>
      </trkpt>
      <trkpt lat="47.545778" lon="7.921947">
        <ele>291.309368</ele>
        <time>2021-11-18T20:09:43.231Z</time>
      </trkpt>
      <trkpt lat="47.545714" lon="7.922249">
        <ele>291.524858</ele>
        <time>2021-11-18T20:09:46.481Z</time>
      </trkpt>
      <trkpt lat="47.545699" lon="7.922325">
        <ele>291.578763</ele>
        <time>2021-11-18T20:09:47.643Z</time>
      </trkpt>
      <trkpt lat="47.545690" lon="7.922369">
        <ele>291.610063</ele>
        <time>2021-11-18T20:09:49.706Z</time>
      </trkpt>
      <trkpt lat="47.545641" lon="7.922610">
        <ele>291.941094</ele>
        <time>2021-11-18T20:09:52.043Z</time>
      </trkpt>
      <trkpt lat="47.545587" lon="7.922895">
        <ele>292.592494</ele>
        <time>2021-11-18T20:09:57.839Z</time>
      </trkpt>
      <trkpt lat="47.545553" lon="7.923142">
        <ele>293.147221</ele>
        <time>2021-11-18T20:10:00.486Z</time>
      </trkpt>
      <trkpt lat="47.545536" lon="7.923407">
        <ele>293.732999</ele>
        <time>2021-11-18T20:10:06.375Z</time>
      </trkpt>
      <trkpt lat="47.545521" lon="7.923709">
        <ele>294.399367</ele>
        <time>2021-11-18T20:10:10.529Z</time>
      </trkpt>
      <trkpt lat="47.545481" lon="7.924396">
        <ele>295.916771</ele>
        <time>2021-11-18T20:10:25.132Z</time>
      </trkpt>
      <trkpt lat="47.545466" lon="7.924880">
        <ele>296.982969</ele>
        <time>2021-11-18T20:10:36.439Z</time>
      </trkpt>
      <trkpt lat="47.545446" lon="7.925350">
        <ele>297.960301</ele>
        <time>2021-11-18T20:10:46.814Z</time>
      </trkpt>
      <trkpt lat="47.545417" lon="7.925848">
        <ele>298.914671</ele>
        <time>2021-11-18T20:10:57.293Z</time>
      </trkpt>
      <trkpt lat="47.545409" lon="7.926773">
        <ele>300.680931</ele>
        <time>2021-11-18T20:11:14.494Z</time>
      </trkpt>
      <trkpt lat="47.545407" lon="7.927001">
        <ele>301.116291</ele>
        <time>2021-11-18T20:11:18.303Z</time>
      </trkpt>
      <trkpt lat="47.545406" lon="7.927306">
        <ele>301.698639</ele>
        <time>2021-11-18T20:11:22.907Z</time>
      </trkpt>
      <trkpt lat="47.545421" lon="7.927686">
        <ele>302.425417</ele>
        <time>2021-11-18T20:11:28.443Z</time>
      </trkpt>
      <trkpt lat="47.545475" lon="7.928419">
        <ele>302.270249</ele>
        <time>2021-11-18T20:11:37.760Z</time>
      </trkpt>
      <trkpt lat="47.545563" lon="7.929641">
        <ele>301.487505</ele>
        <time>2021-11-18T20:11:47.640Z</time>
      </trkpt>
      <trkpt lat="47.545661" lon="7.930955">
        <ele>300.425879</ele>
        <time>2021-11-18T20:11:57.036Z</time>
      </trkpt>
      <trkpt lat="47.545696" lon="7.931497">
        <ele>299.840011</ele>
        <time>2021-11-18T20:12:01.004Z</time>
      </trkpt>
      <trkpt lat="47.545721" lon="7.931992">
        <ele>299.305890</ele>
        <time>2021-11-18T20:12:04.784Z</time>
      </trkpt>
      <trkpt lat="47.545724" lon="7.932758">
        <ele>298.481641</ele>
        <time>2021-11-18T20:12:10.902Z</time>
      </trkpt>
      <trkpt lat="47.545702" lon="7.933290">
        <ele>298.173291</ele>
        <time>2021-11-18T20:12:15.545Z</time>
      </trkpt>
      <trkpt lat="47.545674" lon="7.933625">
        <ele>298.320507</ele>
        <time>2021-11-18T20:12:18.846Z</time>
      </trkpt>
      <trkpt lat="47.545533" lon="7.934588">
        <ele>298.750259</ele>
        <time>2021-11-18T20:12:30.113Z</time>
      </trkpt>
      <trkpt lat="47.545485" lon="7.934914">
        <ele>298.895778</ele>
        <time>2021-11-18T20:12:34.092Z</time>
      </trkpt>
      <trkpt lat="47.545457" lon="7.935110">
        <ele>298.983152</ele>
        <time>2021-11-18T20:12:37.022Z</time>
      </trkpt>
      <trkpt lat="47.545074" lon="7.936484">
        <ele>300.261604</ele>
        <time>2021-11-18T20:12:58.473Z</time>
      </trkpt>
      <trkpt lat="47.544903" lon="7.936917">
        <ele>300.850453</ele>
        <time>2021-11-18T20:13:05.837Z</time>
      </trkpt>
      <trkpt lat="47.544705" lon="7.937395">
        <ele>301.508749</ele>
        <time>2021-11-18T20:13:14.187Z</time>
      </trkpt>
      <trkpt lat="47.544472" lon="7.937932">
        <ele>302.258071</ele>
        <time>2021-11-18T20:13:23.594Z</time>
      </trkpt>
      <trkpt lat="47.543826" lon="7.939433">
        <ele>304.362646</ele>
        <time>2021-11-18T20:13:50.475Z</time>
      </trkpt>
      <trkpt lat="47.543435" lon="7.940670">
        <ele>305.746977</ele>
        <time>2021-11-18T20:14:10.436Z</time>
      </trkpt>
      <trkpt lat="47.543161" lon="7.942213">
        <ele>306.642036</ele>
        <time>2021-11-18T20:14:31.285Z</time>
      </trkpt>
      <trkpt lat="47.543007" lon="7.943867">
        <ele>306.124384</ele>
        <time>2021-11-18T20:14:46.829Z</time>
      </trkpt>
      <trkpt lat="47.542913" lon="7.945267">
        <ele>304.809851</ele>
        <time>2021-11-18T20:14:57.589Z</time>
      </trkpt>
      <trkpt lat="47.542872" lon="7.945781">
        <ele>304.144178</ele>
        <time>2021-11-18T20:15:01.185Z</time>
      </trkpt>
      <trkpt lat="47.542875" lon="7.946089">
        <ele>303.615187</ele>
        <time>2021-11-18T20:15:03.276Z</time>
      </trkpt>
      <trkpt lat="47.542902" lon="7.946514">
        <ele>302.882098</ele>
        <time>2021-11-18T20:15:06.155Z</time>
      </trkpt>
      <trkpt lat="47.542943" lon="7.946806">
        <ele>302.369906</ele>
        <time>2021-11-18T20:15:08.202Z</time>
      </trkpt>
      <trkpt lat="47.542974" lon="7.946965">
        <ele>302.085691</ele>
        <time>2021-11-18T20:15:09.413Z</time>
      </trkpt>
      <trkpt lat="47.542979" lon="7.946989">
        <ele>302.042557</ele>
        <time>2021-11-18T20:15:09.568Z</time>
      </trkpt>
      <trkpt lat="47.543007" lon="7.947104">
        <ele>301.832611</ele>
        <time>2021-11-18T20:15:10.416Z</time>
      </trkpt>
      <trkpt lat="47.543087" lon="7.947317">
        <ele>301.414014</ele>
        <time>2021-11-18T20:15:12.159Z</time>
      </trkpt>
      <trkpt lat="47.543191" lon="7.947615">
        <ele>300.837905</ele>
        <time>2021-11-18T20:15:14.601Z</time>
      </trkpt>
      <trkpt lat="47.543242" lon="7.947745">
        <ele>300.579690</ele>
        <time>2021-11-18T20:15:15.730Z</time>
      </trkpt>
      <trkpt lat="47.543273" lon="7.947816">
        <ele>300.434478</ele>
        <time>2021-11-18T20:15:16.357Z</time>
      </trkpt>
      <trkpt lat="47.543358" lon="7.947967">
        <ele>300.096832</ele>
        <time>2021-11-18T20:15:17.800Z</time>
      </trkpt>
      <trkpt lat="47.543455" lon="7.948127">
        <ele>299.918573</ele>
        <time>2021-11-18T20:15:19.467Z</time>
      </trkpt>
      <trkpt lat="47.543532" lon="7.948214">
        <ele>299.868175</ele>
        <time>2021-11-18T20:15:20.547Z</time>
      </trkpt>
      <trkpt lat="47.543579" lon="7.948287">
        <ele>299.832736</ele>
        <time>2021-11-18T20:15:21.312Z</time>
      </trkpt>
      <trkpt lat="47.543760" lon="7.948548">
        <ele>299.701281</ele>
        <time>2021-11-18T20:15:24.200Z</time>
      </trkpt>
      <trkpt lat="47.543864" lon="7.948694">
        <ele>299.626715</ele>
        <time>2021-11-18T20:15:25.872Z</time>
      </trkpt>
      <trkpt lat="47.544239" lon="7.949202">
        <ele>299.362262</ele>
        <time>2021-11-18T20:15:33.234Z</time>
      </trkpt>
      <trkpt lat="47.544521" lon="7.949558">
        <ele>299.169442</ele>
        <time>2021-11-18T20:15:39.407Z</time>
      </trkpt>
      <trkpt lat="47.544901" lon="7.950044">
        <ele>298.701660</ele>
        <time>2021-11-18T20:15:48.207Z</time>
      </trkpt>
      <trkpt lat="47.545166" lon="7.950366">
        <ele>298.224941</ele>
        <time>2021-11-18T20:15:53.448Z</time>
      </trkpt>
      <trkpt lat="47.545434" lon="7.950668">
        <ele>297.756590</ele>
        <time>2021-11-18T20:15:57.688Z</time>
      </trkpt>
      <trkpt lat="47.545542" lon="7.950842">
        <ele>297.534657</ele>
        <time>2021-11-18T20:15:59.467Z</time>
      </trkpt>
      <trkpt lat="47.545667" lon="7.950979">
        <ele>297.318384</ele>
        <time>2021-11-18T20:16:01.237Z</time>
      </trkpt>
      <trkpt lat="47.545737" lon="7.951055">
        <ele>297.197672</ele>
        <time>2021-11-18T20:16:02.167Z</time>
      </trkpt>
      <trkpt lat="47.545759" lon="7.950982">
        <ele>297.122613</ele>
        <time>2021-11-18T20:16:02.733Z</time>
      </trkpt>
      <trkpt lat="47.545852" lon="7.950808">
        <ele>296.914237</ele>
        <time>2021-11-18T20:16:04.306Z</time>
      </trkpt>
      <trkpt lat="47.545858" lon="7.950769">
        <ele>296.876681</ele>
        <time>2021-11-18T20:16:04.586Z</time>
      </trkpt>
      <trkpt lat="47.545875" lon="7.950668">
        <ele>296.778951</ele>
        <time>2021-11-18T20:16:05.329Z</time>
      </trkpt>
      <trkpt lat="47.545948" lon="7.950297">
        <ele>296.228420</ele>
        <time>2021-11-18T20:16:07.928Z</time>
      </trkpt>
      <trkpt lat="47.545949" lon="7.950185">
        <ele>295.949694</ele>
        <time>2021-11-18T20:16:08.687Z</time>
      </trkpt>
      <trkpt lat="47.546159" lon="7.949303">
        <ele>293.622392</ele>
        <time>2021-11-18T20:16:14.710Z</time>
      </trkpt>
      <trkpt lat="47.546572" lon="7.947545">
        <ele>289.521428</ele>
        <time>2021-11-18T20:16:27.181Z</time>
      </trkpt>
      <trkpt lat="47.546664" lon="7.947227">
        <ele>289.163587</ele>
        <time>2021-11-18T20:16:29.705Z</time>
      </trkpt>
      <trkpt lat="47.546749" lon="7.946929">
        <ele>288.828982</ele>
        <time>2021-11-18T20:16:32.089Z</time>
      </trkpt>
      <trkpt lat="47.546772" lon="7.946847">
        <ele>288.737140</ele>
        <time>2021-11-18T20:16:32.764Z</time>
      </trkpt>
      <trkpt lat="47.546815" lon="7.946690">
        <ele>288.561899</ele>
        <time>2021-11-18T20:16:34.055Z</time>
      </trkpt>
      <trkpt lat="47.546959" lon="7.946071">
        <ele>287.884723</ele>
        <time>2021-11-18T20:16:39.362Z</time>
      </trkpt>
      <trkpt lat="47.547022" lon="7.945790">
        <ele>287.578479</ele>
        <time>2021-11-18T20:16:42.197Z</time>
      </trkpt>
      <trkpt lat="47.547075" lon="7.945550">
        <ele>287.317305</ele>
        <time>2021-11-18T20:16:44.518Z</time>
      </trkpt>
      <trkpt lat="47.547150" lon="7.945242">
        <ele>287.103219</ele>
        <time>2021-11-18T20:16:48.324Z</time>
      </trkpt>
      <trkpt lat="47.547161" lon="7.945196">
        <ele>287.090985</ele>
        <time>2021-11-18T20:16:48.803Z</time>
      </trkpt>
      <trkpt lat="47.547282" lon="7.944699">
        <ele>286.958545</ele>
        <time>2021-11-18T20:16:54.451Z</time>
      </trkpt>
      <trkpt lat="47.547318" lon="7.944515">
        <ele>286.910522</ele>
        <time>2021-11-18T20:16:56.135Z</time>
      </trkpt>
      <trkpt lat="47.547344" lon="7.944382">
        <ele>286.875813</ele>
        <time>2021-11-18T20:16:57.509Z</time>
      </trkpt>
      <trkpt lat="47.547354" lon="7.944331">
        <ele>286.862500</ele>
        <time>2021-11-18T20:16:58.040Z</time>
      </trkpt>
      <trkpt lat="47.547734" lon="7.942722">
        <ele>286.390056</ele>
        <time>2021-11-18T20:17:13.024Z</time>
      </trkpt>
      <trkpt lat="47.547790" lon="7.942490">
        <ele>286.258423</ele>
        <time>2021-11-18T20:17:15.059Z</time>
      </trkpt>
      <trkpt lat="47.548087" lon="7.941446">
        <ele>285.653152</ele>
        <time>2021-11-18T20:17:25.107Z</time>
      </trkpt>
      <trkpt lat="47.548484" lon="7.940313">
        <ele>284.973934</ele>
        <time>2021-11-18T20:17:35.436Z</time>
      </trkpt>
      <trkpt lat="47.548550" lon="7.940126">
        <ele>284.865107</ele>
        <time>2021-11-18T20:17:37.178Z</time>
      </trkpt>
      <trkpt lat="47.548587" lon="7.940118">
        <ele>284.836538</ele>
        <time>2021-11-18T20:17:37.665Z</time>
      </trkpt>
      <trkpt lat="47.548632" lon="7.940087">
        <ele>284.798620</ele>
        <time>2021-11-18T20:17:38.306Z</time>
      </trkpt>
      <trkpt lat="47.548653" lon="7.940052">
        <ele>284.774469</ele>
        <time>2021-11-18T20:17:38.711Z</time>
      </trkpt>
      <trkpt lat="47.548676" lon="7.939951">
        <ele>284.719498</ele>
        <time>2021-11-18T20:17:39.592Z</time>
      </trkpt>
      <trkpt lat="47.548673" lon="7.939890">
        <ele>284.687956</ele>
        <time>2021-11-18T20:17:40.124Z</time>
      </trkpt>
      <trkpt lat="47.548643" lon="7.939810">
        <ele>284.640759</ele>
        <time>2021-11-18T20:17:40.892Z</time>
      </trkpt>
      <trkpt lat="47.548614" lon="7.939778">
        <ele>284.613131</ele>
        <time>2021-11-18T20:17:41.326Z</time>
      </trkpt>
      <trkpt lat="47.548563" lon="7.939753">
        <ele>284.572086</ele>
        <time>2021-11-18T20:17:41.995Z</time>
      </trkpt>
      <trkpt lat="47.548509" lon="7.939765">
        <ele>284.530366</ele>
        <time>2021-11-18T20:17:42.711Z</time>
      </trkpt>
      <trkpt lat="47.548230" lon="7.939581">
        <ele>284.297027</ele>
        <time>2021-11-18T20:17:46.539Z</time>
      </trkpt>
      <trkpt lat="47.548150" lon="7.939478">
        <ele>284.216047</ele>
        <time>2021-11-18T20:17:47.941Z</time>
      </trkpt>
      <trkpt lat="47.548129" lon="7.939460">
        <ele>284.197510</ele>
        <time>2021-11-18T20:17:48.238Z</time>
      </trkpt>
      <trkpt lat="47.548085" lon="7.939422">
        <ele>284.158596</ele>
        <time>2021-11-18T20:17:48.881Z</time>
      </trkpt>
      <trkpt lat="47.547736" lon="7.939092">
        <ele>283.842259</ele>
        <time>2021-11-18T20:17:54.346Z</time>
      </trkpt>
      <trkpt lat="47.547474" lon="7.938844">
        <ele>283.665886</ele>
        <time>2021-11-18T20:17:58.524Z</time>
      </trkpt>
      <trkpt lat="47.547174" lon="7.938475">
        <ele>283.619465</ele>
        <time>2021-11-18T20:18:03.586Z</time>
      </trkpt>
      <trkpt lat="47.547115" lon="7.938377">
        <ele>283.608912</ele>
        <time>2021-11-18T20:18:04.757Z</time>
      </trkpt>
      <trkpt lat="47.547044" lon="7.938237">
        <ele>283.594840</ele>
        <time>2021-11-18T20:18:06.441Z</time>
      </trkpt>
      <trkpt lat="47.546969" lon="7.938023">
        <ele>283.575464</ele>
        <time>2021-11-18T20:18:08.843Z</time>
      </trkpt>
      <trkpt lat="47.546915" lon="7.937800">
        <ele>283.556425</ele>
        <time>2021-11-18T20:18:11.224Z</time>
      </trkpt>
      <trkpt lat="47.546890" lon="7.937602">
        <ele>283.540238</ele>
        <time>2021-11-18T20:18:13.411Z</time>
      </trkpt>
      <trkpt lat="47.546895" lon="7.937196">
        <ele>283.507607</ele>
        <time>2021-11-18T20:18:17.497Z</time>
      </trkpt>
      <trkpt lat="47.547020" lon="7.936617">
        <ele>283.476504</ele>
        <time>2021-11-18T20:18:23.814Z</time>
      </trkpt>
      <trkpt lat="47.547523" lon="7.935115">
        <ele>283.899521</ele>
        <time>2021-11-18T20:18:41.906Z</time>
      </trkpt>
      <trkpt lat="47.547539" lon="7.935068">
        <ele>283.912801</ele>
        <time>2021-11-18T20:18:42.472Z</time>
      </trkpt>
      <trkpt lat="47.547663" lon="7.934665">
        <ele>284.024540</ele>
        <time>2021-11-18T20:18:47.426Z</time>
      </trkpt>
      <trkpt lat="47.547956" lon="7.933604">
        <ele>284.481238</ele>
        <time>2021-11-18T20:19:00.775Z</time>
      </trkpt>
      <trkpt lat="47.548144" lon="7.932614">
        <ele>284.984251</ele>
        <time>2021-11-18T20:19:13.701Z</time>
      </trkpt>
      <trkpt lat="47.548252" lon="7.930989">
        <ele>285.829744</ele>
        <time>2021-11-18T20:19:33.200Z</time>
      </trkpt>
      <trkpt lat="47.548241" lon="7.930335">
        <ele>286.193273</ele>
        <time>2021-11-18T20:19:40.399Z</time>
      </trkpt>
      <trkpt lat="47.548236" lon="7.930144">
        <ele>286.299489</ele>
        <time>2021-11-18T20:19:42.378Z</time>
      </trkpt>
      <trkpt lat="47.548226" lon="7.929841">
        <ele>286.468062</ele>
        <time>2021-11-18T20:19:46.360Z</time>
      </trkpt>
      <trkpt lat="47.548192" lon="7.928866">
        <ele>287.123037</ele>
        <time>2021-11-18T20:19:59.012Z</time>
      </trkpt>
      <trkpt lat="47.548186" lon="7.928343">
        <ele>287.772440</ele>
        <time>2021-11-18T20:20:06.514Z</time>
      </trkpt>
      <trkpt lat="47.548228" lon="7.928033">
        <ele>288.164985</ele>
        <time>2021-11-18T20:20:10.568Z</time>
      </trkpt>
      <trkpt lat="47.548275" lon="7.927880">
        <ele>288.373683</ele>
        <time>2021-11-18T20:20:12.897Z</time>
      </trkpt>
      <trkpt lat="47.548298" lon="7.927820">
        <ele>288.459349</ele>
        <time>2021-11-18T20:20:14.649Z</time>
      </trkpt>
      <trkpt lat="47.548534" lon="7.927518">
        <ele>289.032941</ele>
        <time>2021-11-18T20:20:21.027Z</time>
      </trkpt>
      <trkpt lat="47.548618" lon="7.927488">
        <ele>289.191873</ele>
        <time>2021-11-18T20:20:23.745Z</time>
      </trkpt>
      <trkpt lat="47.548777" lon="7.927430">
        <ele>289.493065</ele>
        <time>2021-11-18T20:20:27.022Z</time>
      </trkpt>
      <trkpt lat="47.548912" lon="7.927437">
        <ele>289.741530</ele>
        <time>2021-11-18T20:20:30.663Z</time>
      </trkpt>
      <trkpt lat="47.549059" lon="7.927444">
        <ele>290.012055</ele>
        <time>2021-11-18T20:20:34.320Z</time>
      </trkpt>
      <trkpt lat="47.549697" lon="7.927581">
        <ele>291.012662</ele>
        <time>2021-11-18T20:20:49.954Z</time>
      </trkpt>
      <trkpt lat="47.550041" lon="7.927651">
        <ele>291.529427</ele>
        <time>2021-11-18T20:20:57.518Z</time>
      </trkpt>
      <trkpt lat="47.550381" lon="7.927709">
        <ele>292.038775</ele>
        <time>2021-11-18T20:21:04.638Z</time>
      </trkpt>
      <trkpt lat="47.550481" lon="7.927724">
        <ele>292.188361</ele>
        <time>2021-11-18T20:21:06.577Z</time>
      </trkpt>
      <trkpt lat="47.550669" lon="7.927757">
        <ele>292.470108</ele>
        <time>2021-11-18T20:21:09.796Z</time>
      </trkpt>
      <trkpt lat="47.551076" lon="7.927850">
        <ele>292.948336</ele>
        <time>2021-11-18T20:21:16.775Z</time>
      </trkpt>
      <trkpt lat="47.551163" lon="7.927871">
        <ele>292.980480</ele>
        <time>2021-11-18T20:21:18.168Z</time>
      </trkpt>
      <trkpt lat="47.551192" lon="7.927575">
        <ele>293.054097</ele>
        <time>2021-11-18T20:21:21.529Z</time>
      </trkpt>
      <trkpt lat="47.551183" lon="7.927256">
        <ele>293.132679</ele>
        <time>2021-11-18T20:21:25.044Z</time>
      </trkpt>
      <trkpt lat="47.551209" lon="7.927048">
        <ele>293.184744</ele>
        <time>2021-11-18T20:21:27.312Z</time>
      </trkpt>
      <trkpt lat="47.551236" lon="7.926890">
        <ele>293.224858</ele>
        <time>2021-11-18T20:21:29.181Z</time>
      </trkpt>
      <trkpt lat="47.551262" lon="7.926787">
        <ele>293.251924</ele>
        <time>2021-11-18T20:21:30.281Z</time>
      </trkpt>
      <trkpt lat="47.551300" lon="7.926708">
        <ele>293.275801</ele>
        <time>2021-11-18T20:21:31.286Z</time>
      </trkpt>
      <trkpt lat="47.551345" lon="7.926636">
        <ele>293.299953</ele>
        <time>2021-11-18T20:21:32.297Z</time>
      </trkpt>
      <trkpt lat="47.551423" lon="7.926561">
        <ele>293.333861</ele>
        <time>2021-11-18T20:21:33.919Z</time>
      </trkpt>
      <trkpt lat="47.551676" lon="7.926477">
        <ele>293.428410</ele>
        <time>2021-11-18T20:21:37.853Z</time>
      </trkpt>
      <trkpt lat="47.551788" lon="7.926512">
        <ele>293.470151</ele>
        <time>2021-11-18T20:21:39.856Z</time>
      </trkpt>
      <trkpt lat="47.552250" lon="7.926787">
        <ele>293.640393</ele>
        <time>2021-11-18T20:21:47.611Z</time>
      </trkpt>
      <trkpt lat="47.552388" lon="7.926860">
        <ele>293.687193</ele>
        <time>2021-11-18T20:21:50.039Z</time>
      </trkpt>
      <trkpt lat="47.552729" lon="7.927061">
        <ele>293.804405</ele>
        <time>2021-11-18T20:21:56.073Z</time>
      </trkpt>
      <trkpt lat="47.552928" lon="7.927209">
        <ele>293.875520</ele>
        <time>2021-11-18T20:21:59.726Z</time>
      </trkpt>
      <trkpt lat="47.553166" lon="7.927389">
        <ele>293.960864</ele>
        <time>2021-11-18T20:22:04.308Z</time>
      </trkpt>
      <trkpt lat="47.553221" lon="7.927438">
        <ele>293.981361</ele>
        <time>2021-11-18T20:22:05.263Z</time>
      </trkpt>
      <trkpt lat="47.553257" lon="7.927322">
        <ele>294.008882</ele>
        <time>2021-11-18T20:22:06.711Z</time>
      </trkpt>
      <trkpt lat="47.553294" lon="7.927186">
        <ele>294.040490</ele>
        <time>2021-11-18T20:22:08.349Z</time>
      </trkpt>
      <trkpt lat="47.553381" lon="7.926895">
        <ele>294.109095</ele>
        <time>2021-11-18T20:22:11.682Z</time>
      </trkpt>
      <trkpt lat="47.553408" lon="7.926803">
        <ele>294.130720</ele>
        <time>2021-11-18T20:22:12.797Z</time>
      </trkpt>
      <trkpt lat="47.553539" lon="7.926451">
        <ele>294.125885</ele>
        <time>2021-11-18T20:22:16.924Z</time>
      </trkpt>
      <trkpt lat="47.553834" lon="7.925632">
        <ele>294.103742</ele>
        <time>2021-11-18T20:22:26.064Z</time>
      </trkpt>
      <trkpt lat="47.554226" lon="7.924713">
        <ele>294.077811</ele>
        <time>2021-11-18T20:22:36.638Z</time>
      </trkpt>
      <trkpt lat="47.554705" lon="7.923835">
        <ele>293.967304</ele>
        <time>2021-11-18T20:22:47.471Z</time>
      </trkpt>
      <trkpt lat="47.555118" lon="7.923179">
        <ele>293.858877</ele>
        <time>2021-11-18T20:22:55.898Z</time>
      </trkpt>
      <trkpt lat="47.555231" lon="7.923000">
        <ele>293.829254</ele>
        <time>2021-11-18T20:22:58.241Z</time>
      </trkpt>
      <trkpt lat="47.555272" lon="7.922934">
        <ele>293.818412</ele>
        <time>2021-11-18T20:22:59.052Z</time>
      </trkpt>
      <trkpt lat="47.556542" lon="7.921551">
        <ele>293.640605</ele>
        <time>2021-11-18T20:23:21.736Z</time>
      </trkpt>
      <trkpt lat="47.557147" lon="7.921064">
        <ele>293.564550</ele>
        <time>2021-11-18T20:23:31.900Z</time>
      </trkpt>
      <trkpt lat="47.558098" lon="7.920440">
        <ele>293.298708</ele>
        <time>2021-11-18T20:23:47.089Z</time>
      </trkpt>
      <trkpt lat="47.561244" lon="7.918902">
        <ele>291.244611</ele>
        <time>2021-11-18T20:24:30.531Z</time>
      </trkpt>
      <trkpt lat="47.561405" lon="7.918835">
        <ele>291.062908</ele>
        <time>2021-11-18T20:24:32.442Z</time>
      </trkpt>
      <trkpt lat="47.561792" lon="7.918633">
        <ele>290.617087</ele>
        <time>2021-11-18T20:24:37.128Z</time>
      </trkpt>
      <trkpt lat="47.562098" lon="7.918473">
        <ele>290.264510</ele>
        <time>2021-11-18T20:24:40.863Z</time>
      </trkpt>
      <trkpt lat="47.562192" lon="7.918413">
        <ele>290.157340</ele>
        <time>2021-11-18T20:24:42.019Z</time>
      </trkpt>
      <trkpt lat="47.562330" lon="7.918325">
        <ele>290.008738</ele>
        <time>2021-11-18T20:24:43.774Z</time>
      </trkpt>
      <trkpt lat="47.562491" lon="7.918206">
        <ele>289.830778</ele>
        <time>2021-11-18T20:24:45.813Z</time>
      </trkpt>
      <trkpt lat="47.562766" lon="7.918001">
        <ele>289.526290</ele>
        <time>2021-11-18T20:24:49.396Z</time>
      </trkpt>
      <trkpt lat="47.562783" lon="7.917983">
        <ele>289.505624</ele>
        <time>2021-11-18T20:24:49.615Z</time>
      </trkpt>
      <trkpt lat="47.563304" lon="7.917434">
        <ele>288.873290</ele>
        <time>2021-11-18T20:24:57.359Z</time>
      </trkpt>
      <trkpt lat="47.563485" lon="7.917258">
        <ele>288.659159</ele>
        <time>2021-11-18T20:25:00.213Z</time>
      </trkpt>
      <trkpt lat="47.564482" lon="7.916219">
        <ele>288.522613</ele>
        <time>2021-11-18T20:25:18.594Z</time>
      </trkpt>
      <trkpt lat="47.564500" lon="7.916200">
        <ele>288.524953</ele>
        <time>2021-11-18T20:25:18.949Z</time>
      </trkpt>
      <trkpt lat="47.564526" lon="7.916174">
        <ele>288.528275</ele>
        <time>2021-11-18T20:25:19.436Z</time>
      </trkpt>
      <trkpt lat="47.564899" lon="7.915798">
        <ele>288.576048</ele>
        <time>2021-11-18T20:25:26.628Z</time>
      </trkpt>
      <trkpt lat="47.565627" lon="7.915066">
        <ele>288.630479</ele>
        <time>2021-11-18T20:25:40.521Z</time>
      </trkpt>
      <trkpt lat="47.565672" lon="7.915025">
        <ele>288.632432</ele>
        <time>2021-11-18T20:25:41.358Z</time>
      </trkpt>
      <trkpt lat="47.565748" lon="7.914949">
        <ele>288.635821</ele>
        <time>2021-11-18T20:25:42.814Z</time>
      </trkpt>
      <trkpt lat="47.565830" lon="7.914880">
        <ele>288.639307</ele>
        <time>2021-11-18T20:25:44.321Z</time>
      </trkpt>
      <trkpt lat="47.565995" lon="7.914739">
        <ele>288.646348</ele>
        <time>2021-11-18T20:25:47.246Z</time>
      </trkpt>
      <trkpt lat="47.566025" lon="7.914720">
        <ele>288.647554</ele>
        <time>2021-11-18T20:25:47.675Z</time>
      </trkpt>
      <trkpt lat="47.566096" lon="7.914676">
        <ele>288.650399</ele>
        <time>2021-11-18T20:25:48.857Z</time>
      </trkpt>
      <trkpt lat="47.566250" lon="7.914580">
        <ele>288.656575</ele>
        <time>2021-11-18T20:25:51.377Z</time>
      </trkpt>
      <trkpt lat="47.566474" lon="7.914468">
        <ele>288.665315</ele>
        <time>2021-11-18T20:25:54.689Z</time>
      </trkpt>
      <trkpt lat="47.566489" lon="7.914461">
        <ele>288.665896</ele>
        <time>2021-11-18T20:25:54.928Z</time>
      </trkpt>
      <trkpt lat="47.566534" lon="7.914439">
        <ele>288.667648</ele>
        <time>2021-11-18T20:25:55.604Z</time>
      </trkpt>
      <trkpt lat="47.566601" lon="7.914411">
        <ele>288.670221</ele>
        <time>2021-11-18T20:25:56.620Z</time>
      </trkpt>
      <trkpt lat="47.566984" lon="7.914229">
        <ele>288.564939</ele>
        <time>2021-11-18T20:26:02.154Z</time>
      </trkpt>
      <trkpt lat="47.567335" lon="7.914048">
        <ele>288.393029</ele>
        <time>2021-11-18T20:26:07.084Z</time>
      </trkpt>
      <trkpt lat="47.567374" lon="7.914028">
        <ele>288.373939</ele>
        <time>2021-11-18T20:26:07.563Z</time>
      </trkpt>
      <trkpt lat="47.568301" lon="7.913554">
        <ele>287.920332</ele>
        <time>2021-11-18T20:26:20.565Z</time>
      </trkpt>
      <trkpt lat="47.568566" lon="7.913414">
        <ele>287.829678</ele>
        <time>2021-11-18T20:26:24.272Z</time>
      </trkpt>
      <trkpt lat="47.569155" lon="7.913298">
        <ele>287.755784</ele>
        <time>2021-11-18T20:26:32.311Z</time>
      </trkpt>
      <trkpt lat="47.569682" lon="7.913220">
        <ele>287.689918</ele>
        <time>2021-11-18T20:26:39.882Z</time>
      </trkpt>
      <trkpt lat="47.571638" lon="7.913041">
        <ele>287.752562</ele>
        <time>2021-11-18T20:27:10.458Z</time>
      </trkpt>
      <trkpt lat="47.571807" lon="7.913030">
        <ele>287.768500</ele>
        <time>2021-11-18T20:27:13.109Z</time>
      </trkpt>
      <trkpt lat="47.571801" lon="7.912878">
        <ele>287.778178</ele>
        <time>2021-11-18T20:27:14.627Z</time>
      </trkpt>
      <trkpt lat="47.571815" lon="7.912822">
        <ele>287.781974</ele>
        <time>2021-11-18T20:27:15.215Z</time>
      </trkpt>
      <trkpt lat="47.571842" lon="7.912780">
        <ele>287.785662</ele>
        <time>2021-11-18T20:27:15.697Z</time>
      </trkpt>
      <trkpt lat="47.572195" lon="7.912650">
        <ele>287.625332</ele>
        <time>2021-11-18T20:27:20.865Z</time>
      </trkpt>
      <trkpt lat="47.572843" lon="7.912399">
        <ele>287.278609</ele>
        <time>2021-11-18T20:27:29.918Z</time>
      </trkpt>
      <trkpt lat="47.572921" lon="7.912369">
        <ele>287.236893</ele>
        <time>2021-11-18T20:27:30.874Z</time>
      </trkpt>
      <trkpt lat="47.573759" lon="7.912034">
        <ele>286.770716</ele>
        <time>2021-11-18T20:27:41.876Z</time>
      </trkpt>
      <trkpt lat="47.573998" lon="7.911915">
        <ele>286.609321</ele>
        <time>2021-11-18T20:27:44.993Z</time>
      </trkpt>
      <trkpt lat="47.574566" lon="7.911447">
        <ele>286.193323</ele>
        <time>2021-11-18T20:27:53.318Z</time>
      </trkpt>
      <trkpt lat="47.574901" lon="7.911251">
        <ele>285.962775</ele>
        <time>2021-11-18T20:27:58.003Z</time>
      </trkpt>
      <trkpt lat="47.575508" lon="7.910912">
        <ele>285.673480</ele>
        <time>2021-11-18T20:28:06.631Z</time>
      </trkpt>
      <trkpt lat="47.575539" lon="7.910898">
        <ele>285.669073</ele>
        <time>2021-11-18T20:28:07.142Z</time>
      </trkpt>
      <trkpt lat="47.575854" lon="7.910743">
        <ele>285.623933</ele>
        <time>2021-11-18T20:28:11.647Z</time>
      </trkpt>
      <trkpt lat="47.576932" lon="7.910134">
        <ele>285.467033</ele>
        <time>2021-11-18T20:28:28.633Z</time>
      </trkpt>
      <trkpt lat="47.577424" lon="7.909886">
        <ele>285.681385</ele>
        <time>2021-11-18T20:28:36.788Z</time>
      </trkpt>
      <trkpt lat="47.577771" lon="7.909710">
        <ele>285.845378</ele>
        <time>2021-11-18T20:28:42.880Z</time>
      </trkpt>
      <trkpt lat="47.578895" lon="7.909087">
        <ele>286.314226</ele>
        <time>2021-11-18T20:29:03.570Z</time>
      </trkpt>
      <trkpt lat="47.579056" lon="7.908962">
        <ele>286.347572</ele>
        <time>2021-11-18T20:29:07.035Z</time>
      </trkpt>
      <trkpt lat="47.579708" lon="7.908314">
        <ele>286.491595</ele>
        <time>2021-11-18T20:29:19.948Z</time>
      </trkpt>
      <trkpt lat="47.580105" lon="7.908168">
        <ele>286.566643</ele>
        <time>2021-11-18T20:29:25.697Z</time>
      </trkpt>
      <trkpt lat="47.580194" lon="7.908192">
        <ele>286.583240</ele>
        <time>2021-11-18T20:29:26.862Z</time>
      </trkpt>
      <trkpt lat="47.580422" lon="7.908273">
        <ele>286.438632</ele>
        <time>2021-11-18T20:29:29.992Z</time>
      </trkpt>
      <trkpt lat="47.580470" lon="7.908164">
        <ele>286.351061</ele>
        <time>2021-11-18T20:29:30.981Z</time>
      </trkpt>
      <trkpt lat="47.580552" lon="7.908081">
        <ele>286.252037</ele>
        <time>2021-11-18T20:29:32.347Z</time>
      </trkpt>
      <trkpt lat="47.581568" lon="7.907612">
        <ele>285.190781</ele>
        <time>2021-11-18T20:29:45.206Z</time>
      </trkpt>
      <trkpt lat="47.581793" lon="7.907472">
        <ele>284.947422</ele>
        <time>2021-11-18T20:29:47.977Z</time>
      </trkpt>
      <trkpt lat="47.582248" lon="7.907090">
        <ele>284.774691</ele>
        <time>2021-11-18T20:29:54.190Z</time>
      </trkpt>
      <trkpt lat="47.582657" lon="7.906618">
        <ele>284.735511</ele>
        <time>2021-11-18T20:30:00.823Z</time>
      </trkpt>
      <trkpt lat="47.582951" lon="7.906415">
        <ele>284.710995</ele>
        <time>2021-11-18T20:30:05.752Z</time>
      </trkpt>
      <trkpt lat="47.583077" lon="7.906399">
        <ele>284.701436</ele>
        <time>2021-11-18T20:30:07.631Z</time>
      </trkpt>
      <trkpt lat="47.583245" lon="7.906443">
        <ele>284.688540</ele>
        <time>2021-11-18T20:30:11.044Z</time>
      </trkpt>
      <trkpt lat="47.583451" lon="7.906619">
        <ele>284.670568</ele>
        <time>2021-11-18T20:30:15.585Z</time>
      </trkpt>
      <trkpt lat="47.583711" lon="7.906911">
        <ele>285.292115</ele>
        <time>2021-11-18T20:30:22.327Z</time>
      </trkpt>
      <trkpt lat="47.583887" lon="7.907113">
        <ele>285.782864</ele>
        <time>2021-11-18T20:30:27.310Z</time>
      </trkpt>
      <trkpt lat="47.584719" lon="7.908091">
        <ele>288.123936</ele>
        <time>2021-11-18T20:30:52.932Z</time>
      </trkpt>
      <trkpt lat="47.585084" lon="7.908692">
        <ele>289.805522</ele>
        <time>2021-11-18T20:31:07.619Z</time>
      </trkpt>
      <trkpt lat="47.585149" lon="7.908804">
        <ele>290.176968</ele>
        <time>2021-11-18T20:31:10.574Z</time>
      </trkpt>
      <trkpt lat="47.585222" lon="7.908901">
        <ele>290.542338</ele>
        <time>2021-11-18T20:31:13.736Z</time>
      </trkpt>
      <trkpt lat="47.585337" lon="7.909031">
        <ele>291.081344</ele>
        <time>2021-11-18T20:31:17.915Z</time>
      </trkpt>
      <trkpt lat="47.585078" lon="7.909509">
        <ele>292.622741</ele>
        <time>2021-11-18T20:31:29.954Z</time>
      </trkpt>
      <trkpt lat="47.585045" lon="7.909674">
        <ele>293.055397</ele>
        <time>2021-11-18T20:31:33.366Z</time>
      </trkpt>
      <trkpt lat="47.585051" lon="7.909751">
        <ele>293.250260</ele>
        <time>2021-11-18T20:31:35.223Z</time>
      </trkpt>
      <trkpt lat="47.585066" lon="7.909809">
        <ele>293.406421</ele>
        <time>2021-11-18T20:31:36.503Z</time>
      </trkpt>
      <trkpt lat="47.585093" lon="7.909869">
        <ele>293.587748</ele>
        <time>2021-11-18T20:31:37.835Z</time>
      </trkpt>
      <trkpt lat="47.585157" lon="7.909965">
        <ele>293.927080</ele>
        <time>2021-11-18T20:31:40.212Z</time>
      </trkpt>
      <trkpt lat="47.585271" lon="7.910136">
        <ele>294.531516</ele>
        <time>2021-11-18T20:31:45.184Z</time>
      </trkpt>
      <trkpt lat="47.585430" lon="7.910346">
        <ele>295.325186</ele>
        <time>2021-11-18T20:31:52.105Z</time>
      </trkpt>
      <trkpt lat="47.585610" lon="7.910640">
        <ele>296.464698</ele>
        <time>2021-11-18T20:32:01.734Z</time>
      </trkpt>
      <trkpt lat="47.586028" lon="7.911561">
        <ele>299.655240</ele>
        <time>2021-11-18T20:32:27.814Z</time>
      </trkpt>
      <trkpt lat="47.586263" lon="7.911881">
        <ele>301.014887</ele>
        <time>2021-11-18T20:32:38.070Z</time>
      </trkpt>
      <trkpt lat="47.586433" lon="7.912047">
        <ele>301.882288</ele>
        <time>2021-11-18T20:32:44.648Z</time>
      </trkpt>
      <trkpt lat="47.586622" lon="7.912140">
        <ele>302.730852</ele>
        <time>2021-11-18T20:32:50.369Z</time>
      </trkpt>
      <trkpt lat="47.586917" lon="7.912301">
        <ele>303.404785</ele>
        <time>2021-11-18T20:32:58.227Z</time>
      </trkpt>
      <trkpt lat="47.587725" lon="7.912508">
        <ele>304.723436</ele>
        <time>2021-11-18T20:33:16.922Z</time>
      </trkpt>
      <trkpt lat="47.587897" lon="7.912517">
        <ele>305.000212</ele>
        <time>2021-11-18T20:33:20.479Z</time>
      </trkpt>
      <trkpt lat="47.588907" lon="7.912607">
        <ele>306.001925</ele>
        <time>2021-11-18T20:33:35.936Z</time>
      </trkpt>
      <trkpt lat="47.589326" lon="7.912720">
        <ele>306.102832</ele>
        <time>2021-11-18T20:33:42.275Z</time>
      </trkpt>
      <trkpt lat="47.589873" lon="7.912855">
        <ele>306.234221</ele>
        <time>2021-11-18T20:33:50.774Z</time>
      </trkpt>
      <trkpt lat="47.590231" lon="7.912830">
        <ele>306.319139</ele>
        <time>2021-11-18T20:33:56.498Z</time>
      </trkpt>
      <trkpt lat="47.590570" lon="7.912784">
        <ele>306.655280</ele>
        <time>2021-11-18T20:34:02.619Z</time>
      </trkpt>
      <trkpt lat="47.591044" lon="7.912710">
        <ele>307.129855</ele>
        <time>2021-11-18T20:34:11.692Z</time>
      </trkpt>
      <trkpt lat="47.591348" lon="7.912662">
        <ele>307.434262</ele>
        <time>2021-11-18T20:34:17.773Z</time>
      </trkpt>
      <trkpt lat="47.591443" lon="7.912678">
        <ele>307.529463</ele>
        <time>2021-11-18T20:34:19.352Z</time>
      </trkpt>
      <trkpt lat="47.591605" lon="7.912829">
        <ele>307.719992</ele>
        <time>2021-11-18T20:34:23.596Z</time>
      </trkpt>
      <trkpt lat="47.591714" lon="7.913064">
        <ele>307.911517</ele>
        <time>2021-11-18T20:34:26.902Z</time>
      </trkpt>
      <trkpt lat="47.591721" lon="7.913096">
        <ele>307.934108</ele>
        <time>2021-11-18T20:34:27.288Z</time>
      </trkpt>
      <trkpt lat="47.591746" lon="7.913330">
        <ele>308.093202</ele>
        <time>2021-11-18T20:34:31.013Z</time>
      </trkpt>
      <trkpt lat="47.591809" lon="7.913704">
        <ele>308.508312</ele>
        <time>2021-11-18T20:34:35.231Z</time>
      </trkpt>
      <trkpt lat="47.591858" lon="7.913783">
        <ele>308.627091</ele>
        <time>2021-11-18T20:34:37.144Z</time>
      </trkpt>
      <trkpt lat="47.591953" lon="7.913843">
        <ele>308.796532</ele>
        <time>2021-11-18T20:34:39.140Z</time>
      </trkpt>
      <trkpt lat="47.592496" lon="7.914014">
        <ele>309.707434</ele>
        <time>2021-11-18T20:34:50.095Z</time>
      </trkpt>
      <trkpt lat="47.592589" lon="7.914035">
        <ele>309.861801</ele>
        <time>2021-11-18T20:34:53.116Z</time>
      </trkpt>
      <trkpt lat="47.592672" lon="7.914009">
        <ele>310.001005</ele>
        <time>2021-11-18T20:34:54.778Z</time>
      </trkpt>
      <trkpt lat="47.592807" lon="7.913929">
        <ele>310.239567</ele>
        <time>2021-11-18T20:34:57.241Z</time>
      </trkpt>
      <trkpt lat="47.593189" lon="7.913725">
        <ele>310.905818</ele>
        <time>2021-11-18T20:35:06.685Z</time>
      </trkpt>
      <trkpt lat="47.593511" lon="7.913649">
        <ele>311.589540</ele>
        <time>2021-11-18T20:35:14.618Z</time>
      </trkpt>
      <trkpt lat="47.593654" lon="7.913672">
        <ele>311.918306</ele>
        <time>2021-11-18T20:35:18.363Z</time>
      </trkpt>
      <trkpt lat="47.594163" lon="7.913924">
        <ele>313.144834</ele>
        <time>2021-11-18T20:35:31.518Z</time>
      </trkpt>
      <trkpt lat="47.594719" lon="7.914022">
        <ele>314.424602</ele>
        <time>2021-11-18T20:35:45.361Z</time>
      </trkpt>
      <trkpt lat="47.594871" lon="7.914141">
        <ele>314.817469</ele>
        <time>2021-11-18T20:35:49.338Z</time>
      </trkpt>
      <trkpt lat="47.595031" lon="7.914316">
        <ele>315.237189</ele>
        <time>2021-11-18T20:35:54.211Z</time>
      </trkpt>
      <trkpt lat="47.595292" lon="7.914664">
        <ele>315.756548</ele>
        <time>2021-11-18T20:36:01.839Z</time>
      </trkpt>
      <trkpt lat="47.595476" lon="7.914889">
        <ele>316.109442</ele>
        <time>2021-11-18T20:36:06.924Z</time>
      </trkpt>
      <trkpt lat="47.595688" lon="7.915084">
        <ele>316.478584</ele>
        <time>2021-11-18T20:36:12.357Z</time>
      </trkpt>
      <trkpt lat="47.595861" lon="7.915155">
        <ele>316.744193</ele>
        <time>2021-11-18T20:36:15.877Z</time>
      </trkpt>
      <trkpt lat="47.595909" lon="7.915188">
        <ele>316.822480</ele>
        <time>2021-11-18T20:36:16.960Z</time>
      </trkpt>
      <trkpt lat="47.595949" lon="7.915202">
        <ele>316.883294</ele>
        <time>2021-11-18T20:36:17.892Z</time>
      </trkpt>
      <trkpt lat="47.596117" lon="7.915243">
        <ele>317.135226</ele>
        <time>2021-11-18T20:36:21.488Z</time>
      </trkpt>
      <trkpt lat="47.596349" lon="7.915301">
        <ele>317.483359</ele>
        <time>2021-11-18T20:36:25.918Z</time>
      </trkpt>
      <trkpt lat="47.596736" lon="7.915598">
        <ele>318.031075</ele>
        <time>2021-11-18T20:36:33.756Z</time>
      </trkpt>
      <trkpt lat="47.596850" lon="7.915674">
        <ele>318.154800</ele>
        <time>2021-11-18T20:36:35.745Z</time>
      </trkpt>
      <trkpt lat="47.597083" lon="7.915733">
        <ele>318.388780</ele>
        <time>2021-11-18T20:36:39.877Z</time>
      </trkpt>
      <trkpt lat="47.597656" lon="7.915778">
        <ele>318.956775</ele>
        <time>2021-11-18T20:36:50.051Z</time>
      </trkpt>
      <trkpt lat="47.599120" lon="7.915596">
        <ele>320.649116</ele>
        <time>2021-11-18T20:37:20.022Z</time>
      </trkpt>
      <trkpt lat="47.599374" lon="7.915625">
        <ele>320.976742</ele>
        <time>2021-11-18T20:37:25.083Z</time>
      </trkpt>
      <trkpt lat="47.599906" lon="7.915798">
        <ele>321.677180</ele>
        <time>2021-11-18T20:37:35.756Z</time>
      </trkpt>
      <trkpt lat="47.600078" lon="7.915859">
        <ele>321.904620</ele>
        <time>2021-11-18T20:37:39.348Z</time>
      </trkpt>
      <trkpt lat="47.600078" lon="7.915859">
        <ele>321.904620</ele>
        <time>2021-11-18T20:37:39.349Z</time>
      </trkpt>
      <trkpt lat="47.600344" lon="7.915900">
        <ele>322.269801</ele>
        <time>2021-11-18T20:37:44.369Z</time>
      </trkpt>
      <trkpt lat="47.600545" lon="7.915898">
        <ele>322.545466</ele>
        <time>2021-11-18T20:37:48.579Z</time>
      </trkpt>
      <trkpt lat="47.600689" lon="7.915853">
        <ele>322.747290</ele>
        <time>2021-11-18T20:37:51.204Z</time>
      </trkpt>
      <trkpt lat="47.600825" lon="7.915889">
        <ele>322.936753</ele>
        <time>2021-11-18T20:37:54.968Z</time>
      </trkpt>
      <trkpt lat="47.602453" lon="7.915753">
        <ele>325.039254</ele>
        <time>2021-11-18T20:38:37.153Z</time>
      </trkpt>
      <trkpt lat="47.603091" lon="7.915727">
        <ele>325.764049</ele>
        <time>2021-11-18T20:38:53.248Z</time>
      </trkpt>
      <trkpt lat="47.603497" lon="7.915707">
        <ele>326.225362</ele>
        <time>2021-11-18T20:39:02.772Z</time>
      </trkpt>
      <trkpt lat="47.603828" lon="7.915721">
        <ele>326.505781</ele>
        <time>2021-11-18T20:39:10.746Z</time>
      </trkpt>
      <trkpt lat="47.603937" lon="7.915725">
        <ele>326.557230</ele>
        <time>2021-11-18T20:39:13.099Z</time>
      </trkpt>
      <trkpt lat="47.604052" lon="7.915651">
        <ele>326.616383</ele>
        <time>2021-11-18T20:39:16.308Z</time>
      </trkpt>
      <trkpt lat="47.604219" lon="7.915334">
        <ele>326.744374</ele>
        <time>2021-11-18T20:39:22.329Z</time>
      </trkpt>
      <trkpt lat="47.604337" lon="7.915057">
        <ele>326.848619</ele>
        <time>2021-11-18T20:39:27.460Z</time>
      </trkpt>
      <trkpt lat="47.604393" lon="7.914885">
        <ele>326.909388</ele>
        <time>2021-11-18T20:39:29.938Z</time>
      </trkpt>
      <trkpt lat="47.604722" lon="7.914915">
        <ele>327.064926</ele>
        <time>2021-11-18T20:39:35.021Z</time>
      </trkpt>
      <trkpt lat="47.605105" lon="7.914869">
        <ele>327.246244</ele>
        <time>2021-11-18T20:39:40.823Z</time>
      </trkpt>
      <trkpt lat="47.605408" lon="7.914750">
        <ele>327.473403</ele>
        <time>2021-11-18T20:39:46.014Z</time>
      </trkpt>
      <trkpt lat="47.605648" lon="7.914613">
        <ele>327.684112</ele>
        <time>2021-11-18T20:39:50.653Z</time>
      </trkpt>
      <trkpt lat="47.605929" lon="7.914457">
        <ele>327.929954</ele>
        <time>2021-11-18T20:39:56.053Z</time>
      </trkpt>
      <trkpt lat="47.606200" lon="7.914255">
        <ele>328.178465</ele>
        <time>2021-11-18T20:40:01.874Z</time>
      </trkpt>
      <trkpt lat="47.606450" lon="7.914067">
        <ele>328.408131</ele>
        <time>2021-11-18T20:40:07.138Z</time>
      </trkpt>
      <trkpt lat="47.606558" lon="7.913988">
        <ele>328.506799</ele>
        <time>2021-11-18T20:40:09.338Z</time>
      </trkpt>
      <trkpt lat="47.606706" lon="7.913869">
        <ele>328.644737</ele>
        <time>2021-11-18T20:40:12.471Z</time>
      </trkpt>
      <trkpt lat="47.606938" lon="7.913697">
        <ele>328.914702</ele>
        <time>2021-11-18T20:40:17.292Z</time>
      </trkpt>
      <trkpt lat="47.607292" lon="7.913435">
        <ele>329.430874</ele>
        <time>2021-11-18T20:40:24.916Z</time>
      </trkpt>
      <trkpt lat="47.607663" lon="7.913198">
        <ele>329.957905</ele>
        <time>2021-11-18T20:40:33.167Z</time>
      </trkpt>
      <trkpt lat="47.608679" lon="7.912703">
        <ele>331.370093</ele>
        <time>2021-11-18T20:40:55.362Z</time>
      </trkpt>
      <trkpt lat="47.609914" lon="7.912278">
        <ele>333.137942</ele>
        <time>2021-11-18T20:41:21.366Z</time>
      </trkpt>
      <trkpt lat="47.610089" lon="7.912175">
        <ele>333.400474</ele>
        <time>2021-11-18T20:41:25.277Z</time>
      </trkpt>
      <trkpt lat="47.610416" lon="7.911983">
        <ele>333.708709</ele>
        <time>2021-11-18T20:41:32.617Z</time>
      </trkpt>
      <trkpt lat="47.611260" lon="7.911383">
        <ele>334.151924</ele>
        <time>2021-11-18T20:41:49.192Z</time>
      </trkpt>
      <trkpt lat="47.612029" lon="7.910940">
        <ele>334.332562</ele>
        <time>2021-11-18T20:42:00.685Z</time>
      </trkpt>
      <trkpt lat="47.612005" lon="7.910790">
        <ele>334.245401</ele>
        <time>2021-11-18T20:42:01.981Z</time>
      </trkpt>
      <trkpt lat="47.611994" lon="7.910676">
        <ele>334.180292</ele>
        <time>2021-11-18T20:42:03.050Z</time>
      </trkpt>
      <trkpt lat="47.611988" lon="7.910610">
        <ele>334.142640</ele>
        <time>2021-11-18T20:42:03.564Z</time>
      </trkpt>
      <trkpt lat="47.611988" lon="7.910610">
        <ele>334.142640</ele>
        <time>2021-11-18T20:42:03.566Z</time>
      </trkpt>
      <trkpt lat="47.611981" lon="7.910534">
        <ele>334.099273</ele>
        <time>2021-11-18T20:42:04.262Z</time>
      </trkpt>
      <trkpt lat="47.611986" lon="7.910466">
        <ele>334.060600</ele>
        <time>2021-11-18T20:42:05.023Z</time>
      </trkpt>
      <trkpt lat="47.612020" lon="7.910364">
        <ele>333.996269</ele>
        <time>2021-11-18T20:42:06.041Z</time>
      </trkpt>
      <trkpt lat="47.612082" lon="7.910269">
        <ele>333.921514</ele>
        <time>2021-11-18T20:42:07.197Z</time>
      </trkpt>
      <trkpt lat="47.612131" lon="7.910214">
        <ele>333.869982</ele>
        <time>2021-11-18T20:42:07.984Z</time>
      </trkpt>
      <trkpt lat="47.612216" lon="7.910134">
        <ele>333.785559</ele>
        <time>2021-11-18T20:42:09.222Z</time>
      </trkpt>
      <trkpt lat="47.612897" lon="7.909812">
        <ele>333.186133</ele>
        <time>2021-11-18T20:42:18.164Z</time>
      </trkpt>
      <trkpt lat="47.613280" lon="7.909624">
        <ele>332.807350</ele>
        <time>2021-11-18T20:42:22.752Z</time>
      </trkpt>
      <trkpt lat="47.613360" lon="7.909602">
        <ele>332.714150</ele>
        <time>2021-11-18T20:42:23.688Z</time>
      </trkpt>
      <trkpt lat="47.613934" lon="7.909339">
        <ele>332.025995</ele>
        <time>2021-11-18T20:42:30.523Z</time>
      </trkpt>
      <trkpt lat="47.614063" lon="7.909285">
        <ele>331.872458</ele>
        <time>2021-11-18T20:42:32.137Z</time>
      </trkpt>
      <trkpt lat="47.614412" lon="7.909095">
        <ele>331.446614</ele>
        <time>2021-11-18T20:42:36.662Z</time>
      </trkpt>
      <trkpt lat="47.614784" lon="7.908839">
        <ele>330.976876</ele>
        <time>2021-11-18T20:42:41.870Z</time>
      </trkpt>
      <trkpt lat="47.614876" lon="7.908760">
        <ele>330.896638</ele>
        <time>2021-11-18T20:42:43.284Z</time>
      </trkpt>
      <trkpt lat="47.615085" lon="7.908567">
        <ele>330.887222</ele>
        <time>2021-11-18T20:42:46.426Z</time>
      </trkpt>
      <trkpt lat="47.615246" lon="7.908385">
        <ele>330.879479</ele>
        <time>2021-11-18T20:42:49.128Z</time>
      </trkpt>
      <trkpt lat="47.615374" lon="7.908222">
        <ele>330.873027</ele>
        <time>2021-11-18T20:42:51.244Z</time>
      </trkpt>
      <trkpt lat="47.615460" lon="7.908111">
        <ele>330.868667</ele>
        <time>2021-11-18T20:42:52.762Z</time>
      </trkpt>
      <trkpt lat="47.615669" lon="7.907870">
        <ele>330.858542</ele>
        <time>2021-11-18T20:42:56.321Z</time>
      </trkpt>
      <trkpt lat="47.615821" lon="7.907747">
        <ele>330.851920</ele>
        <time>2021-11-18T20:42:58.778Z</time>
      </trkpt>
      <trkpt lat="47.615946" lon="7.907692">
        <ele>330.846933</ele>
        <time>2021-11-18T20:43:00.588Z</time>
      </trkpt>
      <trkpt lat="47.616009" lon="7.907686">
        <ele>330.844518</ele>
        <time>2021-11-18T20:43:01.803Z</time>
      </trkpt>
      <trkpt lat="47.616124" lon="7.907729">
        <ele>330.839982</ele>
        <time>2021-11-18T20:43:03.818Z</time>
      </trkpt>
      <trkpt lat="47.616604" lon="7.908203">
        <ele>331.413321</ele>
        <time>2021-11-18T20:43:15.247Z</time>
      </trkpt>
      <trkpt lat="47.616832" lon="7.908284">
        <ele>331.874752</ele>
        <time>2021-11-18T20:43:20.382Z</time>
      </trkpt>
      <trkpt lat="47.617086" lon="7.908230">
        <ele>332.379774</ele>
        <time>2021-11-18T20:43:26.047Z</time>
      </trkpt>
      <trkpt lat="47.617238" lon="7.908130">
        <ele>332.707034</ele>
        <time>2021-11-18T20:43:29.598Z</time>
      </trkpt>
      <trkpt lat="47.617957" lon="7.907285">
        <ele>334.612149</ele>
        <time>2021-11-18T20:43:51.667Z</time>
      </trkpt>
      <trkpt lat="47.618470" lon="7.907083">
        <ele>336.385114</ele>
        <time>2021-11-18T20:44:07.004Z</time>
      </trkpt>
      <trkpt lat="47.618523" lon="7.907037">
        <ele>336.590228</ele>
        <time>2021-11-18T20:44:08.815Z</time>
      </trkpt>
      <trkpt lat="47.618579" lon="7.906988">
        <ele>336.807405</ele>
        <time>2021-11-18T20:44:10.319Z</time>
      </trkpt>
      <trkpt lat="47.618703" lon="7.906856">
        <ele>337.317217</ele>
        <time>2021-11-18T20:44:15.127Z</time>
      </trkpt>
      <trkpt lat="47.618719" lon="7.906838">
        <ele>337.384293</ele>
        <time>2021-11-18T20:44:15.933Z</time>
      </trkpt>
      <trkpt lat="47.618867" lon="7.906514">
        <ele>338.265558</ele>
        <time>2021-11-18T20:44:22.930Z</time>
      </trkpt>
      <trkpt lat="47.618888" lon="7.906392">
        <ele>338.549073</ele>
        <time>2021-11-18T20:44:26.117Z</time>
      </trkpt>
      <trkpt lat="47.618920" lon="7.906208">
        <ele>338.976941</ele>
        <time>2021-11-18T20:44:30.001Z</time>
      </trkpt>
      <trkpt lat="47.618976" lon="7.905535">
        <ele>340.488167</ele>
        <time>2021-11-18T20:44:42.211Z</time>
      </trkpt>
      <trkpt lat="47.619155" lon="7.905319">
        <ele>341.163551</ele>
        <time>2021-11-18T20:44:49.497Z</time>
      </trkpt>
      <trkpt lat="47.619299" lon="7.905308">
        <ele>341.585609</ele>
        <time>2021-11-18T20:44:52.738Z</time>
      </trkpt>
      <trkpt lat="47.619447" lon="7.905300">
        <ele>342.019105</ele>
        <time>2021-11-18T20:44:57.859Z</time>
      </trkpt>
      <trkpt lat="47.620426" lon="7.905244">
        <ele>344.886847</ele>
        <time>2021-11-18T20:45:23.541Z</time>
      </trkpt>
      <trkpt lat="47.620699" lon="7.905223">
        <ele>345.670983</ele>
        <time>2021-11-18T20:45:29.996Z</time>
      </trkpt>
      <trkpt lat="47.621107" lon="7.905191">
        <ele>346.438193</ele>
        <time>2021-11-18T20:45:39.568Z</time>
      </trkpt>
      <trkpt lat="47.621248" lon="7.905159">
        <ele>346.706042</ele>
        <time>2021-11-18T20:45:42.804Z</time>
      </trkpt>
      <trkpt lat="47.622235" lon="7.904957">
        <ele>348.576977</ele>
        <time>2021-11-18T20:46:04.881Z</time>
      </trkpt>
      <trkpt lat="47.622424" lon="7.904919">
        <ele>348.935124</ele>
        <time>2021-11-18T20:46:08.918Z</time>
      </trkpt>
      <trkpt lat="47.622648" lon="7.904863">
        <ele>349.173876</ele>
        <time>2021-11-18T20:46:13.700Z</time>
      </trkpt>
      <trkpt lat="47.623650" lon="7.904642">
        <ele>350.031225</ele>
        <time>2021-11-18T20:46:32.731Z</time>
      </trkpt>
      <trkpt lat="47.624120" lon="7.904530">
        <ele>350.434102</ele>
        <time>2021-11-18T20:46:40.759Z</time>
      </trkpt>
      <trkpt lat="47.624263" lon="7.904484">
        <ele>350.542572</ele>
        <time>2021-11-18T20:46:42.949Z</time>
      </trkpt>
      <trkpt lat="47.624399" lon="7.904386">
        <ele>350.546879</ele>
        <time>2021-11-18T20:46:45.202Z</time>
      </trkpt>
      <trkpt lat="47.624451" lon="7.904332">
        <ele>350.548687</ele>
        <time>2021-11-18T20:46:46.179Z</time>
      </trkpt>
      <trkpt lat="47.624472" lon="7.904367">
        <ele>350.549586</ele>
        <time>2021-11-18T20:46:46.597Z</time>
      </trkpt>
      <trkpt lat="47.624565" lon="7.904455">
        <ele>350.552728</ele>
        <time>2021-11-18T20:46:48.188Z</time>
      </trkpt>
      <trkpt lat="47.624761" lon="7.904481">
        <ele>350.558333</ele>
        <time>2021-11-18T20:46:50.969Z</time>
      </trkpt>
      <trkpt lat="47.624956" lon="7.904522">
        <ele>350.563942</ele>
        <time>2021-11-18T20:46:53.681Z</time>
      </trkpt>
      <trkpt lat="47.625088" lon="7.904563">
        <ele>350.567784</ele>
        <time>2021-11-18T20:46:55.648Z</time>
      </trkpt>
      <trkpt lat="47.625516" lon="7.904701">
        <ele>350.580259</ele>
        <time>2021-11-18T20:47:02.051Z</time>
      </trkpt>
      <trkpt lat="47.625742" lon="7.904774">
        <ele>350.586846</ele>
        <time>2021-11-18T20:47:05.297Z</time>
      </trkpt>
      <trkpt lat="47.626086" lon="7.904879">
        <ele>350.694220</ele>
        <time>2021-11-18T20:47:10.838Z</time>
      </trkpt>
      <trkpt lat="47.626221" lon="7.904920">
        <ele>350.804826</ele>
        <time>2021-11-18T20:47:13.101Z</time>
      </trkpt>
      <trkpt lat="47.626399" lon="7.904961">
        <ele>350.949410</ele>
        <time>2021-11-18T20:47:16.049Z</time>
      </trkpt>
      <trkpt lat="47.626440" lon="7.905007">
        <ele>350.990668</ele>
        <time>2021-11-18T20:47:16.746Z</time>
      </trkpt>
      <trkpt lat="47.626505" lon="7.904968">
        <ele>351.046945</ele>
        <time>2021-11-18T20:47:18.085Z</time>
      </trkpt>
      <trkpt lat="47.627067" lon="7.904813">
        <ele>351.505767</ele>
        <time>2021-11-18T20:47:28.279Z</time>
      </trkpt>
      <trkpt lat="47.627287" lon="7.904761">
        <ele>351.684578</ele>
        <time>2021-11-18T20:47:32.552Z</time>
      </trkpt>
      <trkpt lat="47.627467" lon="7.904744">
        <ele>351.829349</ele>
        <time>2021-11-18T20:47:36.155Z</time>
      </trkpt>
      <trkpt lat="47.627955" lon="7.904708">
        <ele>352.392768</ele>
        <time>2021-11-18T20:47:46.168Z</time>
      </trkpt>
      <trkpt lat="47.628650" lon="7.904559">
        <ele>353.479345</ele>
        <time>2021-11-18T20:48:00.702Z</time>
      </trkpt>
      <trkpt lat="47.628975" lon="7.904514">
        <ele>353.984419</ele>
        <time>2021-11-18T20:48:07.815Z</time>
      </trkpt>
      <trkpt lat="47.629371" lon="7.904510">
        <ele>354.597185</ele>
        <time>2021-11-18T20:48:16.237Z</time>
      </trkpt>
      <trkpt lat="47.629718" lon="7.904514">
        <ele>355.015726</ele>
        <time>2021-11-18T20:48:23.817Z</time>
      </trkpt>
      <trkpt lat="47.629946" lon="7.904556">
        <ele>355.237186</ele>
        <time>2021-11-18T20:48:28.840Z</time>
      </trkpt>
      <trkpt lat="47.630445" lon="7.904626">
        <ele>355.720325</ele>
        <time>2021-11-18T20:48:38.836Z</time>
      </trkpt>
      <trkpt lat="47.631006" lon="7.904827">
        <ele>356.276622</ele>
        <time>2021-11-18T20:48:48.709Z</time>
      </trkpt>
      <trkpt lat="47.631413" lon="7.905026">
        <ele>356.640231</ele>
        <time>2021-11-18T20:48:55.752Z</time>
      </trkpt>
      <trkpt lat="47.632152" lon="7.905421">
        <ele>357.121734</ele>
        <time>2021-11-18T20:49:07.412Z</time>
      </trkpt>
      <trkpt lat="47.632494" lon="7.905530">
        <ele>357.336163</ele>
        <time>2021-11-18T20:49:13.418Z</time>
      </trkpt>
      <trkpt lat="47.632636" lon="7.905581">
        <ele>357.425723</ele>
        <time>2021-11-18T20:49:16.109Z</time>
      </trkpt>
      <trkpt lat="47.632631" lon="7.905629">
        <ele>357.445787</ele>
        <time>2021-11-18T20:49:16.763Z</time>
      </trkpt>
      <trkpt lat="47.632676" lon="7.905752">
        <ele>357.503602</ele>
        <time>2021-11-18T20:49:18.786Z</time>
      </trkpt>
      <trkpt lat="47.632707" lon="7.905770">
        <ele>357.524008</ele>
        <time>2021-11-18T20:49:19.401Z</time>
      </trkpt>
      <trkpt lat="47.632706" lon="7.905872">
        <ele>357.566148</ele>
        <time>2021-11-18T20:49:20.602Z</time>
      </trkpt>
      <trkpt lat="47.632715" lon="7.906284">
        <ele>357.971347</ele>
        <time>2021-11-18T20:49:26.129Z</time>
      </trkpt>
      <trkpt lat="47.632729" lon="7.906470">
        <ele>358.275654</ele>
        <time>2021-11-18T20:49:28.681Z</time>
      </trkpt>
      <trkpt lat="47.632761" lon="7.906666">
        <ele>358.603559</ele>
        <time>2021-11-18T20:49:31.749Z</time>
      </trkpt>
      <trkpt lat="47.632805" lon="7.906819">
        <ele>358.874034</ele>
        <time>2021-11-18T20:49:34.323Z</time>
      </trkpt>
      <trkpt lat="47.632832" lon="7.906880">
        <ele>358.992698</ele>
        <time>2021-11-18T20:49:35.431Z</time>
      </trkpt>
      <trkpt lat="47.632986" lon="7.907145">
        <ele>359.561662</ele>
        <time>2021-11-18T20:49:41.177Z</time>
      </trkpt>
      <trkpt lat="47.633159" lon="7.907454">
        <ele>360.214851</ele>
        <time>2021-11-18T20:49:47.876Z</time>
      </trkpt>
      <trkpt lat="47.633215" lon="7.907615">
        <ele>360.509440</ele>
        <time>2021-11-18T20:49:51.050Z</time>
      </trkpt>
      <trkpt lat="47.633350" lon="7.907844">
        <ele>361.004148</ele>
        <time>2021-11-18T20:49:56.816Z</time>
      </trkpt>
      <trkpt lat="47.633703" lon="7.908224">
        <ele>362.057114</ele>
        <time>2021-11-18T20:50:08.934Z</time>
      </trkpt>
      <trkpt lat="47.633813" lon="7.908394">
        <ele>362.445056</ele>
        <time>2021-11-18T20:50:13.531Z</time>
      </trkpt>
      <trkpt lat="47.633905" lon="7.908537">
        <ele>362.770489</ele>
        <time>2021-11-18T20:50:17.096Z</time>
      </trkpt>
      <trkpt lat="47.634255" lon="7.909080">
        <ele>364.007332</ele>
        <time>2021-11-18T20:50:29.778Z</time>
      </trkpt>
      <trkpt lat="47.634288" lon="7.909241">
        <ele>364.284330</ele>
        <time>2021-11-18T20:50:32.899Z</time>
      </trkpt>
      <trkpt lat="47.634340" lon="7.909465">
        <ele>364.674304</ele>
        <time>2021-11-18T20:50:36.523Z</time>
      </trkpt>
      <trkpt lat="47.634573" lon="7.910034">
        <ele>365.770256</ele>
        <time>2021-11-18T20:50:46.436Z</time>
      </trkpt>
      <trkpt lat="47.634747" lon="7.910263">
        <ele>366.338347</ele>
        <time>2021-11-18T20:50:51.745Z</time>
      </trkpt>
      <trkpt lat="47.635022" lon="7.910544">
        <ele>367.277468</ele>
        <time>2021-11-18T20:50:59.464Z</time>
      </trkpt>
      <trkpt lat="47.635189" lon="7.910745">
        <ele>367.887606</ele>
        <time>2021-11-18T20:51:04.545Z</time>
      </trkpt>
      <trkpt lat="47.635549" lon="7.911051">
        <ele>369.064831</ele>
        <time>2021-11-18T20:51:14.459Z</time>
      </trkpt>
      <trkpt lat="47.636072" lon="7.911368">
        <ele>370.667890</ele>
        <time>2021-11-18T20:51:29.204Z</time>
      </trkpt>
      <trkpt lat="47.636435" lon="7.911560">
        <ele>372.184819</ele>
        <time>2021-11-18T20:51:40.863Z</time>
      </trkpt>
      <trkpt lat="47.636948" lon="7.911886">
        <ele>376.271069</ele>
        <time>2021-11-18T20:52:00.423Z</time>
      </trkpt>
      <trkpt lat="47.637200" lon="7.912228">
        <ele>378.771517</ele>
        <time>2021-11-18T20:52:16.458Z</time>
      </trkpt>
      <trkpt lat="47.637358" lon="7.912526">
        <ele>380.642429</ele>
        <time>2021-11-18T20:52:30.010Z</time>
      </trkpt>
      <trkpt lat="47.637499" lon="7.912845">
        <ele>382.524766</ele>
        <time>2021-11-18T20:52:41.124Z</time>
      </trkpt>
      <trkpt lat="47.637608" lon="7.913197">
        <ele>384.436122</ele>
        <time>2021-11-18T20:52:55.942Z</time>
      </trkpt>
      <trkpt lat="47.637710" lon="7.913454">
        <ele>386.437732</ele>
        <time>2021-11-18T20:53:08.497Z</time>
      </trkpt>
      <trkpt lat="47.637792" lon="7.913603">
        <ele>387.791308</ele>
        <time>2021-11-18T20:53:14.580Z</time>
      </trkpt>
      <trkpt lat="47.637897" lon="7.913737">
        <ele>389.237328</ele>
        <time>2021-11-18T20:53:21.471Z</time>
      </trkpt>
      <trkpt lat="47.637924" lon="7.913766">
        <ele>389.585347</ele>
        <time>2021-11-18T20:53:25.028Z</time>
      </trkpt>
      <trkpt lat="47.638182" lon="7.913951">
        <ele>392.577319</ele>
        <time>2021-11-18T20:53:39.267Z</time>
      </trkpt>
      <trkpt lat="47.639028" lon="7.914042">
        <ele>401.434312</ele>
        <time>2021-11-18T20:54:33.223Z</time>
      </trkpt>
      <trkpt lat="47.640116" lon="7.914684">
        <ele>409.963523</ele>
        <time>2021-11-18T20:55:26.715Z</time>
      </trkpt>
      <trkpt lat="47.640371" lon="7.914816">
        <ele>411.763041</ele>
        <time>2021-11-18T20:55:37.168Z</time>
      </trkpt>
      <trkpt lat="47.640458" lon="7.914847">
        <ele>412.359219</ele>
        <time>2021-11-18T20:55:39.617Z</time>
      </trkpt>
      <trkpt lat="47.641318" lon="7.915094">
        <ele>417.645594</ele>
        <time>2021-11-18T20:56:07.663Z</time>
      </trkpt>
      <trkpt lat="47.642325" lon="7.915266">
        <ele>423.055985</ele>
        <time>2021-11-18T20:56:41.246Z</time>
      </trkpt>
      <trkpt lat="47.642731" lon="7.915448">
        <ele>425.511330</ele>
        <time>2021-11-18T20:56:59.123Z</time>
      </trkpt>
      <trkpt lat="47.642870" lon="7.915569">
        <ele>426.940616</ele>
        <time>2021-11-18T20:57:06.965Z</time>
      </trkpt>
      <trkpt lat="47.643279" lon="7.916085">
        <ele>431.701765</ele>
        <time>2021-11-18T20:57:35.131Z</time>
      </trkpt>
      <trkpt lat="47.644938" lon="7.919218">
        <ele>453.332285</ele>
        <time>2021-11-18T20:59:55.373Z</time>
      </trkpt>
      <trkpt lat="47.645182" lon="7.919653">
        <ele>454.487502</ele>
        <time>2021-11-18T21:00:00.091Z</time>
      </trkpt>
      <trkpt lat="47.645987" lon="7.921187">
        <ele>454.169729</ele>
        <time>2021-11-18T21:00:15.827Z</time>
      </trkpt>
      <trkpt lat="47.646634" lon="7.922408">
        <ele>453.975717</ele>
        <time>2021-11-18T21:00:28.406Z</time>
      </trkpt>
      <trkpt lat="47.646757" lon="7.922574">
        <ele>453.948166</ele>
        <time>2021-11-18T21:00:32.051Z</time>
      </trkpt>
      <trkpt lat="47.647046" lon="7.922963">
        <ele>453.883511</ele>
        <time>2021-11-18T21:00:38.663Z</time>
      </trkpt>
      <trkpt lat="47.647061" lon="7.922974">
        <ele>453.880738</ele>
        <time>2021-11-18T21:00:39.077Z</time>
      </trkpt>
      <trkpt lat="47.647351" lon="7.923183">
        <ele>453.827311</ele>
        <time>2021-11-18T21:00:45.290Z</time>
      </trkpt>
      <trkpt lat="47.647717" lon="7.923261">
        <ele>453.612471</ele>
        <time>2021-11-18T21:00:50.820Z</time>
      </trkpt>
      <trkpt lat="47.648027" lon="7.923200">
        <ele>453.365020</ele>
        <time>2021-11-18T21:00:54.587Z</time>
      </trkpt>
      <trkpt lat="47.648365" lon="7.923062">
        <ele>453.087624</ele>
        <time>2021-11-18T21:00:58.547Z</time>
      </trkpt>
      <trkpt lat="47.648728" lon="7.922896">
        <ele>452.787057</ele>
        <time>2021-11-18T21:01:03.036Z</time>
      </trkpt>
      <trkpt lat="47.649254" lon="7.922829">
        <ele>452.363044</ele>
        <time>2021-11-18T21:01:09.431Z</time>
      </trkpt>
      <trkpt lat="47.649720" lon="7.923045">
        <ele>451.805746</ele>
        <time>2021-11-18T21:01:15.539Z</time>
      </trkpt>
      <trkpt lat="47.650236" lon="7.923592">
        <ele>451.081921</ele>
        <time>2021-11-18T21:01:30.414Z</time>
      </trkpt>
      <trkpt lat="47.651037" lon="7.924774">
        <ele>447.265632</ele>
        <time>2021-11-18T21:01:41.545Z</time>
      </trkpt>
      <trkpt lat="47.651425" lon="7.925118">
        <ele>444.324569</ele>
        <time>2021-11-18T21:01:45.533Z</time>
      </trkpt>
      <trkpt lat="47.651583" lon="7.925258">
        <ele>443.127107</ele>
        <time>2021-11-18T21:01:47.251Z</time>
      </trkpt>
      <trkpt lat="47.651591" lon="7.925265">
        <ele>443.066674</ele>
        <time>2021-11-18T21:01:47.325Z</time>
      </trkpt>
      <trkpt lat="47.651739" lon="7.925340">
        <ele>442.048957</ele>
        <time>2021-11-18T21:01:48.666Z</time>
      </trkpt>
      <trkpt lat="47.651929" lon="7.925397">
        <ele>440.787492</ele>
        <time>2021-11-18T21:01:50.487Z</time>
      </trkpt>
      <trkpt lat="47.652047" lon="7.925420">
        <ele>440.012989</ele>
        <time>2021-11-18T21:01:51.491Z</time>
      </trkpt>
      <trkpt lat="47.652233" lon="7.925431">
        <ele>438.801591</ele>
        <time>2021-11-18T21:01:53.209Z</time>
      </trkpt>
      <trkpt lat="47.653024" lon="7.925288">
        <ele>435.060373</ele>
        <time>2021-11-18T21:02:00.294Z</time>
      </trkpt>
      <trkpt lat="47.653581" lon="7.925107">
        <ele>432.419733</ele>
        <time>2021-11-18T21:02:05.601Z</time>
      </trkpt>
      <trkpt lat="47.654279" lon="7.924881">
        <ele>430.887107</ele>
        <time>2021-11-18T21:02:16.585Z</time>
      </trkpt>
      <trkpt lat="47.654906" lon="7.924601">
        <ele>432.402748</ele>
        <time>2021-11-18T21:02:31.947Z</time>
      </trkpt>
      <trkpt lat="47.655151" lon="7.924422">
        <ele>433.034840</ele>
        <time>2021-11-18T21:02:40.528Z</time>
      </trkpt>
      <trkpt lat="47.655711" lon="7.923884">
        <ele>434.607849</ele>
        <time>2021-11-18T21:03:00.099Z</time>
      </trkpt>
      <trkpt lat="47.656362" lon="7.923194">
        <ele>436.905893</ele>
        <time>2021-11-18T21:03:27.023Z</time>
      </trkpt>
      <trkpt lat="47.656739" lon="7.922791">
        <ele>438.240556</ele>
        <time>2021-11-18T21:03:38.739Z</time>
      </trkpt>
      <trkpt lat="47.658112" lon="7.921407">
        <ele>445.698451</ele>
        <time>2021-11-18T21:04:17.742Z</time>
      </trkpt>
      <trkpt lat="47.658657" lon="7.921194">
        <ele>448.605331</ele>
        <time>2021-11-18T21:04:43.872Z</time>
      </trkpt>
      <trkpt lat="47.658858" lon="7.921199">
        <ele>450.767797</ele>
        <time>2021-11-18T21:04:59.500Z</time>
      </trkpt>
      <trkpt lat="47.659029" lon="7.921261">
        <ele>453.059435</ele>
        <time>2021-11-18T21:05:09.020Z</time>
      </trkpt>
      <trkpt lat="47.659217" lon="7.921381">
        <ele>455.723575</ele>
        <time>2021-11-18T21:05:26.220Z</time>
      </trkpt>
      <trkpt lat="47.659701" lon="7.921971">
        <ele>463.876421</ele>
        <time>2021-11-18T21:06:12.364Z</time>
      </trkpt>
      <trkpt lat="47.659910" lon="7.922282">
        <ele>467.728710</ele>
        <time>2021-11-18T21:06:31.303Z</time>
      </trkpt>
      <trkpt lat="47.659929" lon="7.922307">
        <ele>468.059225</ele>
        <time>2021-11-18T21:06:34.040Z</time>
      </trkpt>
      <trkpt lat="47.660292" lon="7.922894">
        <ele>473.368156</ele>
        <time>2021-11-18T21:07:10.817Z</time>
      </trkpt>
      <trkpt lat="47.660747" lon="7.923380">
        <ele>476.173333</ele>
        <time>2021-11-18T21:07:36.445Z</time>
      </trkpt>
      <trkpt lat="47.660834" lon="7.923426">
        <ele>476.635525</ele>
        <time>2021-11-18T21:07:41.633Z</time>
      </trkpt>
      <trkpt lat="47.660904" lon="7.923464">
        <ele>477.008535</ele>
        <time>2021-11-18T21:07:42.325Z</time>
      </trkpt>
      <trkpt lat="47.661134" lon="7.923485">
        <ele>478.161788</ele>
        <time>2021-11-18T21:07:51.618Z</time>
      </trkpt>
      <trkpt lat="47.661609" lon="7.923286">
        <ele>480.631838</ele>
        <time>2021-11-18T21:07:57.036Z</time>
      </trkpt>
      <trkpt lat="47.661830" lon="7.923193">
        <ele>481.526821</ele>
        <time>2021-11-18T21:08:00.839Z</time>
      </trkpt>
      <trkpt lat="47.662115" lon="7.923074">
        <ele>482.188221</ele>
        <time>2021-11-18T21:08:04.098Z</time>
      </trkpt>
      <trkpt lat="47.662612" lon="7.923016">
        <ele>483.301966</ele>
        <time>2021-11-18T21:08:12.106Z</time>
      </trkpt>
      <trkpt lat="47.663384" lon="7.923222">
        <ele>485.054279</ele>
        <time>2021-11-18T21:08:35.893Z</time>
      </trkpt>
      <trkpt lat="47.663955" lon="7.923493">
        <ele>488.972923</ele>
        <time>2021-11-18T21:09:00.281Z</time>
      </trkpt>
      <trkpt lat="47.664119" lon="7.923631">
        <ele>490.424922</ele>
        <time>2021-11-18T21:09:08.931Z</time>
      </trkpt>
      <trkpt lat="47.664217" lon="7.923800">
        <ele>491.581832</ele>
        <time>2021-11-18T21:09:16.152Z</time>
      </trkpt>
      <trkpt lat="47.664271" lon="7.923990">
        <ele>492.651648</ele>
        <time>2021-11-18T21:09:22.720Z</time>
      </trkpt>
      <trkpt lat="47.664341" lon="7.924749">
        <ele>496.625777</ele>
        <time>2021-11-18T21:09:48.292Z</time>
      </trkpt>
      <trkpt lat="47.664453" lon="7.925255">
        <ele>499.402797</ele>
        <time>2021-11-18T21:10:05.888Z</time>
      </trkpt>
      <trkpt lat="47.664876" lon="7.926151">
        <ele>505.486626</ele>
        <time>2021-11-18T21:10:44.159Z</time>
      </trkpt>
      <trkpt lat="47.665028" lon="7.926702">
        <ele>508.797201</ele>
        <time>2021-11-18T21:11:03.571Z</time>
      </trkpt>
      <trkpt lat="47.665032" lon="7.927025">
        <ele>510.593364</ele>
        <time>2021-11-18T21:11:13.219Z</time>
      </trkpt>
      <trkpt lat="47.665082" lon="7.927476">
        <ele>513.134642</ele>
        <time>2021-11-18T21:11:27.997Z</time>
      </trkpt>
      <trkpt lat="47.665198" lon="7.927921">
        <ele>514.917425</ele>
        <time>2021-11-18T21:11:42.045Z</time>
      </trkpt>
      <trkpt lat="47.665461" lon="7.928374">
        <ele>516.583718</ele>
        <time>2021-11-18T21:11:57.607Z</time>
      </trkpt>
      <trkpt lat="47.665953" lon="7.928730">
        <ele>518.847848</ele>
        <time>2021-11-18T21:12:15.867Z</time>
      </trkpt>
      <trkpt lat="47.666448" lon="7.928809">
        <ele>520.907388</ele>
        <time>2021-11-18T21:12:27.516Z</time>
      </trkpt>
      <trkpt lat="47.667200" lon="7.929115">
        <ele>521.590500</ele>
        <time>2021-11-18T21:12:38.875Z</time>
      </trkpt>
      <trkpt lat="47.668004" lon="7.929010">
        <ele>521.724611</ele>
        <time>2021-11-18T21:12:48.944Z</time>
      </trkpt>
      <trkpt lat="47.668532" lon="7.929025">
        <ele>522.540802</ele>
        <time>2021-11-18T21:12:58.196Z</time>
      </trkpt>
      <trkpt lat="47.668846" lon="7.929117">
        <ele>523.912110</ele>
        <time>2021-11-18T21:13:05.464Z</time>
      </trkpt>
      <trkpt lat="47.669031" lon="7.929241">
        <ele>524.781770</ele>
        <time>2021-11-18T21:13:10.832Z</time>
      </trkpt>
      <trkpt lat="47.669146" lon="7.929397">
        <ele>525.449140</ele>
        <time>2021-11-18T21:13:15.401Z</time>
      </trkpt>
      <trkpt lat="47.669590" lon="7.930439">
        <ele>529.006939</ele>
        <time>2021-11-18T21:13:46.260Z</time>
      </trkpt>
      <trkpt lat="47.669570" lon="7.930755">
        <ele>530.505434</ele>
        <time>2021-11-18T21:13:56.025Z</time>
      </trkpt>
      <trkpt lat="47.669441" lon="7.931090">
        <ele>533.116534</ele>
        <time>2021-11-18T21:14:09.256Z</time>
      </trkpt>
      <trkpt lat="47.669272" lon="7.931348">
        <ele>535.551865</ele>
        <time>2021-11-18T21:14:22.625Z</time>
      </trkpt>
      <trkpt lat="47.669127" lon="7.931800">
        <ele>538.939498</ele>
        <time>2021-11-18T21:14:41.853Z</time>
      </trkpt>
      <trkpt lat="47.669112" lon="7.931963">
        <ele>540.052646</ele>
        <time>2021-11-18T21:14:48.288Z</time>
      </trkpt>
      <trkpt lat="47.669211" lon="7.932726">
        <ele>545.310247</ele>
        <time>2021-11-18T21:15:19.567Z</time>
      </trkpt>
      <trkpt lat="47.669188" lon="7.932920">
        <ele>546.643084</ele>
        <time>2021-11-18T21:15:27.896Z</time>
      </trkpt>
      <trkpt lat="47.668442" lon="7.933935">
        <ele>555.022808</ele>
        <time>2021-11-18T21:16:28.368Z</time>
      </trkpt>
      <trkpt lat="47.668325" lon="7.934682">
        <ele>559.209699</ele>
        <time>2021-11-18T21:16:51.555Z</time>
      </trkpt>
      <trkpt lat="47.668387" lon="7.934959">
        <ele>560.803246</ele>
        <time>2021-11-18T21:16:58.359Z</time>
      </trkpt>
      <trkpt lat="47.668592" lon="7.935334">
        <ele>561.678083</ele>
        <time>2021-11-18T21:17:06.608Z</time>
      </trkpt>
      <trkpt lat="47.668874" lon="7.935712">
        <ele>560.574762</ele>
        <time>2021-11-18T21:17:12.023Z</time>
      </trkpt>
      <trkpt lat="47.668947" lon="7.935809">
        <ele>560.290263</ele>
        <time>2021-11-18T21:17:13.112Z</time>
      </trkpt>
      <trkpt lat="47.669111" lon="7.935941">
        <ele>559.748496</ele>
        <time>2021-11-18T21:17:14.991Z</time>
      </trkpt>
      <trkpt lat="47.669430" lon="7.936199">
        <ele>558.693534</ele>
        <time>2021-11-18T21:17:18.476Z</time>
      </trkpt>
      <trkpt lat="47.669799" lon="7.936367">
        <ele>557.572618</ele>
        <time>2021-11-18T21:17:21.983Z</time>
      </trkpt>
      <trkpt lat="47.670025" lon="7.936399">
        <ele>556.912494</ele>
        <time>2021-11-18T21:17:23.997Z</time>
      </trkpt>
      <trkpt lat="47.670414" lon="7.936157">
        <ele>555.522681</ele>
        <time>2021-11-18T21:17:27.743Z</time>
      </trkpt>
      <trkpt lat="47.671190" lon="7.935463">
        <ele>552.537607</ele>
        <time>2021-11-18T21:17:36.361Z</time>
      </trkpt>
      <trkpt lat="47.671327" lon="7.935416">
        <ele>552.074260</ele>
        <time>2021-11-18T21:17:38.243Z</time>
      </trkpt>
      <trkpt lat="47.672138" lon="7.935624">
        <ele>554.466156</ele>
        <time>2021-11-18T21:17:59.980Z</time>
      </trkpt>
      <trkpt lat="47.672322" lon="7.935662">
        <ele>555.771104</ele>
        <time>2021-11-18T21:18:07.898Z</time>
      </trkpt>
      <trkpt lat="47.672762" lon="7.935838">
        <ele>558.972042</ele>
        <time>2021-11-18T21:18:29.099Z</time>
      </trkpt>
      <trkpt lat="47.672959" lon="7.936014">
        <ele>560.586978</ele>
        <time>2021-11-18T21:18:41.648Z</time>
      </trkpt>
      <trkpt lat="47.673226" lon="7.936447">
        <ele>563.364096</ele>
        <time>2021-11-18T21:19:04.767Z</time>
      </trkpt>
      <trkpt lat="47.673283" lon="7.936676">
        <ele>564.699909</ele>
        <time>2021-11-18T21:19:14.045Z</time>
      </trkpt>
      <trkpt lat="47.673293" lon="7.937182">
        <ele>567.580022</ele>
        <time>2021-11-18T21:19:35.090Z</time>
      </trkpt>
      <trkpt lat="47.673607" lon="7.938439">
        <ele>575.207937</ele>
        <time>2021-11-18T21:20:19.197Z</time>
      </trkpt>
      <trkpt lat="47.673811" lon="7.939034">
        <ele>578.923830</ele>
        <time>2021-11-18T21:20:37.352Z</time>
      </trkpt>
      <trkpt lat="47.674075" lon="7.940165">
        <ele>582.643732</ele>
        <time>2021-11-18T21:21:04.542Z</time>
      </trkpt>
      <trkpt lat="47.674329" lon="7.940584">
        <ele>584.395756</ele>
        <time>2021-11-18T21:21:15.944Z</time>
      </trkpt>
      <trkpt lat="47.674806" lon="7.940908">
        <ele>586.816510</ele>
        <time>2021-11-18T21:21:31.815Z</time>
      </trkpt>
      <trkpt lat="47.674964" lon="7.941099">
        <ele>587.655447</ele>
        <time>2021-11-18T21:21:38.384Z</time>
      </trkpt>
      <trkpt lat="47.675080" lon="7.941709">
        <ele>589.309346</ele>
        <time>2021-11-18T21:21:52.268Z</time>
      </trkpt>
      <trkpt lat="47.675658" lon="7.942963">
        <ele>593.274518</ele>
        <time>2021-11-18T21:22:26.291Z</time>
      </trkpt>
      <trkpt lat="47.676169" lon="7.943767">
        <ele>594.780953</ele>
        <time>2021-11-18T21:22:42.970Z</time>
      </trkpt>
      <trkpt lat="47.676520" lon="7.944024">
        <ele>595.284859</ele>
        <time>2021-11-18T21:22:47.250Z</time>
      </trkpt>
      <trkpt lat="47.677134" lon="7.944147">
        <ele>596.082635</ele>
        <time>2021-11-18T21:22:55.986Z</time>
      </trkpt>
      <trkpt lat="47.677405" lon="7.944339">
        <ele>596.814302</ele>
        <time>2021-11-18T21:23:04.829Z</time>
      </trkpt>
      <trkpt lat="47.677580" lon="7.944493">
        <ele>598.628827</ele>
        <time>2021-11-18T21:23:12.120Z</time>
      </trkpt>
      <trkpt lat="47.677695" lon="7.944598">
        <ele>599.833022</ele>
        <time>2021-11-18T21:23:16.295Z</time>
      </trkpt>
      <trkpt lat="47.677787" lon="7.944717">
        <ele>600.921305</ele>
        <time>2021-11-18T21:23:20.069Z</time>
      </trkpt>
      <trkpt lat="47.677870" lon="7.944836">
        <ele>601.950395</ele>
        <time>2021-11-18T21:23:26.182Z</time>
      </trkpt>
      <trkpt lat="47.677979" lon="7.945039">
        <ele>603.509874</ele>
        <time>2021-11-18T21:23:32.505Z</time>
      </trkpt>
      <trkpt lat="47.678059" lon="7.945260">
        <ele>605.016903</ele>
        <time>2021-11-18T21:23:41.340Z</time>
      </trkpt>
      <trkpt lat="47.678272" lon="7.945810">
        <ele>608.827721</ele>
        <time>2021-11-18T21:24:05.049Z</time>
      </trkpt>
      <trkpt lat="47.678532" lon="7.946285">
        <ele>612.526268</ele>
        <time>2021-11-18T21:24:33.758Z</time>
      </trkpt>
      <trkpt lat="47.679039" lon="7.946924">
        <ele>621.120197</ele>
        <time>2021-11-18T21:25:30.123Z</time>
      </trkpt>
      <trkpt lat="47.679161" lon="7.947269">
        <ele>624.511183</ele>
        <time>2021-11-18T21:25:50.737Z</time>
      </trkpt>
      <trkpt lat="47.679193" lon="7.947707">
        <ele>628.344910</ele>
        <time>2021-11-18T21:26:10.581Z</time>
      </trkpt>
      <trkpt lat="47.679160" lon="7.948063">
        <ele>631.471944</ele>
        <time>2021-11-18T21:26:24.862Z</time>
      </trkpt>
      <trkpt lat="47.678867" lon="7.949157">
        <ele>637.891964</ele>
        <time>2021-11-18T21:27:00.332Z</time>
      </trkpt>
      <trkpt lat="47.678870" lon="7.949371">
        <ele>638.570071</ele>
        <time>2021-11-18T21:27:06.092Z</time>
      </trkpt>
      <trkpt lat="47.678884" lon="7.949428">
        <ele>638.762289</ele>
        <time>2021-11-18T21:27:07.585Z</time>
      </trkpt>
      <trkpt lat="47.678933" lon="7.949621">
        <ele>639.415745</ele>
        <time>2021-11-18T21:27:10.929Z</time>
      </trkpt>
      <trkpt lat="47.679106" lon="7.949881">
        <ele>640.573801</ele>
        <time>2021-11-18T21:27:18.443Z</time>
      </trkpt>
      <trkpt lat="47.679127" lon="7.949894">
        <ele>640.680853</ele>
        <time>2021-11-18T21:27:19.141Z</time>
      </trkpt>
      <trkpt lat="47.679335" lon="7.950032">
        <ele>641.752769</ele>
        <time>2021-11-18T21:27:23.743Z</time>
      </trkpt>
      <trkpt lat="47.679838" lon="7.949972">
        <ele>644.127174</ele>
        <time>2021-11-18T21:27:37.653Z</time>
      </trkpt>
      <trkpt lat="47.680004" lon="7.950039">
        <ele>645.093479</ele>
        <time>2021-11-18T21:27:39.993Z</time>
      </trkpt>
      <trkpt lat="47.680050" lon="7.950068">
        <ele>645.376444</ele>
        <time>2021-11-18T21:27:43.121Z</time>
      </trkpt>
      <trkpt lat="47.680401" lon="7.950233">
        <ele>647.461131</ele>
        <time>2021-11-18T21:27:54.063Z</time>
      </trkpt>
      <trkpt lat="47.680994" lon="7.949972">
        <ele>650.963286</ele>
        <time>2021-11-18T21:28:14.557Z</time>
      </trkpt>
      <trkpt lat="47.681269" lon="7.949958">
        <ele>652.521374</ele>
        <time>2021-11-18T21:28:27.444Z</time>
      </trkpt>
      <trkpt lat="47.681640" lon="7.950075">
        <ele>654.907627</ele>
        <time>2021-11-18T21:28:46.536Z</time>
      </trkpt>
      <trkpt lat="47.682090" lon="7.950374">
        <ele>659.787584</ele>
        <time>2021-11-18T21:29:14.258Z</time>
      </trkpt>
      <trkpt lat="47.682819" lon="7.951452">
        <ele>669.970405</ele>
        <time>2021-11-18T21:30:12.981Z</time>
      </trkpt>
      <trkpt lat="47.682901" lon="7.951614">
        <ele>671.321141</ele>
        <time>2021-11-18T21:30:20.294Z</time>
      </trkpt>
      <trkpt lat="47.683101" lon="7.952864">
        <ele>677.137036</ele>
        <time>2021-11-18T21:31:03.926Z</time>
      </trkpt>
      <trkpt lat="47.682987" lon="7.954268">
        <ele>683.212383</ele>
        <time>2021-11-18T21:31:38.908Z</time>
      </trkpt>
      <trkpt lat="47.683031" lon="7.955033">
        <ele>682.787955</ele>
        <time>2021-11-18T21:31:48.631Z</time>
      </trkpt>
      <trkpt lat="47.683202" lon="7.955269">
        <ele>682.350994</ele>
        <time>2021-11-18T21:31:51.303Z</time>
      </trkpt>
      <trkpt lat="47.683646" lon="7.955496">
        <ele>681.471972</ele>
        <time>2021-11-18T21:31:56.195Z</time>
      </trkpt>
      <trkpt lat="47.684063" lon="7.955823">
        <ele>680.589246</ele>
        <time>2021-11-18T21:32:00.759Z</time>
      </trkpt>
      <trkpt lat="47.684765" lon="7.956489">
        <ele>677.672044</ele>
        <time>2021-11-18T21:32:08.498Z</time>
      </trkpt>
      <trkpt lat="47.684972" lon="7.956698">
        <ele>676.688492</ele>
        <time>2021-11-18T21:32:10.817Z</time>
      </trkpt>
      <trkpt lat="47.685487" lon="7.957674">
        <ele>673.407931</ele>
        <time>2021-11-18T21:32:19.074Z</time>
      </trkpt>
      <trkpt lat="47.685650" lon="7.957856">
        <ele>673.515204</ele>
        <time>2021-11-18T21:32:21.308Z</time>
      </trkpt>
      <trkpt lat="47.685757" lon="7.957977">
        <ele>673.799596</ele>
        <time>2021-11-18T21:32:24.499Z</time>
      </trkpt>
      <trkpt lat="47.686267" lon="7.958674">
        <ele>675.265169</ele>
        <time>2021-11-18T21:32:39.344Z</time>
      </trkpt>
      <trkpt lat="47.686322" lon="7.959069">
        <ele>675.839416</ele>
        <time>2021-11-18T21:32:45.069Z</time>
      </trkpt>
      <trkpt lat="47.686313" lon="7.959134">
        <ele>675.933891</ele>
        <time>2021-11-18T21:32:46.533Z</time>
      </trkpt>
      <trkpt lat="47.686306" lon="7.959188">
        <ele>676.012181</ele>
        <time>2021-11-18T21:32:49.243Z</time>
      </trkpt>
      <trkpt lat="47.686157" lon="7.959572">
        <ele>676.643176</ele>
        <time>2021-11-18T21:32:57.372Z</time>
      </trkpt>
      <trkpt lat="47.685564" lon="7.960446">
        <ele>680.789715</ele>
        <time>2021-11-18T21:33:31.374Z</time>
      </trkpt>
      <trkpt lat="47.685443" lon="7.960713">
        <ele>682.022080</ele>
        <time>2021-11-18T21:33:39.110Z</time>
      </trkpt>
      <trkpt lat="47.685390" lon="7.961394">
        <ele>684.646907</ele>
        <time>2021-11-18T21:33:57.658Z</time>
      </trkpt>
      <trkpt lat="47.685456" lon="7.961658">
        <ele>685.725179</ele>
        <time>2021-11-18T21:34:04.279Z</time>
      </trkpt>
      <trkpt lat="47.685499" lon="7.961730">
        <ele>686.093704</ele>
        <time>2021-11-18T21:34:07.113Z</time>
      </trkpt>
      <trkpt lat="47.685587" lon="7.961877">
        <ele>686.846895</ele>
        <time>2021-11-18T21:34:11.485Z</time>
      </trkpt>
      <trkpt lat="47.686057" lon="7.962663">
        <ele>689.948741</ele>
        <time>2021-11-18T21:34:37.014Z</time>
      </trkpt>
      <trkpt lat="47.686423" lon="7.962749">
        <ele>691.521800</ele>
        <time>2021-11-18T21:34:49.234Z</time>
      </trkpt>
      <trkpt lat="47.686871" lon="7.963038">
        <ele>693.595236</ele>
        <time>2021-11-18T21:35:03.179Z</time>
      </trkpt>
      <trkpt lat="47.687384" lon="7.963233">
        <ele>695.484624</ele>
        <time>2021-11-18T21:35:17.091Z</time>
      </trkpt>
      <trkpt lat="47.687588" lon="7.963379">
        <ele>696.092983</ele>
        <time>2021-11-18T21:35:22.846Z</time>
      </trkpt>
      <trkpt lat="47.687714" lon="7.963694">
        <ele>696.755659</ele>
        <time>2021-11-18T21:35:29.441Z</time>
      </trkpt>
      <trkpt lat="47.687755" lon="7.963954">
        <ele>697.238610</ele>
        <time>2021-11-18T21:35:34.121Z</time>
      </trkpt>
      <trkpt lat="47.687685" lon="7.964928">
        <ele>699.010144</ele>
        <time>2021-11-18T21:35:51.251Z</time>
      </trkpt>
      <trkpt lat="47.687735" lon="7.965229">
        <ele>699.570846</ele>
        <time>2021-11-18T21:35:56.448Z</time>
      </trkpt>
      <trkpt lat="47.687853" lon="7.965356">
        <ele>699.904059</ele>
        <time>2021-11-18T21:35:59.606Z</time>
      </trkpt>
      <trkpt lat="47.689020" lon="7.965804">
        <ele>702.426339</ele>
        <time>2021-11-18T21:36:26.563Z</time>
      </trkpt>
      <trkpt lat="47.689444" lon="7.966643">
        <ele>703.656903</ele>
        <time>2021-11-18T21:36:43.706Z</time>
      </trkpt>
      <trkpt lat="47.689579" lon="7.967340">
        <ele>704.106422</ele>
        <time>2021-11-18T21:36:54.952Z</time>
      </trkpt>
      <trkpt lat="47.689679" lon="7.967572">
        <ele>704.277165</ele>
        <time>2021-11-18T21:36:58.978Z</time>
      </trkpt>
      <trkpt lat="47.689846" lon="7.967646">
        <ele>704.437622</ele>
        <time>2021-11-18T21:37:02.371Z</time>
      </trkpt>
      <trkpt lat="47.690222" lon="7.967595">
        <ele>704.785257</ele>
        <time>2021-11-18T21:37:09.782Z</time>
      </trkpt>
      <trkpt lat="47.690757" lon="7.967781">
        <ele>704.898816</ele>
        <time>2021-11-18T21:37:16.122Z</time>
      </trkpt>
      <trkpt lat="47.691140" lon="7.968259">
        <ele>704.311633</ele>
        <time>2021-11-18T21:37:21.592Z</time>
      </trkpt>
      <trkpt lat="47.691339" lon="7.968413">
        <ele>704.048242</ele>
        <time>2021-11-18T21:37:25.100Z</time>
      </trkpt>
      <trkpt lat="47.691407" lon="7.968432">
        <ele>703.967020</ele>
        <time>2021-11-18T21:37:26.585Z</time>
      </trkpt>
      <trkpt lat="47.691511" lon="7.968453">
        <ele>703.843816</ele>
        <time>2021-11-18T21:37:27.544Z</time>
      </trkpt>
      <trkpt lat="47.691593" lon="7.968453">
        <ele>703.747559</ele>
        <time>2021-11-18T21:37:28.499Z</time>
      </trkpt>
      <trkpt lat="47.691708" lon="7.968429">
        <ele>703.611240</ele>
        <time>2021-11-18T21:37:30.905Z</time>
      </trkpt>
      <trkpt lat="47.692072" lon="7.968377">
        <ele>703.181985</ele>
        <time>2021-11-18T21:37:35.317Z</time>
      </trkpt>
      <trkpt lat="47.692229" lon="7.968446">
        <ele>702.980423</ele>
        <time>2021-11-18T21:37:36.983Z</time>
      </trkpt>
      <trkpt lat="47.692460" lon="7.968663">
        <ele>702.488257</ele>
        <time>2021-11-18T21:37:41.912Z</time>
      </trkpt>
      <trkpt lat="47.692486" lon="7.968697">
        <ele>702.425882</ele>
        <time>2021-11-18T21:37:42.199Z</time>
      </trkpt>
      <trkpt lat="47.692535" lon="7.968764">
        <ele>702.305959</ele>
        <time>2021-11-18T21:37:43.034Z</time>
      </trkpt>
      <trkpt lat="47.692583" lon="7.968865">
        <ele>702.156095</ele>
        <time>2021-11-18T21:37:43.985Z</time>
      </trkpt>
      <trkpt lat="47.692622" lon="7.968949">
        <ele>702.032404</ele>
        <time>2021-11-18T21:37:46.314Z</time>
      </trkpt>
      <trkpt lat="47.692708" lon="7.969591">
        <ele>701.238961</ele>
        <time>2021-11-18T21:37:50.830Z</time>
      </trkpt>
      <trkpt lat="47.692792" lon="7.969848">
        <ele>700.892662</ele>
        <time>2021-11-18T21:37:52.645Z</time>
      </trkpt>
      <trkpt lat="47.693367" lon="7.970554">
        <ele>699.727089</ele>
        <time>2021-11-18T21:38:01.574Z</time>
      </trkpt>
      <trkpt lat="47.693470" lon="7.970657">
        <ele>699.684950</ele>
        <time>2021-11-18T21:38:05.382Z</time>
      </trkpt>
      <trkpt lat="47.693559" lon="7.970717">
        <ele>699.651780</ele>
        <time>2021-11-18T21:38:06.266Z</time>
      </trkpt>
      <trkpt lat="47.693868" lon="7.970838">
        <ele>699.543326</ele>
        <time>2021-11-18T21:38:09.882Z</time>
      </trkpt>
      <trkpt lat="47.694129" lon="7.971181">
        <ele>699.425062</ele>
        <time>2021-11-18T21:38:14.693Z</time>
      </trkpt>
      <trkpt lat="47.694401" lon="7.971915">
        <ele>699.233654</ele>
        <time>2021-11-18T21:38:22.319Z</time>
      </trkpt>
      <trkpt lat="47.694470" lon="7.972512">
        <ele>699.602547</ele>
        <time>2021-11-18T21:38:29.548Z</time>
      </trkpt>
      <trkpt lat="47.694476" lon="7.972883">
        <ele>700.204297</ele>
        <time>2021-11-18T21:38:36.584Z</time>
      </trkpt>
      <trkpt lat="47.694490" lon="7.973151">
        <ele>700.640167</ele>
        <time>2021-11-18T21:38:42.596Z</time>
      </trkpt>
      <trkpt lat="47.694555" lon="7.973622">
        <ele>701.419781</ele>
        <time>2021-11-18T21:38:51.638Z</time>
      </trkpt>
      <trkpt lat="47.694780" lon="7.974343">
        <ele>702.708423</ele>
        <time>2021-11-18T21:39:06.217Z</time>
      </trkpt>
      <trkpt lat="47.694953" lon="7.974863">
        <ele>703.400924</ele>
        <time>2021-11-18T21:39:16.724Z</time>
      </trkpt>
      <trkpt lat="47.695374" lon="7.976086">
        <ele>702.131676</ele>
        <time>2021-11-18T21:39:29.951Z</time>
      </trkpt>
      <trkpt lat="47.695600" lon="7.976718">
        <ele>701.470421</ele>
        <time>2021-11-18T21:39:34.907Z</time>
      </trkpt>
      <trkpt lat="47.695701" lon="7.977005">
        <ele>701.171180</ele>
        <time>2021-11-18T21:39:36.999Z</time>
      </trkpt>
      <trkpt lat="47.695740" lon="7.977103">
        <ele>701.065987</ele>
        <time>2021-11-18T21:39:37.723Z</time>
      </trkpt>
      <trkpt lat="47.696003" lon="7.977710">
        <ele>699.082377</ele>
        <time>2021-11-18T21:39:42.302Z</time>
      </trkpt>
      <trkpt lat="47.696246" lon="7.978205">
        <ele>697.319652</ele>
        <time>2021-11-18T21:39:46.168Z</time>
      </trkpt>
      <trkpt lat="47.696406" lon="7.978512">
        <ele>696.202544</ele>
        <time>2021-11-18T21:39:48.664Z</time>
      </trkpt>
      <trkpt lat="47.696681" lon="7.979051">
        <ele>694.256613</ele>
        <time>2021-11-18T21:39:53.075Z</time>
      </trkpt>
      <trkpt lat="47.696734" lon="7.979156">
        <ele>693.879007</ele>
        <time>2021-11-18T21:39:53.956Z</time>
      </trkpt>
      <trkpt lat="47.696827" lon="7.979332">
        <ele>693.312688</ele>
        <time>2021-11-18T21:39:55.486Z</time>
      </trkpt>
      <trkpt lat="47.696892" lon="7.979453">
        <ele>693.219098</ele>
        <time>2021-11-18T21:39:56.542Z</time>
      </trkpt>
      <trkpt lat="47.697264" lon="7.979031">
        <ele>692.798715</ele>
        <time>2021-11-18T21:40:01.589Z</time>
      </trkpt>
      <trkpt lat="47.697413" lon="7.978891">
        <ele>692.640370</ele>
        <time>2021-11-18T21:40:03.592Z</time>
      </trkpt>
      <trkpt lat="47.697868" lon="7.978418">
        <ele>692.141596</ele>
        <time>2021-11-18T21:40:10.479Z</time>
      </trkpt>
      <trkpt lat="47.698021" lon="7.978140">
        <ele>691.924507</ele>
        <time>2021-11-18T21:40:14.144Z</time>
      </trkpt>
      <trkpt lat="47.698097" lon="7.977882">
        <ele>691.754258</ele>
        <time>2021-11-18T21:40:17.901Z</time>
      </trkpt>
      <trkpt lat="47.698122" lon="7.977643">
        <ele>692.337682</ele>
        <time>2021-11-18T21:40:21.640Z</time>
      </trkpt>
      <trkpt lat="47.698076" lon="7.977417">
        <ele>693.144052</ele>
        <time>2021-11-18T21:40:25.628Z</time>
      </trkpt>
      <trkpt lat="47.698026" lon="7.977287">
        <ele>693.655417</ele>
        <time>2021-11-18T21:40:28.351Z</time>
      </trkpt>
      <trkpt lat="47.697894" lon="7.977165">
        <ele>694.444255</ele>
        <time>2021-11-18T21:40:33.006Z</time>
      </trkpt>
      <trkpt lat="47.697396" lon="7.976865">
        <ele>697.171108</ele>
        <time>2021-11-18T21:40:51.207Z</time>
      </trkpt>
      <trkpt lat="47.697197" lon="7.976591">
        <ele>698.547848</ele>
        <time>2021-11-18T21:41:02.165Z</time>
      </trkpt>
      <trkpt lat="47.697094" lon="7.976382">
        <ele>699.432543</ele>
        <time>2021-11-18T21:41:09.646Z</time>
      </trkpt>
      <trkpt lat="47.697055" lon="7.976091">
        <ele>700.445913</ele>
        <time>2021-11-18T21:41:18.970Z</time>
      </trkpt>
      <trkpt lat="47.697069" lon="7.975528">
        <ele>703.649986</ele>
        <time>2021-11-18T21:41:37.952Z</time>
      </trkpt>
      <trkpt lat="47.697020" lon="7.975358">
        <ele>704.811608</ele>
        <time>2021-11-18T21:41:44.554Z</time>
      </trkpt>
      <trkpt lat="47.696798" lon="7.975009">
        <ele>707.827925</ele>
        <time>2021-11-18T21:42:01.986Z</time>
      </trkpt>
      <trkpt lat="47.696251" lon="7.974544">
        <ele>713.709386</ele>
        <time>2021-11-18T21:42:36.189Z</time>
      </trkpt>
      <trkpt lat="47.696131" lon="7.974329">
        <ele>715.463827</ele>
        <time>2021-11-18T21:42:46.406Z</time>
      </trkpt>
      <trkpt lat="47.695949" lon="7.973487">
        <ele>721.060042</ele>
        <time>2021-11-18T21:43:17.997Z</time>
      </trkpt>
      <trkpt lat="47.695723" lon="7.971791">
        <ele>732.052247</ele>
        <time>2021-11-18T21:44:17.242Z</time>
      </trkpt>
      <trkpt lat="47.695393" lon="7.971450">
        <ele>736.385652</ele>
        <time>2021-11-18T21:44:38.048Z</time>
      </trkpt>
      <trkpt lat="47.695315" lon="7.971199">
        <ele>738.910916</ele>
        <time>2021-11-18T21:44:48.026Z</time>
      </trkpt>
      <trkpt lat="47.695510" lon="7.969924">
        <ele>750.853952</ele>
        <time>2021-11-18T21:45:47.155Z</time>
      </trkpt>
      <trkpt lat="47.695311" lon="7.969374">
        <ele>756.557658</ele>
        <time>2021-11-18T21:46:21.662Z</time>
      </trkpt>
      <trkpt lat="47.695420" lon="7.968555">
        <ele>765.336340</ele>
        <time>2021-11-18T21:47:07.767Z</time>
      </trkpt>
      <trkpt lat="47.695389" lon="7.968138">
        <ele>770.025824</ele>
        <time>2021-11-18T21:47:31.924Z</time>
      </trkpt>
      <trkpt lat="47.695370" lon="7.967848">
        <ele>773.282707</ele>
        <time>2021-11-18T21:47:52.803Z</time>
      </trkpt>
      <trkpt lat="47.695376" lon="7.967487">
        <ele>777.319122</ele>
        <time>2021-11-18T21:48:13.996Z</time>
      </trkpt>
      <trkpt lat="47.695535" lon="7.966549">
        <ele>788.131272</ele>
        <time>2021-11-18T21:49:04.045Z</time>
      </trkpt>
      <trkpt lat="47.695753" lon="7.966192">
        <ele>789.651397</ele>
        <time>2021-11-18T21:49:24.440Z</time>
      </trkpt>
      <trkpt lat="47.695889" lon="7.966070">
        <ele>790.080278</ele>
        <time>2021-11-18T21:49:36.471Z</time>
      </trkpt>
      <trkpt lat="47.695920" lon="7.966031">
        <ele>790.189939</ele>
        <time>2021-11-18T21:49:37.955Z</time>
      </trkpt>
      <trkpt lat="47.695949" lon="7.965902">
        <ele>790.437063</ele>
        <time>2021-11-18T21:49:39.672Z</time>
      </trkpt>
      <trkpt lat="47.695871" lon="7.965725">
        <ele>790.821478</ele>
        <time>2021-11-18T21:49:43.804Z</time>
      </trkpt>
      <trkpt lat="47.695806" lon="7.965688">
        <ele>791.009391</ele>
        <time>2021-11-18T21:49:47.892Z</time>
      </trkpt>
      <trkpt lat="47.695745" lon="7.965702">
        <ele>791.176021</ele>
        <time>2021-11-18T21:49:48.504Z</time>
      </trkpt>
      <trkpt lat="47.695539" lon="7.965896">
        <ele>791.834451</ele>
        <time>2021-11-18T21:49:52.450Z</time>
      </trkpt>
      <trkpt lat="47.694681" lon="7.967298">
        <ele>791.657313</ele>
        <time>2021-11-18T21:50:04.595Z</time>
      </trkpt>
      <trkpt lat="47.694272" lon="7.967599">
        <ele>789.957271</ele>
        <time>2021-11-18T21:50:08.773Z</time>
      </trkpt>
      <trkpt lat="47.694059" lon="7.967603">
        <ele>789.163854</ele>
        <time>2021-11-18T21:50:10.736Z</time>
      </trkpt>
      <trkpt lat="47.693760" lon="7.967330">
        <ele>787.856681</ele>
        <time>2021-11-18T21:50:14.389Z</time>
      </trkpt>
      <trkpt lat="47.693668" lon="7.967264">
        <ele>787.476154</ele>
        <time>2021-11-18T21:50:17.005Z</time>
      </trkpt>
      <trkpt lat="47.693228" lon="7.966796">
        <ele>788.029834</ele>
        <time>2021-11-18T21:50:25.321Z</time>
      </trkpt>
      <trkpt lat="47.693070" lon="7.966450">
        <ele>788.668716</ele>
        <time>2021-11-18T21:50:32.585Z</time>
      </trkpt>
      <trkpt lat="47.693104" lon="7.965947">
        <ele>789.441177</ele>
        <time>2021-11-18T21:50:42.356Z</time>
      </trkpt>
      <trkpt lat="47.693237" lon="7.965355">
        <ele>790.394822</ele>
        <time>2021-11-18T21:50:56.272Z</time>
      </trkpt>
      <trkpt lat="47.693220" lon="7.965194">
        <ele>790.643842</ele>
        <time>2021-11-18T21:50:59.429Z</time>
      </trkpt>
      <trkpt lat="47.693107" lon="7.964929">
        <ele>791.123184</ele>
        <time>2021-11-18T21:51:05.204Z</time>
      </trkpt>
      <trkpt lat="47.692759" lon="7.964567">
        <ele>791.494581</ele>
        <time>2021-11-18T21:51:15.412Z</time>
      </trkpt>
      <trkpt lat="47.692581" lon="7.964237">
        <ele>791.736358</ele>
        <time>2021-11-18T21:51:21.444Z</time>
      </trkpt>
      <trkpt lat="47.692415" lon="7.964071">
        <ele>791.906324</ele>
        <time>2021-11-18T21:51:24.964Z</time>
      </trkpt>
      <trkpt lat="47.692263" lon="7.964097">
        <ele>792.036284</ele>
        <time>2021-11-18T21:51:27.581Z</time>
      </trkpt>
      <trkpt lat="47.691950" lon="7.964468">
        <ele>792.376394</ele>
        <time>2021-11-18T21:51:32.775Z</time>
      </trkpt>
      <trkpt lat="47.691808" lon="7.964560">
        <ele>792.507979</ele>
        <time>2021-11-18T21:51:34.650Z</time>
      </trkpt>
      <trkpt lat="47.691350" lon="7.964430">
        <ele>792.957059</ele>
        <time>2021-11-18T21:51:40.532Z</time>
      </trkpt>
      <trkpt lat="47.690997" lon="7.964237">
        <ele>793.348264</ele>
        <time>2021-11-18T21:51:45.694Z</time>
      </trkpt>
      <trkpt lat="47.690834" lon="7.964064">
        <ele>793.556609</ele>
        <time>2021-11-18T21:51:49.071Z</time>
      </trkpt>
      <trkpt lat="47.690731" lon="7.963836">
        <ele>793.748841</ele>
        <time>2021-11-18T21:51:53.145Z</time>
      </trkpt>
      <trkpt lat="47.690788" lon="7.963194">
        <ele>794.202185</ele>
        <time>2021-11-18T21:52:03.013Z</time>
      </trkpt>
      <trkpt lat="47.690707" lon="7.962745">
        <ele>794.527614</ele>
        <time>2021-11-18T21:52:10.833Z</time>
      </trkpt>
      <trkpt lat="47.690463" lon="7.962380">
        <ele>796.024485</ele>
        <time>2021-11-18T21:52:19.949Z</time>
      </trkpt>
      <trkpt lat="47.690278" lon="7.962229">
        <ele>796.958477</ele>
        <time>2021-11-18T21:52:25.551Z</time>
      </trkpt>
      <trkpt lat="47.690093" lon="7.962108">
        <ele>797.852877</ele>
        <time>2021-11-18T21:52:32.156Z</time>
      </trkpt>
      <trkpt lat="47.689768" lon="7.961711">
        <ele>799.714641</ele>
        <time>2021-11-18T21:52:46.865Z</time>
      </trkpt>
      <trkpt lat="47.689549" lon="7.961412">
        <ele>801.030738</ele>
        <time>2021-11-18T21:52:58.041Z</time>
      </trkpt>
      <trkpt lat="47.689371" lon="7.961188">
        <ele>802.062947</ele>
        <time>2021-11-18T21:53:07.599Z</time>
      </trkpt>
      <trkpt lat="47.689260" lon="7.960699">
        <ele>803.269757</ele>
        <time>2021-11-18T21:53:20.675Z</time>
      </trkpt>
      <trkpt lat="47.689313" lon="7.960398">
        <ele>803.918989</ele>
        <time>2021-11-18T21:53:28.927Z</time>
      </trkpt>
      <trkpt lat="47.689509" lon="7.960015">
        <ele>804.922926</ele>
        <time>2021-11-18T21:53:34.934Z</time>
      </trkpt>
      <trkpt lat="47.689532" lon="7.959966">
        <ele>805.047578</ele>
        <time>2021-11-18T21:53:38.376Z</time>
      </trkpt>
      <trkpt lat="47.689674" lon="7.959657">
        <ele>805.828295</ele>
        <time>2021-11-18T21:53:43.081Z</time>
      </trkpt>
      <trkpt lat="47.689863" lon="7.959120">
        <ele>807.092770</ele>
        <time>2021-11-18T21:53:52.226Z</time>
      </trkpt>
      <trkpt lat="47.689865" lon="7.959081">
        <ele>807.174387</ele>
        <time>2021-11-18T21:53:53.215Z</time>
      </trkpt>
      <trkpt lat="47.689872" lon="7.958903">
        <ele>807.546451</ele>
        <time>2021-11-18T21:53:57.834Z</time>
      </trkpt>
      <trkpt lat="47.689892" lon="7.958388">
        <ele>808.173848</ele>
        <time>2021-11-18T21:54:05.194Z</time>
      </trkpt>
      <trkpt lat="47.689888" lon="7.958232">
        <ele>808.233776</ele>
        <time>2021-11-18T21:54:06.803Z</time>
      </trkpt>
      <trkpt lat="47.689884" lon="7.958104">
        <ele>808.282964</ele>
        <time>2021-11-18T21:54:07.632Z</time>
      </trkpt>
      <trkpt lat="47.689716" lon="7.957538">
        <ele>808.520422</ele>
        <time>2021-11-18T21:54:15.332Z</time>
      </trkpt>
      <trkpt lat="47.688866" lon="7.956415">
        <ele>809.380211</ele>
        <time>2021-11-18T21:54:31.048Z</time>
      </trkpt>
      <trkpt lat="47.688807" lon="7.956088">
        <ele>809.897736</ele>
        <time>2021-11-18T21:54:36.501Z</time>
      </trkpt>
      <trkpt lat="47.688788" lon="7.955551">
        <ele>810.719775</ele>
        <time>2021-11-18T21:54:45.990Z</time>
      </trkpt>
      <trkpt lat="47.688515" lon="7.954730">
        <ele>812.119603</ele>
        <time>2021-11-18T21:55:03.721Z</time>
      </trkpt>
      <trkpt lat="47.687817" lon="7.953290">
        <ele>813.013654</ele>
        <time>2021-11-18T21:55:31.701Z</time>
      </trkpt>
      <trkpt lat="47.687773" lon="7.952927">
        <ele>812.955790</ele>
        <time>2021-11-18T21:55:35.093Z</time>
      </trkpt>
      <trkpt lat="47.687779" lon="7.952728">
        <ele>812.924539</ele>
        <time>2021-11-18T21:55:37.201Z</time>
      </trkpt>
      <trkpt lat="47.687781" lon="7.952606">
        <ele>812.905394</ele>
        <time>2021-11-18T21:55:38.167Z</time>
      </trkpt>
      <trkpt lat="47.687764" lon="7.952155">
        <ele>812.834529</ele>
        <time>2021-11-18T21:55:41.347Z</time>
      </trkpt>
      <trkpt lat="47.687659" lon="7.951763">
        <ele>812.768342</ele>
        <time>2021-11-18T21:55:44.209Z</time>
      </trkpt>
      <trkpt lat="47.687182" lon="7.951157">
        <ele>811.184740</ele>
        <time>2021-11-18T21:55:50.557Z</time>
      </trkpt>
      <trkpt lat="47.686978" lon="7.950819">
        <ele>810.390982</ele>
        <time>2021-11-18T21:55:53.648Z</time>
      </trkpt>
      <trkpt lat="47.686953" lon="7.950665">
        <ele>810.113988</ele>
        <time>2021-11-18T21:55:54.599Z</time>
      </trkpt>
      <trkpt lat="47.686950" lon="7.950574">
        <ele>809.954681</ele>
        <time>2021-11-18T21:55:55.276Z</time>
      </trkpt>
      <trkpt lat="47.687006" lon="7.949894">
        <ele>808.756813</ele>
        <time>2021-11-18T21:56:00.434Z</time>
      </trkpt>
      <trkpt lat="47.687082" lon="7.949596">
        <ele>808.199610</ele>
        <time>2021-11-18T21:56:02.802Z</time>
      </trkpt>
      <trkpt lat="47.687155" lon="7.949288">
        <ele>808.169314</ele>
        <time>2021-11-18T21:56:06.390Z</time>
      </trkpt>
      <trkpt lat="47.687244" lon="7.949029">
        <ele>808.254281</ele>
        <time>2021-11-18T21:56:08.684Z</time>
      </trkpt>
      <trkpt lat="47.687389" lon="7.948743">
        <ele>808.358897</ele>
        <time>2021-11-18T21:56:12.375Z</time>
      </trkpt>
      <trkpt lat="47.687461" lon="7.948655">
        <ele>808.399367</ele>
        <time>2021-11-18T21:56:13.675Z</time>
      </trkpt>
      <trkpt lat="47.687525" lon="7.948592">
        <ele>808.432692</ele>
        <time>2021-11-18T21:56:15.240Z</time>
      </trkpt>
      <trkpt lat="47.687719" lon="7.948437">
        <ele>808.528304</ele>
        <time>2021-11-18T21:56:20.428Z</time>
      </trkpt>
      <trkpt lat="47.689121" lon="7.947773">
        <ele>808.444565</ele>
        <time>2021-11-18T21:56:47.938Z</time>
      </trkpt>
      <trkpt lat="47.690128" lon="7.947089">
        <ele>807.745833</ele>
        <time>2021-11-18T21:57:00.812Z</time>
      </trkpt>
      <trkpt lat="47.690211" lon="7.946723">
        <ele>807.132968</ele>
        <time>2021-11-18T21:57:03.568Z</time>
      </trkpt>
      <trkpt lat="47.690153" lon="7.946385">
        <ele>806.558001</ele>
        <time>2021-11-18T21:57:06.042Z</time>
      </trkpt>
      <trkpt lat="47.690039" lon="7.946199">
        <ele>806.143353</ele>
        <time>2021-11-18T21:57:07.820Z</time>
      </trkpt>
      <trkpt lat="47.689643" lon="7.945887">
        <ele>805.045695</ele>
        <time>2021-11-18T21:57:12.491Z</time>
      </trkpt>
      <trkpt lat="47.689487" lon="7.945675">
        <ele>804.527957</ele>
        <time>2021-11-18T21:57:14.707Z</time>
      </trkpt>
      <trkpt lat="47.689394" lon="7.945376">
        <ele>803.985016</ele>
        <time>2021-11-18T21:57:17.041Z</time>
      </trkpt>
      <trkpt lat="47.689381" lon="7.945037">
        <ele>803.425304</ele>
        <time>2021-11-18T21:57:19.363Z</time>
      </trkpt>
      <trkpt lat="47.689425" lon="7.944317">
        <ele>802.745814</ele>
        <time>2021-11-18T21:57:24.656Z</time>
      </trkpt>
      <trkpt lat="47.689443" lon="7.943973">
        <ele>802.442023</ele>
        <time>2021-11-18T21:57:27.137Z</time>
      </trkpt>
      <trkpt lat="47.689412" lon="7.943303">
        <ele>801.850726</ele>
        <time>2021-11-18T21:57:32.451Z</time>
      </trkpt>
      <trkpt lat="47.689369" lon="7.943108">
        <ele>801.670060</ele>
        <time>2021-11-18T21:57:33.967Z</time>
      </trkpt>
      <trkpt lat="47.689317" lon="7.942872">
        <ele>801.451423</ele>
        <time>2021-11-18T21:57:36.167Z</time>
      </trkpt>
      <trkpt lat="47.689274" lon="7.941995">
        <ele>801.034879</ele>
        <time>2021-11-18T21:57:45.033Z</time>
      </trkpt>
      <trkpt lat="47.689379" lon="7.941437">
        <ele>801.126272</ele>
        <time>2021-11-18T21:57:52.534Z</time>
      </trkpt>
      <trkpt lat="47.689567" lon="7.940889">
        <ele>801.223292</ele>
        <time>2021-11-18T21:58:00.632Z</time>
      </trkpt>
      <trkpt lat="47.689674" lon="7.940726">
        <ele>801.259205</ele>
        <time>2021-11-18T21:58:03.033Z</time>
      </trkpt>
      <trkpt lat="47.689780" lon="7.940625">
        <ele>801.288714</ele>
        <time>2021-11-18T21:58:04.854Z</time>
      </trkpt>
      <trkpt lat="47.689839" lon="7.940607">
        <ele>801.302828</ele>
        <time>2021-11-18T21:58:06.453Z</time>
      </trkpt>
      <trkpt lat="47.690501" lon="7.940662">
        <ele>801.316527</ele>
        <time>2021-11-18T21:58:14.394Z</time>
      </trkpt>
      <trkpt lat="47.690668" lon="7.940594">
        <ele>801.254788</ele>
        <time>2021-11-18T21:58:17.588Z</time>
      </trkpt>
      <trkpt lat="47.690841" lon="7.940462">
        <ele>801.185445</ele>
        <time>2021-11-18T21:58:19.763Z</time>
      </trkpt>
      <trkpt lat="47.690968" lon="7.940286">
        <ele>801.123520</ele>
        <time>2021-11-18T21:58:23.017Z</time>
      </trkpt>
      <trkpt lat="47.691116" lon="7.939893">
        <ele>801.015442</ele>
        <time>2021-11-18T21:58:27.152Z</time>
      </trkpt>
      <trkpt lat="47.691116" lon="7.939731">
        <ele>800.976561</ele>
        <time>2021-11-18T21:58:28.751Z</time>
      </trkpt>
      <trkpt lat="47.691111" lon="7.939681">
        <ele>800.964430</ele>
        <time>2021-11-18T21:58:29.049Z</time>
      </trkpt>
      <trkpt lat="47.691106" lon="7.939614">
        <ele>800.948251</ele>
        <time>2021-11-18T21:58:29.644Z</time>
      </trkpt>
      <trkpt lat="47.691092" lon="7.939506">
        <ele>800.921855</ele>
        <time>2021-11-18T21:58:30.699Z</time>
      </trkpt>
      <trkpt lat="47.691060" lon="7.939248">
        <ele>800.858892</ele>
        <time>2021-11-18T21:58:33.461Z</time>
      </trkpt>
      <trkpt lat="47.691102" lon="7.938699">
        <ele>800.947690</ele>
        <time>2021-11-18T21:58:38.400Z</time>
      </trkpt>
      <trkpt lat="47.691595" lon="7.937414">
        <ele>802.875479</ele>
        <time>2021-11-18T21:58:55.974Z</time>
      </trkpt>
      <trkpt lat="47.692277" lon="7.936501">
        <ele>805.485228</ele>
        <time>2021-11-18T21:59:24.540Z</time>
      </trkpt>
      <trkpt lat="47.692599" lon="7.935934">
        <ele>808.416180</ele>
        <time>2021-11-18T21:59:42.218Z</time>
      </trkpt>
      <trkpt lat="47.692849" lon="7.935367">
        <ele>811.094153</ele>
        <time>2021-11-18T21:59:59.798Z</time>
      </trkpt>
      <trkpt lat="47.692873" lon="7.935297">
        <ele>811.404525</ele>
        <time>2021-11-18T22:00:01.682Z</time>
      </trkpt>
      <trkpt lat="47.692945" lon="7.935062">
        <ele>812.424635</ele>
        <time>2021-11-18T22:00:09.023Z</time>
      </trkpt>
      <trkpt lat="47.693097" lon="7.934533">
        <ele>814.697101</ele>
        <time>2021-11-18T22:00:25.814Z</time>
      </trkpt>
      <trkpt lat="47.693269" lon="7.934189">
        <ele>817.136034</ele>
        <time>2021-11-18T22:00:38.690Z</time>
      </trkpt>
      <trkpt lat="47.693365" lon="7.934041">
        <ele>818.329182</ele>
        <time>2021-11-18T22:00:45.839Z</time>
      </trkpt>
      <trkpt lat="47.693604" lon="7.933678">
        <ele>821.276885</ele>
        <time>2021-11-18T22:01:02.525Z</time>
      </trkpt>
      <trkpt lat="47.693906" lon="7.933216">
        <ele>825.015363</ele>
        <time>2021-11-18T22:01:24.317Z</time>
      </trkpt>
      <trkpt lat="47.694176" lon="7.932793">
        <ele>828.399392</ele>
        <time>2021-11-18T22:01:43.593Z</time>
      </trkpt>
      <trkpt lat="47.695435" lon="7.931533">
        <ele>842.925100</ele>
        <time>2021-11-18T22:03:07.079Z</time>
      </trkpt>
      <trkpt lat="47.695783" lon="7.931339">
        <ele>846.541907</ele>
        <time>2021-11-18T22:03:26.813Z</time>
      </trkpt>
      <trkpt lat="47.695980" lon="7.931331">
        <ele>848.358612</ele>
        <time>2021-11-18T22:03:36.995Z</time>
      </trkpt>
      <trkpt lat="47.696081" lon="7.931365">
        <ele>849.208506</ele>
        <time>2021-11-18T22:03:42.826Z</time>
      </trkpt>
      <trkpt lat="47.696162" lon="7.931402">
        <ele>849.903964</ele>
        <time>2021-11-18T22:03:46.674Z</time>
      </trkpt>
      <trkpt lat="47.696261" lon="7.931448">
        <ele>850.755240</ele>
        <time>2021-11-18T22:03:52.051Z</time>
      </trkpt>
      <trkpt lat="47.696418" lon="7.931504">
        <ele>852.080315</ele>
        <time>2021-11-18T22:04:00.388Z</time>
      </trkpt>
      <trkpt lat="47.696669" lon="7.931428">
        <ele>854.182558</ele>
        <time>2021-11-18T22:04:13.591Z</time>
      </trkpt>
      <trkpt lat="47.696702" lon="7.931413">
        <ele>854.465772</ele>
        <time>2021-11-18T22:04:15.121Z</time>
      </trkpt>
      <trkpt lat="47.696744" lon="7.931395">
        <ele>854.824510</ele>
        <time>2021-11-18T22:04:18.224Z</time>
      </trkpt>
      <trkpt lat="47.696989" lon="7.931432">
        <ele>856.845531</ele>
        <time>2021-11-18T22:04:30.405Z</time>
      </trkpt>
      <trkpt lat="47.697036" lon="7.931528">
        <ele>857.501244</ele>
        <time>2021-11-18T22:04:33.899Z</time>
      </trkpt>
      <trkpt lat="47.697091" lon="7.931643">
        <ele>858.280494</ele>
        <time>2021-11-18T22:04:38.414Z</time>
      </trkpt>
      <trkpt lat="47.697107" lon="7.931769">
        <ele>858.988743</ele>
        <time>2021-11-18T22:04:42.701Z</time>
      </trkpt>
      <trkpt lat="47.696985" lon="7.932341">
        <ele>862.303078</ele>
        <time>2021-11-18T22:05:01.082Z</time>
      </trkpt>
      <trkpt lat="47.696996" lon="7.932454">
        <ele>862.706847</ele>
        <time>2021-11-18T22:05:03.093Z</time>
      </trkpt>
      <trkpt lat="47.697116" lon="7.932688">
        <ele>863.301217</ele>
        <time>2021-11-18T22:05:09.684Z</time>
      </trkpt>
      <trkpt lat="47.697198" lon="7.932720">
        <ele>863.555718</ele>
        <time>2021-11-18T22:05:13.219Z</time>
      </trkpt>
      <trkpt lat="47.697277" lon="7.932711">
        <ele>863.793561</ele>
        <time>2021-11-18T22:05:14.954Z</time>
      </trkpt>
      <trkpt lat="47.697338" lon="7.932686">
        <ele>863.983513</ele>
        <time>2021-11-18T22:05:17.150Z</time>
      </trkpt>
      <trkpt lat="47.697436" lon="7.932606">
        <ele>864.319173</ele>
        <time>2021-11-18T22:05:20.616Z</time>
      </trkpt>
      <trkpt lat="47.697623" lon="7.932380">
        <ele>865.042775</ele>
        <time>2021-11-18T22:05:27.535Z</time>
      </trkpt>
      <trkpt lat="47.697982" lon="7.932184">
        <ele>866.190894</ele>
        <time>2021-11-18T22:05:37.072Z</time>
      </trkpt>
      <trkpt lat="47.698184" lon="7.932113">
        <ele>866.814005</ele>
        <time>2021-11-18T22:05:42.324Z</time>
      </trkpt>
      <trkpt lat="47.698213" lon="7.932100">
        <ele>866.904935</ele>
        <time>2021-11-18T22:05:42.821Z</time>
      </trkpt>
      <trkpt lat="47.698295" lon="7.932064">
        <ele>867.161608</ele>
        <time>2021-11-18T22:05:44.363Z</time>
      </trkpt>
      <trkpt lat="47.698697" lon="7.931952">
        <ele>867.987245</ele>
        <time>2021-11-18T22:05:51.404Z</time>
      </trkpt>
      <trkpt lat="47.698719" lon="7.931946">
        <ele>867.989188</ele>
        <time>2021-11-18T22:05:51.659Z</time>
      </trkpt>
      <trkpt lat="47.698997" lon="7.931826">
        <ele>868.014336</ele>
        <time>2021-11-18T22:05:55.311Z</time>
      </trkpt>
      <trkpt lat="47.699043" lon="7.931722">
        <ele>868.021612</ele>
        <time>2021-11-18T22:05:56.231Z</time>
      </trkpt>
      <trkpt lat="47.699097" lon="7.931601">
        <ele>868.030100</ele>
        <time>2021-11-18T22:05:57.321Z</time>
      </trkpt>
      <trkpt lat="47.699167" lon="7.931228">
        <ele>868.052739</ele>
        <time>2021-11-18T22:06:00.534Z</time>
      </trkpt>
      <trkpt lat="47.699179" lon="7.931046">
        <ele>868.063431</ele>
        <time>2021-11-18T22:06:01.935Z</time>
      </trkpt>
      <trkpt lat="47.699174" lon="7.930935">
        <ele>868.069935</ele>
        <time>2021-11-18T22:06:02.956Z</time>
      </trkpt>
      <trkpt lat="47.699166" lon="7.930830">
        <ele>868.076113</ele>
        <time>2021-11-18T22:06:03.932Z</time>
      </trkpt>
      <trkpt lat="47.699125" lon="7.930694">
        <ele>868.084825</ele>
        <time>2021-11-18T22:06:05.121Z</time>
      </trkpt>
      <trkpt lat="47.699067" lon="7.930598">
        <ele>868.092367</ele>
        <time>2021-11-18T22:06:06.160Z</time>
      </trkpt>
      <trkpt lat="47.698916" lon="7.930485">
        <ele>868.107054</ele>
        <time>2021-11-18T22:06:09.298Z</time>
      </trkpt>
      <trkpt lat="47.698856" lon="7.930473">
        <ele>868.112313</ele>
        <time>2021-11-18T22:06:10.133Z</time>
      </trkpt>
      <trkpt lat="47.698539" lon="7.930409">
        <ele>868.605805</ele>
        <time>2021-11-18T22:06:16.838Z</time>
      </trkpt>
      <trkpt lat="47.698390" lon="7.930344">
        <ele>869.350000</ele>
        <time>2021-11-18T22:06:20.588Z</time>
      </trkpt>
      <trkpt lat="47.698354" lon="7.930276">
        <ele>869.629048</ele>
        <time>2021-11-18T22:06:22.199Z</time>
      </trkpt>
      <trkpt lat="47.698281" lon="7.930136">
        <ele>870.200265</ele>
        <time>2021-11-18T22:06:25.766Z</time>
      </trkpt>
      <trkpt lat="47.698274" lon="7.930122">
        <ele>870.256517</ele>
        <time>2021-11-18T22:06:26.083Z</time>
      </trkpt>
      <trkpt lat="47.698230" lon="7.929864">
        <ele>871.114968</ele>
        <time>2021-11-18T22:06:31.097Z</time>
      </trkpt>
      <trkpt lat="47.698267" lon="7.929569">
        <ele>872.082839</ele>
        <time>2021-11-18T22:06:37.082Z</time>
      </trkpt>
      <trkpt lat="47.698339" lon="7.929339">
        <ele>872.900996</ele>
        <time>2021-11-18T22:06:42.466Z</time>
      </trkpt>
      <trkpt lat="47.698695" lon="7.928282">
        <ele>876.713270</ele>
        <time>2021-11-18T22:07:15.088Z</time>
      </trkpt>
      <trkpt lat="47.698816" lon="7.927925">
        <ele>879.132642</ele>
        <time>2021-11-18T22:07:28.416Z</time>
      </trkpt>
      <trkpt lat="47.698890" lon="7.927724">
        <ele>880.538983</ele>
        <time>2021-11-18T22:07:36.411Z</time>
      </trkpt>
      <trkpt lat="47.698916" lon="7.927369">
        <ele>882.730958</ele>
        <time>2021-11-18T22:07:49.869Z</time>
      </trkpt>
      <trkpt lat="47.698865" lon="7.927181">
        <ele>883.975183</ele>
        <time>2021-11-18T22:07:57.107Z</time>
      </trkpt>
      <trkpt lat="47.698848" lon="7.927104">
        <ele>884.472618</ele>
        <time>2021-11-18T22:07:59.832Z</time>
      </trkpt>
      <trkpt lat="47.698822" lon="7.926986">
        <ele>885.234772</ele>
        <time>2021-11-18T22:08:05.035Z</time>
      </trkpt>
      <trkpt lat="47.698753" lon="7.926602">
        <ele>887.674462</ele>
        <time>2021-11-18T22:08:19.309Z</time>
      </trkpt>
      <trkpt lat="47.698745" lon="7.926084">
        <ele>890.854970</ele>
        <time>2021-11-18T22:08:38.292Z</time>
      </trkpt>
      <trkpt lat="47.698774" lon="7.925852">
        <ele>892.303423</ele>
        <time>2021-11-18T22:08:46.356Z</time>
      </trkpt>
      <trkpt lat="47.698781" lon="7.925802">
        <ele>892.616910</ele>
        <time>2021-11-18T22:08:48.817Z</time>
      </trkpt>
      <trkpt lat="47.698880" lon="7.925249">
        <ele>895.274262</ele>
        <time>2021-11-18T22:09:07.484Z</time>
      </trkpt>
      <trkpt lat="47.698959" lon="7.925050">
        <ele>896.284617</ele>
        <time>2021-11-18T22:09:14.962Z</time>
      </trkpt>
      <trkpt lat="47.699123" lon="7.924701">
        <ele>898.146022</ele>
        <time>2021-11-18T22:09:28.190Z</time>
      </trkpt>
      <trkpt lat="47.699230" lon="7.924465">
        <ele>899.390402</ele>
        <time>2021-11-18T22:09:36.084Z</time>
      </trkpt>
      <trkpt lat="47.699259" lon="7.924329">
        <ele>900.014275</ele>
        <time>2021-11-18T22:09:40.153Z</time>
      </trkpt>
      <trkpt lat="47.699270" lon="7.924283">
        <ele>900.227756</ele>
        <time>2021-11-18T22:09:41.504Z</time>
      </trkpt>
      <trkpt lat="47.699273" lon="7.924106">
        <ele>901.002032</ele>
        <time>2021-11-18T22:09:46.446Z</time>
      </trkpt>
      <trkpt lat="47.699226" lon="7.923813">
        <ele>902.319229</ele>
        <time>2021-11-18T22:09:54.361Z</time>
      </trkpt>
      <trkpt lat="47.699164" lon="7.923424">
        <ele>904.067401</ele>
        <time>2021-11-18T22:10:03.195Z</time>
      </trkpt>
      <trkpt lat="47.699152" lon="7.923280">
        <ele>904.701931</ele>
        <time>2021-11-18T22:10:05.273Z</time>
      </trkpt>
      <trkpt lat="47.699152" lon="7.922875">
        <ele>904.872017</ele>
        <time>2021-11-18T22:10:13.178Z</time>
      </trkpt>
      <trkpt lat="47.699181" lon="7.922716">
        <ele>904.885003</ele>
        <time>2021-11-18T22:10:15.231Z</time>
      </trkpt>
      <trkpt lat="47.699222" lon="7.922379">
        <ele>904.912000</ele>
        <time>2021-11-18T22:10:19.929Z</time>
      </trkpt>
      <trkpt lat="47.699237" lon="7.922228">
        <ele>904.924032</ele>
        <time>2021-11-18T22:10:21.257Z</time>
      </trkpt>
      <trkpt lat="47.699331" lon="7.921635">
        <ele>904.972058</ele>
        <time>2021-11-18T22:10:26.501Z</time>
      </trkpt>
      <trkpt lat="47.699366" lon="7.921414">
        <ele>904.989955</ele>
        <time>2021-11-18T22:10:28.248Z</time>
      </trkpt>
      <trkpt lat="47.699403" lon="7.921241">
        <ele>905.004265</ele>
        <time>2021-11-18T22:10:29.693Z</time>
      </trkpt>
      <trkpt lat="47.699458" lon="7.921083">
        <ele>905.018288</ele>
        <time>2021-11-18T22:10:30.985Z</time>
      </trkpt>
      <trkpt lat="47.699592" lon="7.920779">
        <ele>905.046934</ele>
        <time>2021-11-18T22:10:33.702Z</time>
      </trkpt>
      <trkpt lat="47.700066" lon="7.919608">
        <ele>904.252445</ele>
        <time>2021-11-18T22:10:43.860Z</time>
      </trkpt>
      <trkpt lat="47.700554" lon="7.918395">
        <ele>903.384220</ele>
        <time>2021-11-18T22:10:56.914Z</time>
      </trkpt>
      <trkpt lat="47.700654" lon="7.918246">
        <ele>903.349070</ele>
        <time>2021-11-18T22:10:59.438Z</time>
      </trkpt>
      <trkpt lat="47.700893" lon="7.918159">
        <ele>903.287995</ele>
        <time>2021-11-18T22:11:04.027Z</time>
      </trkpt>
      <trkpt lat="47.701291" lon="7.918208">
        <ele>903.188872</ele>
        <time>2021-11-18T22:11:11.703Z</time>
      </trkpt>
      <trkpt lat="47.701618" lon="7.918290">
        <ele>903.106562</ele>
        <time>2021-11-18T22:11:17.323Z</time>
      </trkpt>
      <trkpt lat="47.701664" lon="7.918301">
        <ele>903.094998</ele>
        <time>2021-11-18T22:11:18.022Z</time>
      </trkpt>
      <trkpt lat="47.701786" lon="7.918318">
        <ele>903.064584</ele>
        <time>2021-11-18T22:11:20.433Z</time>
      </trkpt>
      <trkpt lat="47.701983" lon="7.918332">
        <ele>903.015633</ele>
        <time>2021-11-18T22:11:23.093Z</time>
      </trkpt>
      <trkpt lat="47.702397" lon="7.918193">
        <ele>902.353279</ele>
        <time>2021-11-18T22:11:27.641Z</time>
      </trkpt>
      <trkpt lat="47.702537" lon="7.918130">
        <ele>901.683297</ele>
        <time>2021-11-18T22:11:29.050Z</time>
      </trkpt>
      <trkpt lat="47.702954" lon="7.917934">
        <ele>899.680098</ele>
        <time>2021-11-18T22:11:33.321Z</time>
      </trkpt>
      <trkpt lat="47.703049" lon="7.917827">
        <ele>899.134113</ele>
        <time>2021-11-18T22:11:34.611Z</time>
      </trkpt>
      <trkpt lat="47.703228" lon="7.917328">
        <ele>897.391174</ele>
        <time>2021-11-18T22:11:38.183Z</time>
      </trkpt>
      <trkpt lat="47.703255" lon="7.917193">
        <ele>896.957075</ele>
        <time>2021-11-18T22:11:39.034Z</time>
      </trkpt>
      <trkpt lat="47.703237" lon="7.917064">
        <ele>896.550999</ele>
        <time>2021-11-18T22:11:39.803Z</time>
      </trkpt>
      <trkpt lat="47.703130" lon="7.916857">
        <ele>895.746468</ele>
        <time>2021-11-18T22:11:41.516Z</time>
      </trkpt>
      <trkpt lat="47.702594" lon="7.916264">
        <ele>892.747700</ele>
        <time>2021-11-18T22:11:47.545Z</time>
      </trkpt>
      <trkpt lat="47.702450" lon="7.916011">
        <ele>891.757690</ele>
        <time>2021-11-18T22:11:49.533Z</time>
      </trkpt>
      <trkpt lat="47.702262" lon="7.915604">
        <ele>890.282770</ele>
        <time>2021-11-18T22:11:52.600Z</time>
      </trkpt>
      <trkpt lat="47.702100" lon="7.915072">
        <ele>888.538107</ele>
        <time>2021-11-18T22:11:56.603Z</time>
      </trkpt>
      <trkpt lat="47.702034" lon="7.914858">
        <ele>887.834770</ele>
        <time>2021-11-18T22:11:58.299Z</time>
      </trkpt>
      <trkpt lat="47.701857" lon="7.914279">
        <ele>886.707048</ele>
        <time>2021-11-18T22:12:03.271Z</time>
      </trkpt>
      <trkpt lat="47.701773" lon="7.914100">
        <ele>886.697293</ele>
        <time>2021-11-18T22:12:05.700Z</time>
      </trkpt>
      <trkpt lat="47.701483" lon="7.913787">
        <ele>886.673483</ele>
        <time>2021-11-18T22:12:10.856Z</time>
      </trkpt>
      <trkpt lat="47.701287" lon="7.913590">
        <ele>886.657765</ele>
        <time>2021-11-18T22:12:14.141Z</time>
      </trkpt>
      <trkpt lat="47.701208" lon="7.913462">
        <ele>886.650000</ele>
        <time>2021-11-18T22:12:16.960Z</time>
      </trkpt>
      <trkpt lat="47.701150" lon="7.913323">
        <ele>886.642689</ele>
        <time>2021-11-18T22:12:18.980Z</time>
      </trkpt>
      <trkpt lat="47.701112" lon="7.912983">
        <ele>886.627281</ele>
        <time>2021-11-18T22:12:22.498Z</time>
      </trkpt>
      <trkpt lat="47.701152" lon="7.912431">
        <ele>886.602461</ele>
        <time>2021-11-18T22:12:28.153Z</time>
      </trkpt>
      <trkpt lat="47.701251" lon="7.911964">
        <ele>886.675115</ele>
        <time>2021-11-18T22:12:33.470Z</time>
      </trkpt>
      <trkpt lat="47.701543" lon="7.911438">
        <ele>886.798508</ele>
        <time>2021-11-18T22:12:42.509Z</time>
      </trkpt>
      <trkpt lat="47.701574" lon="7.911301">
        <ele>886.824664</ele>
        <time>2021-11-18T22:12:44.529Z</time>
      </trkpt>
      <trkpt lat="47.701569" lon="7.911135">
        <ele>886.854735</ele>
        <time>2021-11-18T22:12:45.664Z</time>
      </trkpt>
      <trkpt lat="47.701470" lon="7.910874">
        <ele>886.908952</ele>
        <time>2021-11-18T22:12:50.338Z</time>
      </trkpt>
      <trkpt lat="47.701365" lon="7.910739">
        <ele>886.946289</ele>
        <time>2021-11-18T22:12:51.797Z</time>
      </trkpt>
      <trkpt lat="47.701327" lon="7.910683">
        <ele>886.960680</ele>
        <time>2021-11-18T22:12:52.977Z</time>
      </trkpt>
      <trkpt lat="47.701208" lon="7.910293">
        <ele>887.038173</ele>
        <time>2021-11-18T22:12:57.339Z</time>
      </trkpt>
      <trkpt lat="47.701245" lon="7.909865">
        <ele>886.868304</ele>
        <time>2021-11-18T22:13:02.947Z</time>
      </trkpt>
      <trkpt lat="47.701428" lon="7.909459">
        <ele>886.298490</ele>
        <time>2021-11-18T22:13:07.316Z</time>
      </trkpt>
      <trkpt lat="47.701676" lon="7.909064">
        <ele>885.668559</ele>
        <time>2021-11-18T22:13:11.209Z</time>
      </trkpt>
      <trkpt lat="47.701775" lon="7.908764">
        <ele>885.278936</ele>
        <time>2021-11-18T22:13:13.689Z</time>
      </trkpt>
      <trkpt lat="47.701744" lon="7.908593">
        <ele>885.072426</ele>
        <time>2021-11-18T22:13:15.133Z</time>
      </trkpt>
      <trkpt lat="47.701591" lon="7.908404">
        <ele>884.727675</ele>
        <time>2021-11-18T22:13:17.105Z</time>
      </trkpt>
      <trkpt lat="47.701209" lon="7.908216">
        <ele>884.030419</ele>
        <time>2021-11-18T22:13:21.288Z</time>
      </trkpt>
      <trkpt lat="47.701124" lon="7.908192">
        <ele>883.833955</ele>
        <time>2021-11-18T22:13:22.273Z</time>
      </trkpt>
      <trkpt lat="47.700845" lon="7.908113">
        <ele>883.075224</ele>
        <time>2021-11-18T22:13:25.215Z</time>
      </trkpt>
      <trkpt lat="47.700490" lon="7.908089">
        <ele>882.125897</ele>
        <time>2021-11-18T22:13:28.930Z</time>
      </trkpt>
      <trkpt lat="47.700348" lon="7.908021">
        <ele>881.727345</ele>
        <time>2021-11-18T22:13:30.584Z</time>
      </trkpt>
      <trkpt lat="47.700287" lon="7.907980">
        <ele>881.548494</ele>
        <time>2021-11-18T22:13:31.164Z</time>
      </trkpt>
      <trkpt lat="47.700198" lon="7.907826">
        <ele>881.183548</ele>
        <time>2021-11-18T22:13:32.865Z</time>
      </trkpt>
      <trkpt lat="47.700078" lon="7.907457">
        <ele>880.446740</ele>
        <time>2021-11-18T22:13:35.666Z</time>
      </trkpt>
      <trkpt lat="47.700079" lon="7.907155">
        <ele>879.903774</ele>
        <time>2021-11-18T22:13:37.809Z</time>
      </trkpt>
      <trkpt lat="47.700105" lon="7.907019">
        <ele>879.649589</ele>
        <time>2021-11-18T22:13:38.665Z</time>
      </trkpt>
      <trkpt lat="47.700132" lon="7.906936">
        <ele>879.483848</ele>
        <time>2021-11-18T22:13:39.475Z</time>
      </trkpt>
      <trkpt lat="47.700443" lon="7.906163">
        <ele>878.409606</ele>
        <time>2021-11-18T22:13:46.253Z</time>
      </trkpt>
      <trkpt lat="47.700618" lon="7.905495">
        <ele>877.662363</ele>
        <time>2021-11-18T22:13:52.169Z</time>
      </trkpt>
      <trkpt lat="47.700673" lon="7.904774">
        <ele>876.905957</ele>
        <time>2021-11-18T22:13:58.278Z</time>
      </trkpt>
      <trkpt lat="47.700593" lon="7.904109">
        <ele>876.109231</ele>
        <time>2021-11-18T22:14:03.447Z</time>
      </trkpt>
      <trkpt lat="47.700551" lon="7.903876">
        <ele>875.723949</ele>
        <time>2021-11-18T22:14:05.241Z</time>
      </trkpt>
      <trkpt lat="47.700441" lon="7.903664">
        <ele>875.296373</ele>
        <time>2021-11-18T22:14:07.207Z</time>
      </trkpt>
      <trkpt lat="47.700319" lon="7.903577">
        <ele>874.975205</ele>
        <time>2021-11-18T22:14:08.657Z</time>
      </trkpt>
      <trkpt lat="47.699833" lon="7.903482">
        <ele>873.811822</ele>
        <time>2021-11-18T22:14:13.766Z</time>
      </trkpt>
      <trkpt lat="47.699555" lon="7.903187">
        <ele>873.001048</ele>
        <time>2021-11-18T22:14:17.321Z</time>
      </trkpt>
      <trkpt lat="47.699443" lon="7.903009">
        <ele>872.611824</ele>
        <time>2021-11-18T22:14:18.996Z</time>
      </trkpt>
      <trkpt lat="47.699420" lon="7.902971">
        <ele>872.530191</ele>
        <time>2021-11-18T22:14:19.338Z</time>
      </trkpt>
      <trkpt lat="47.699294" lon="7.902729">
        <ele>872.011481</ele>
        <time>2021-11-18T22:14:21.547Z</time>
      </trkpt>
      <trkpt lat="47.699164" lon="7.902467">
        <ele>871.252775</ele>
        <time>2021-11-18T22:14:23.831Z</time>
      </trkpt>
      <trkpt lat="47.698984" lon="7.902071">
        <ele>870.138965</ele>
        <time>2021-11-18T22:14:27.235Z</time>
      </trkpt>
      <trkpt lat="47.698869" lon="7.901775">
        <ele>869.342327</ele>
        <time>2021-11-18T22:14:29.801Z</time>
      </trkpt>
      <trkpt lat="47.698757" lon="7.901247">
        <ele>868.051951</ele>
        <time>2021-11-18T22:14:33.648Z</time>
      </trkpt>
      <trkpt lat="47.698732" lon="7.900749">
        <ele>866.887953</ele>
        <time>2021-11-18T22:14:36.832Z</time>
      </trkpt>
      <trkpt lat="47.698788" lon="7.900155">
        <ele>865.258662</ele>
        <time>2021-11-18T22:14:40.629Z</time>
      </trkpt>
      <trkpt lat="47.698741" lon="7.899854">
        <ele>864.108895</ele>
        <time>2021-11-18T22:14:42.515Z</time>
      </trkpt>
      <trkpt lat="47.698669" lon="7.899701">
        <ele>863.414219</ele>
        <time>2021-11-18T22:14:43.875Z</time>
      </trkpt>
      <trkpt lat="47.698531" lon="7.899556">
        <ele>862.479754</ele>
        <time>2021-11-18T22:14:45.367Z</time>
      </trkpt>
      <trkpt lat="47.698377" lon="7.899408">
        <ele>861.465750</ele>
        <time>2021-11-18T22:14:47.305Z</time>
      </trkpt>
      <trkpt lat="47.698286" lon="7.899318">
        <ele>860.861369</ele>
        <time>2021-11-18T22:14:48.296Z</time>
      </trkpt>
      <trkpt lat="47.698251" lon="7.899282">
        <ele>860.626020</ele>
        <time>2021-11-18T22:14:48.657Z</time>
      </trkpt>
      <trkpt lat="47.697846" lon="7.898880">
        <ele>857.933193</ele>
        <time>2021-11-18T22:14:53.231Z</time>
      </trkpt>
      <trkpt lat="47.697711" lon="7.898816">
        <ele>857.149742</ele>
        <time>2021-11-18T22:14:54.577Z</time>
      </trkpt>
      <trkpt lat="47.697150" lon="7.898946">
        <ele>854.437583</ele>
        <time>2021-11-18T22:14:59.718Z</time>
      </trkpt>
      <trkpt lat="47.696783" lon="7.898832">
        <ele>852.824961</ele>
        <time>2021-11-18T22:15:03.177Z</time>
      </trkpt>
      <trkpt lat="47.696519" lon="7.898548">
        <ele>851.423092</ele>
        <time>2021-11-18T22:15:06.400Z</time>
      </trkpt>
      <trkpt lat="47.696232" lon="7.898144">
        <ele>849.722631</ele>
        <time>2021-11-18T22:15:10.367Z</time>
      </trkpt>
      <trkpt lat="47.696123" lon="7.897991">
        <ele>849.077677</ele>
        <time>2021-11-18T22:15:11.883Z</time>
      </trkpt>
      <trkpt lat="47.695992" lon="7.897890">
        <ele>848.442891</ele>
        <time>2021-11-18T22:15:13.372Z</time>
      </trkpt>
      <trkpt lat="47.695747" lon="7.897704">
        <ele>847.461988</ele>
        <time>2021-11-18T22:15:16.337Z</time>
      </trkpt>
      <trkpt lat="47.695469" lon="7.897650">
        <ele>846.516451</ele>
        <time>2021-11-18T22:15:19.541Z</time>
      </trkpt>
      <trkpt lat="47.695175" lon="7.897869">
        <ele>845.407291</ele>
        <time>2021-11-18T22:15:23.087Z</time>
      </trkpt>
      <trkpt lat="47.695008" lon="7.897996">
        <ele>844.774588</ele>
        <time>2021-11-18T22:15:24.845Z</time>
      </trkpt>
      <trkpt lat="47.694969" lon="7.898015">
        <ele>844.636170</ele>
        <time>2021-11-18T22:15:25.316Z</time>
      </trkpt>
      <trkpt lat="47.694940" lon="7.898032">
        <ele>844.531029</ele>
        <time>2021-11-18T22:15:26.060Z</time>
      </trkpt>
      <trkpt lat="47.694316" lon="7.897878">
        <ele>842.397745</ele>
        <time>2021-11-18T22:15:32.162Z</time>
      </trkpt>
      <trkpt lat="47.694227" lon="7.897933">
        <ele>842.024222</ele>
        <time>2021-11-18T22:15:33.335Z</time>
      </trkpt>
      <trkpt lat="47.694145" lon="7.897983">
        <ele>841.478663</ele>
        <time>2021-11-18T22:15:34.203Z</time>
      </trkpt>
      <trkpt lat="47.694015" lon="7.898113">
        <ele>840.514151</ele>
        <time>2021-11-18T22:15:35.620Z</time>
      </trkpt>
      <trkpt lat="47.693999" lon="7.898129">
        <ele>840.395442</ele>
        <time>2021-11-18T22:15:35.809Z</time>
      </trkpt>
      <trkpt lat="47.693970" lon="7.898197">
        <ele>840.061943</ele>
        <time>2021-11-18T22:15:36.369Z</time>
      </trkpt>
      <trkpt lat="47.693913" lon="7.898348">
        <ele>839.344713</ele>
        <time>2021-11-18T22:15:37.596Z</time>
      </trkpt>
      <trkpt lat="47.693868" lon="7.898489">
        <ele>838.698235</ele>
        <time>2021-11-18T22:15:38.516Z</time>
      </trkpt>
      <trkpt lat="47.693630" lon="7.899148">
        <ele>835.599927</ele>
        <time>2021-11-18T22:15:43.025Z</time>
      </trkpt>
      <trkpt lat="47.693300" lon="7.899597">
        <ele>832.845721</ele>
        <time>2021-11-18T22:15:47.059Z</time>
      </trkpt>
      <trkpt lat="47.693193" lon="7.900217">
        <ele>830.598116</ele>
        <time>2021-11-18T22:15:50.881Z</time>
      </trkpt>
      <trkpt lat="47.693100" lon="7.900386">
        <ele>830.115347</ele>
        <time>2021-11-18T22:15:52.247Z</time>
      </trkpt>
      <trkpt lat="47.693054" lon="7.900440">
        <ele>829.922718</ele>
        <time>2021-11-18T22:15:52.747Z</time>
      </trkpt>
      <trkpt lat="47.693000" lon="7.900458">
        <ele>829.740881</ele>
        <time>2021-11-18T22:15:53.291Z</time>
      </trkpt>
      <trkpt lat="47.692937" lon="7.900460">
        <ele>829.533837</ele>
        <time>2021-11-18T22:15:53.933Z</time>
      </trkpt>
      <trkpt lat="47.692881" lon="7.900444">
        <ele>829.346468</ele>
        <time>2021-11-18T22:15:54.445Z</time>
      </trkpt>
      <trkpt lat="47.692762" lon="7.900344">
        <ele>828.897260</ele>
        <time>2021-11-18T22:15:55.935Z</time>
      </trkpt>
      <trkpt lat="47.692253" lon="7.899242">
        <ele>825.941443</ele>
        <time>2021-11-18T22:16:05.898Z</time>
      </trkpt>
      <trkpt lat="47.691921" lon="7.898770">
        <ele>824.900774</ele>
        <time>2021-11-18T22:16:10.984Z</time>
      </trkpt>
      <trkpt lat="47.691684" lon="7.898451">
        <ele>824.535206</ele>
        <time>2021-11-18T22:16:15.757Z</time>
      </trkpt>
      <trkpt lat="47.691618" lon="7.898284">
        <ele>824.386198</ele>
        <time>2021-11-18T22:16:17.584Z</time>
      </trkpt>
      <trkpt lat="47.691597" lon="7.898146">
        <ele>824.277336</ele>
        <time>2021-11-18T22:16:18.655Z</time>
      </trkpt>
      <trkpt lat="47.691597" lon="7.898017">
        <ele>824.178078</ele>
        <time>2021-11-18T22:16:20.524Z</time>
      </trkpt>
      <trkpt lat="47.691623" lon="7.897890">
        <ele>824.075939</ele>
        <time>2021-11-18T22:16:21.694Z</time>
      </trkpt>
      <trkpt lat="47.691690" lon="7.897591">
        <ele>823.833463</ele>
        <time>2021-11-18T22:16:24.234Z</time>
      </trkpt>
      <trkpt lat="47.691724" lon="7.897240">
        <ele>823.560608</ele>
        <time>2021-11-18T22:16:27.444Z</time>
      </trkpt>
      <trkpt lat="47.691721" lon="7.897132">
        <ele>823.477438</ele>
        <time>2021-11-18T22:16:28.190Z</time>
      </trkpt>
      <trkpt lat="47.691722" lon="7.896872">
        <ele>823.277380</ele>
        <time>2021-11-18T22:16:30.578Z</time>
      </trkpt>
      <trkpt lat="47.691726" lon="7.896750">
        <ele>823.183397</ele>
        <time>2021-11-18T22:16:31.450Z</time>
      </trkpt>
      <trkpt lat="47.691751" lon="7.896481">
        <ele>822.739439</ele>
        <time>2021-11-18T22:16:33.556Z</time>
      </trkpt>
      <trkpt lat="47.691908" lon="7.895902">
        <ele>821.323286</ele>
        <time>2021-11-18T22:16:37.926Z</time>
      </trkpt>
      <trkpt lat="47.692782" lon="7.894909">
        <ele>817.614844</ele>
        <time>2021-11-18T22:16:48.605Z</time>
      </trkpt>
      <trkpt lat="47.692919" lon="7.894668">
        <ele>816.815711</ele>
        <time>2021-11-18T22:16:50.764Z</time>
      </trkpt>
      <trkpt lat="47.693118" lon="7.893755">
        <ele>813.278624</ele>
        <time>2021-11-18T22:16:57.153Z</time>
      </trkpt>
      <trkpt lat="47.693532" lon="7.893064">
        <ele>809.869036</ele>
        <time>2021-11-18T22:17:02.873Z</time>
      </trkpt>
      <trkpt lat="47.694225" lon="7.892203">
        <ele>803.668591</ele>
        <time>2021-11-18T22:17:10.975Z</time>
      </trkpt>
      <trkpt lat="47.694279" lon="7.892107">
        <ele>802.951865</ele>
        <time>2021-11-18T22:17:11.695Z</time>
      </trkpt>
      <trkpt lat="47.694290" lon="7.891921">
        <ele>801.882208</ele>
        <time>2021-11-18T22:17:12.851Z</time>
      </trkpt>
      <trkpt lat="47.694262" lon="7.891761">
        <ele>800.935131</ele>
        <time>2021-11-18T22:17:13.818Z</time>
      </trkpt>
      <trkpt lat="47.694140" lon="7.891577">
        <ele>799.455495</ele>
        <time>2021-11-18T22:17:15.342Z</time>
      </trkpt>
      <trkpt lat="47.694034" lon="7.891576">
        <ele>798.553289</ele>
        <time>2021-11-18T22:17:16.280Z</time>
      </trkpt>
      <trkpt lat="47.692904" lon="7.892107">
        <ele>788.330534</ele>
        <time>2021-11-18T22:17:26.517Z</time>
      </trkpt>
      <trkpt lat="47.692353" lon="7.892297">
        <ele>783.324897</ele>
        <time>2021-11-18T22:17:31.493Z</time>
      </trkpt>
      <trkpt lat="47.691492" lon="7.892366">
        <ele>775.692050</ele>
        <time>2021-11-18T22:17:39.043Z</time>
      </trkpt>
      <trkpt lat="47.691051" lon="7.892747">
        <ele>771.135811</ele>
        <time>2021-11-18T22:17:43.478Z</time>
      </trkpt>
      <trkpt lat="47.690917" lon="7.892704">
        <ele>769.911433</ele>
        <time>2021-11-18T22:17:44.679Z</time>
      </trkpt>
      <trkpt lat="47.690608" lon="7.892197">
        <ele>765.799682</ele>
        <time>2021-11-18T22:17:48.692Z</time>
      </trkpt>
      <trkpt lat="47.690297" lon="7.891805">
        <ele>762.157034</ele>
        <time>2021-11-18T22:17:52.254Z</time>
      </trkpt>
      <trkpt lat="47.690099" lon="7.891681">
        <ele>760.237951</ele>
        <time>2021-11-18T22:17:54.132Z</time>
      </trkpt>
      <trkpt lat="47.690027" lon="7.891702">
        <ele>759.678398</ele>
        <time>2021-11-18T22:17:54.770Z</time>
      </trkpt>
      <trkpt lat="47.689506" lon="7.892378">
        <ele>755.397401</ele>
        <time>2021-11-18T22:18:00.739Z</time>
      </trkpt>
      <trkpt lat="47.688568" lon="7.892760">
        <ele>749.378204</ele>
        <time>2021-11-18T22:18:09.955Z</time>
      </trkpt>
      <trkpt lat="47.688357" lon="7.892761">
        <ele>748.963323</ele>
        <time>2021-11-18T22:18:12.127Z</time>
      </trkpt>
      <trkpt lat="47.688208" lon="7.892651">
        <ele>749.261580</ele>
        <time>2021-11-18T22:18:14.720Z</time>
      </trkpt>
      <trkpt lat="47.688116" lon="7.892510">
        <ele>749.498531</ele>
        <time>2021-11-18T22:18:16.045Z</time>
      </trkpt>
      <trkpt lat="47.688096" lon="7.892452">
        <ele>749.577168</ele>
        <time>2021-11-18T22:18:17.358Z</time>
      </trkpt>
      <trkpt lat="47.688048" lon="7.892315">
        <ele>749.763536</ele>
        <time>2021-11-18T22:18:19.274Z</time>
      </trkpt>
      <trkpt lat="47.688010" lon="7.892132">
        <ele>749.994628</ele>
        <time>2021-11-18T22:18:22.290Z</time>
      </trkpt>
      <trkpt lat="47.687974" lon="7.892004">
        <ele>750.162024</ele>
        <time>2021-11-18T22:18:23.274Z</time>
      </trkpt>
      <trkpt lat="47.687878" lon="7.891977">
        <ele>750.337168</ele>
        <time>2021-11-18T22:18:25.924Z</time>
      </trkpt>
      <trkpt lat="47.686638" lon="7.891767">
        <ele>753.201938</ele>
        <time>2021-11-18T22:19:07.044Z</time>
      </trkpt>
      <trkpt lat="47.686255" lon="7.891812">
        <ele>754.627028</ele>
        <time>2021-11-18T22:19:19.598Z</time>
      </trkpt>
      <trkpt lat="47.685892" lon="7.891561">
        <ele>756.112224</ele>
        <time>2021-11-18T22:19:32.068Z</time>
      </trkpt>
      <trkpt lat="47.685706" lon="7.891657">
        <ele>756.842609</ele>
        <time>2021-11-18T22:19:37.671Z</time>
      </trkpt>
      <trkpt lat="47.685336" lon="7.892117">
        <ele>758.632299</ele>
        <time>2021-11-18T22:19:50.299Z</time>
      </trkpt>
      <trkpt lat="47.685223" lon="7.892176">
        <ele>758.506555</ele>
        <time>2021-11-18T22:19:53.168Z</time>
      </trkpt>
      <trkpt lat="47.684655" lon="7.892174">
        <ele>757.736920</ele>
        <time>2021-11-18T22:20:06.560Z</time>
      </trkpt>
      <trkpt lat="47.684307" lon="7.892061">
        <ele>757.254249</ele>
        <time>2021-11-18T22:20:11.721Z</time>
      </trkpt>
      <trkpt lat="47.683382" lon="7.892180">
        <ele>754.655910</ele>
        <time>2021-11-18T22:20:20.583Z</time>
      </trkpt>
      <trkpt lat="47.683202" lon="7.892141">
        <ele>752.946007</ele>
        <time>2021-11-18T22:20:22.204Z</time>
      </trkpt>
      <trkpt lat="47.683068" lon="7.892188">
        <ele>751.651768</ele>
        <time>2021-11-18T22:20:23.436Z</time>
      </trkpt>
      <trkpt lat="47.682952" lon="7.892230">
        <ele>750.529443</ele>
        <time>2021-11-18T22:20:24.457Z</time>
      </trkpt>
      <trkpt lat="47.682821" lon="7.892269">
        <ele>749.273554</ele>
        <time>2021-11-18T22:20:25.596Z</time>
      </trkpt>
      <trkpt lat="47.682662" lon="7.892220">
        <ele>747.747127</ele>
        <time>2021-11-18T22:20:27.031Z</time>
      </trkpt>
      <trkpt lat="47.682551" lon="7.892125">
        <ele>746.542918</ele>
        <time>2021-11-18T22:20:28.099Z</time>
      </trkpt>
      <trkpt lat="47.682441" lon="7.892030">
        <ele>745.346842</ele>
        <time>2021-11-18T22:20:29.183Z</time>
      </trkpt>
      <trkpt lat="47.681831" lon="7.891652">
        <ele>739.162041</ele>
        <time>2021-11-18T22:20:34.812Z</time>
      </trkpt>
      <trkpt lat="47.681691" lon="7.891509">
        <ele>737.813749</ele>
        <time>2021-11-18T22:20:36.288Z</time>
      </trkpt>
      <trkpt lat="47.681617" lon="7.891365">
        <ele>736.845925</ele>
        <time>2021-11-18T22:20:37.303Z</time>
      </trkpt>
      <trkpt lat="47.681543" lon="7.891129">
        <ele>735.455050</ele>
        <time>2021-11-18T22:20:38.812Z</time>
      </trkpt>
      <trkpt lat="47.681490" lon="7.890509">
        <ele>732.116090</ele>
        <time>2021-11-18T22:20:42.462Z</time>
      </trkpt>
      <trkpt lat="47.681561" lon="7.889852">
        <ele>728.561120</ele>
        <time>2021-11-18T22:20:46.513Z</time>
      </trkpt>
      <trkpt lat="47.681730" lon="7.889095">
        <ele>725.007817</ele>
        <time>2021-11-18T22:20:51.493Z</time>
      </trkpt>
      <trkpt lat="47.681943" lon="7.888575">
        <ele>724.859074</ele>
        <time>2021-11-18T22:20:55.611Z</time>
      </trkpt>
      <trkpt lat="47.682119" lon="7.888281">
        <ele>724.762935</ele>
        <time>2021-11-18T22:20:59.990Z</time>
      </trkpt>
      <trkpt lat="47.682308" lon="7.887929">
        <ele>724.652911</ele>
        <time>2021-11-18T22:21:04.627Z</time>
      </trkpt>
      <trkpt lat="47.682554" lon="7.887508">
        <ele>724.516688</ele>
        <time>2021-11-18T22:21:11.763Z</time>
      </trkpt>
      <trkpt lat="47.682599" lon="7.887234">
        <ele>724.447768</ele>
        <time>2021-11-18T22:21:15.509Z</time>
      </trkpt>
      <trkpt lat="47.682571" lon="7.886883">
        <ele>724.545391</ele>
        <time>2021-11-18T22:21:22.198Z</time>
      </trkpt>
      <trkpt lat="47.682540" lon="7.886812">
        <ele>724.663175</ele>
        <time>2021-11-18T22:21:23.117Z</time>
      </trkpt>
      <trkpt lat="47.682562" lon="7.886645">
        <ele>724.900021</ele>
        <time>2021-11-18T22:21:30.096Z</time>
      </trkpt>
      <trkpt lat="47.682715" lon="7.886110">
        <ele>725.709054</ele>
        <time>2021-11-18T22:21:41.211Z</time>
      </trkpt>
      <trkpt lat="47.682890" lon="7.885809">
        <ele>726.262594</ele>
        <time>2021-11-18T22:21:45.981Z</time>
      </trkpt>
      <trkpt lat="47.683412" lon="7.885405">
        <ele>727.479477</ele>
        <time>2021-11-18T22:21:59.855Z</time>
      </trkpt>
      <trkpt lat="47.683618" lon="7.885294">
        <ele>727.932515</ele>
        <time>2021-11-18T22:22:06.765Z</time>
      </trkpt>
      <trkpt lat="47.683749" lon="7.884957">
        <ele>727.610682</ele>
        <time>2021-11-18T22:22:09.872Z</time>
      </trkpt>
      <trkpt lat="47.683795" lon="7.884506">
        <ele>726.750906</ele>
        <time>2021-11-18T22:22:13.492Z</time>
      </trkpt>
      <trkpt lat="47.683991" lon="7.883626">
        <ele>725.003808</ele>
        <time>2021-11-18T22:22:19.815Z</time>
      </trkpt>
      <trkpt lat="47.683952" lon="7.883470">
        <ele>724.690150</ele>
        <time>2021-11-18T22:22:20.937Z</time>
      </trkpt>
      <trkpt lat="47.683906" lon="7.883414">
        <ele>724.523633</ele>
        <time>2021-11-18T22:22:21.680Z</time>
      </trkpt>
      <trkpt lat="47.683710" lon="7.883392">
        <ele>723.973313</ele>
        <time>2021-11-18T22:22:23.486Z</time>
      </trkpt>
      <trkpt lat="47.683341" lon="7.883413">
        <ele>722.814126</ele>
        <time>2021-11-18T22:22:26.875Z</time>
      </trkpt>
      <trkpt lat="47.683076" lon="7.883278">
        <ele>721.285923</ele>
        <time>2021-11-18T22:22:29.683Z</time>
      </trkpt>
      <trkpt lat="47.682997" lon="7.883198">
        <ele>720.764367</ele>
        <time>2021-11-18T22:22:30.521Z</time>
      </trkpt>
      <trkpt lat="47.682983" lon="7.883184">
        <ele>720.672304</ele>
        <time>2021-11-18T22:22:30.920Z</time>
      </trkpt>
      <trkpt lat="47.682747" lon="7.882838">
        <ele>718.863476</ele>
        <time>2021-11-18T22:22:34.093Z</time>
      </trkpt>
      <trkpt lat="47.682729" lon="7.882811">
        <ele>718.723931</ele>
        <time>2021-11-18T22:22:34.356Z</time>
      </trkpt>
      <trkpt lat="47.682498" lon="7.882579">
        <ele>717.202838</ele>
        <time>2021-11-18T22:22:37.027Z</time>
      </trkpt>
      <trkpt lat="47.682021" lon="7.882281">
        <ele>714.380066</ele>
        <time>2021-11-18T22:22:41.746Z</time>
      </trkpt>
      <trkpt lat="47.681901" lon="7.882105">
        <ele>713.460140</ele>
        <time>2021-11-18T22:22:43.329Z</time>
      </trkpt>
      <trkpt lat="47.681847" lon="7.882016">
        <ele>712.862837</ele>
        <time>2021-11-18T22:22:44.017Z</time>
      </trkpt>
      <trkpt lat="47.681685" lon="7.881657">
        <ele>710.235439</ele>
        <time>2021-11-18T22:22:46.690Z</time>
      </trkpt>
      <trkpt lat="47.681467" lon="7.880637">
        <ele>703.729489</ele>
        <time>2021-11-18T22:22:53.038Z</time>
      </trkpt>
      <trkpt lat="47.681538" lon="7.879114">
        <ele>693.656295</ele>
        <time>2021-11-18T22:23:01.797Z</time>
      </trkpt>
      <trkpt lat="47.681416" lon="7.878781">
        <ele>690.641220</ele>
        <time>2021-11-18T22:23:03.949Z</time>
      </trkpt>
      <trkpt lat="47.680937" lon="7.878259">
        <ele>683.623277</ele>
        <time>2021-11-18T22:23:08.989Z</time>
      </trkpt>
      <trkpt lat="47.680881" lon="7.878011">
        <ele>681.542937</ele>
        <time>2021-11-18T22:23:10.468Z</time>
      </trkpt>
      <trkpt lat="47.680850" lon="7.877791">
        <ele>679.755348</ele>
        <time>2021-11-18T22:23:11.760Z</time>
      </trkpt>
      <trkpt lat="47.680787" lon="7.877740">
        <ele>678.907787</ele>
        <time>2021-11-18T22:23:12.373Z</time>
      </trkpt>
      <trkpt lat="47.680669" lon="7.877678">
        <ele>677.429231</ele>
        <time>2021-11-18T22:23:13.420Z</time>
      </trkpt>
      <trkpt lat="47.680139" lon="7.877500">
        <ele>670.804774</ele>
        <time>2021-11-18T22:23:18.012Z</time>
      </trkpt>
      <trkpt lat="47.679925" lon="7.877522">
        <ele>668.161352</ele>
        <time>2021-11-18T22:23:19.809Z</time>
      </trkpt>
      <trkpt lat="47.679540" lon="7.877875">
        <ele>662.585845</ele>
        <time>2021-11-18T22:23:23.617Z</time>
      </trkpt>
      <trkpt lat="47.679250" lon="7.878286">
        <ele>657.646314</ele>
        <time>2021-11-18T22:23:26.980Z</time>
      </trkpt>
      <trkpt lat="47.679114" lon="7.878360">
        <ele>655.861471</ele>
        <time>2021-11-18T22:23:28.210Z</time>
      </trkpt>
      <trkpt lat="47.679007" lon="7.878335">
        <ele>654.526700</ele>
        <time>2021-11-18T22:23:29.132Z</time>
      </trkpt>
      <trkpt lat="47.678836" lon="7.877912">
        <ele>651.513384</ele>
        <time>2021-11-18T22:23:31.962Z</time>
      </trkpt>
      <trkpt lat="47.678926" lon="7.877193">
        <ele>647.510977</ele>
        <time>2021-11-18T22:23:36.185Z</time>
      </trkpt>
      <trkpt lat="47.678897" lon="7.877037">
        <ele>646.625268</ele>
        <time>2021-11-18T22:23:37.164Z</time>
      </trkpt>
      <trkpt lat="47.678569" lon="7.876452">
        <ele>642.458868</ele>
        <time>2021-11-18T22:23:41.795Z</time>
      </trkpt>
      <trkpt lat="47.678266" lon="7.876207">
        <ele>639.654572</ele>
        <time>2021-11-18T22:23:45.027Z</time>
      </trkpt>
      <trkpt lat="47.678209" lon="7.876218">
        <ele>639.187349</ele>
        <time>2021-11-18T22:23:45.502Z</time>
      </trkpt>
      <trkpt lat="47.678180" lon="7.876118">
        <ele>638.723870</ele>
        <time>2021-11-18T22:23:46.237Z</time>
      </trkpt>
      <trkpt lat="47.678181" lon="7.876047">
        <ele>638.465482</ele>
        <time>2021-11-18T22:23:46.774Z</time>
      </trkpt>
      <trkpt lat="47.678195" lon="7.875989">
        <ele>638.241300</ele>
        <time>2021-11-18T22:23:47.164Z</time>
      </trkpt>
      <trkpt lat="47.678259" lon="7.875934">
        <ele>637.841724</ele>
        <time>2021-11-18T22:23:47.934Z</time>
      </trkpt>
      <trkpt lat="47.678277" lon="7.875914">
        <ele>637.720246</ele>
        <time>2021-11-18T22:23:48.951Z</time>
      </trkpt>
      <trkpt lat="47.678611" lon="7.875758">
        <ele>635.828178</ele>
        <time>2021-11-18T22:23:52.278Z</time>
      </trkpt>
      <trkpt lat="47.679420" lon="7.875164">
        <ele>630.951340</ele>
        <time>2021-11-18T22:24:00.718Z</time>
      </trkpt>
      <trkpt lat="47.679689" lon="7.875178">
        <ele>629.496780</ele>
        <time>2021-11-18T22:24:03.390Z</time>
      </trkpt>
      <trkpt lat="47.679976" lon="7.875017">
        <ele>626.531888</ele>
        <time>2021-11-18T22:24:06.139Z</time>
      </trkpt>
      <trkpt lat="47.680006" lon="7.874846">
        <ele>625.300413</ele>
        <time>2021-11-18T22:24:07.169Z</time>
      </trkpt>
      <trkpt lat="47.679917" lon="7.874185">
        <ele>620.602752</ele>
        <time>2021-11-18T22:24:11.109Z</time>
      </trkpt>
      <trkpt lat="47.679918" lon="7.873918">
        <ele>618.742024</ele>
        <time>2021-11-18T22:24:12.653Z</time>
      </trkpt>
      <trkpt lat="47.679920" lon="7.873406">
        <ele>615.173880</ele>
        <time>2021-11-18T22:24:15.541Z</time>
      </trkpt>
      <trkpt lat="47.679921" lon="7.873211">
        <ele>613.814903</ele>
        <time>2021-11-18T22:24:16.652Z</time>
      </trkpt>
      <trkpt lat="47.680100" lon="7.871902">
        <ele>602.892770</ele>
        <time>2021-11-18T22:24:24.187Z</time>
      </trkpt>
      <trkpt lat="47.680194" lon="7.871541">
        <ele>599.486880</ele>
        <time>2021-11-18T22:24:26.394Z</time>
      </trkpt>
      <trkpt lat="47.680202" lon="7.871500">
        <ele>599.111258</ele>
        <time>2021-11-18T22:24:26.632Z</time>
      </trkpt>
      <trkpt lat="47.680224" lon="7.871385">
        <ele>598.059268</ele>
        <time>2021-11-18T22:24:27.302Z</time>
      </trkpt>
      <trkpt lat="47.680287" lon="7.870757">
        <ele>592.472231</ele>
        <time>2021-11-18T22:24:30.870Z</time>
      </trkpt>
      <trkpt lat="47.680437" lon="7.870135">
        <ele>586.853332</ele>
        <time>2021-11-18T22:24:34.632Z</time>
      </trkpt>
      <trkpt lat="47.680470" lon="7.869560">
        <ele>583.823618</ele>
        <time>2021-11-18T22:24:37.958Z</time>
      </trkpt>
      <trkpt lat="47.680454" lon="7.869471">
        <ele>583.339995</ele>
        <time>2021-11-18T22:24:38.480Z</time>
      </trkpt>
      <trkpt lat="47.680449" lon="7.869442">
        <ele>583.182831</ele>
        <time>2021-11-18T22:24:38.643Z</time>
      </trkpt>
      <trkpt lat="47.680396" lon="7.869285">
        <ele>582.260767</ele>
        <time>2021-11-18T22:24:39.641Z</time>
      </trkpt>
      <trkpt lat="47.680310" lon="7.869108">
        <ele>581.114798</ele>
        <time>2021-11-18T22:24:41.159Z</time>
      </trkpt>
      <trkpt lat="47.680117" lon="7.868585">
        <ele>577.983619</ele>
        <time>2021-11-18T22:24:44.837Z</time>
      </trkpt>
      <trkpt lat="47.680088" lon="7.868388">
        <ele>576.924923</ele>
        <time>2021-11-18T22:24:46.030Z</time>
      </trkpt>
      <trkpt lat="47.680118" lon="7.868280">
        <ele>576.311553</ele>
        <time>2021-11-18T22:24:46.717Z</time>
      </trkpt>
      <trkpt lat="47.680131" lon="7.868242">
        <ele>576.087773</ele>
        <time>2021-11-18T22:24:47.935Z</time>
      </trkpt>
      <trkpt lat="47.680823" lon="7.867872">
        <ele>571.401308</ele>
        <time>2021-11-18T22:24:54.762Z</time>
      </trkpt>
      <trkpt lat="47.680896" lon="7.867787">
        <ele>570.952489</ele>
        <time>2021-11-18T22:24:56.052Z</time>
      </trkpt>
      <trkpt lat="47.680954" lon="7.867693">
        <ele>570.537122</ele>
        <time>2021-11-18T22:24:56.873Z</time>
      </trkpt>
      <trkpt lat="47.681352" lon="7.866741">
        <ele>566.886571</ele>
        <time>2021-11-18T22:25:04.348Z</time>
      </trkpt>
      <trkpt lat="47.681763" lon="7.866319">
        <ele>564.468992</ele>
        <time>2021-11-18T22:25:08.935Z</time>
      </trkpt>
      <trkpt lat="47.681876" lon="7.866118">
        <ele>563.275709</ele>
        <time>2021-11-18T22:25:10.616Z</time>
      </trkpt>
      <trkpt lat="47.681937" lon="7.865867">
        <ele>562.035319</ele>
        <time>2021-11-18T22:25:12.195Z</time>
      </trkpt>
      <trkpt lat="47.681915" lon="7.865640">
        <ele>560.969297</ele>
        <time>2021-11-18T22:25:13.632Z</time>
      </trkpt>
      <trkpt lat="47.681876" lon="7.865496">
        <ele>560.247823</ele>
        <time>2021-11-18T22:25:14.538Z</time>
      </trkpt>
      <trkpt lat="47.681816" lon="7.865290">
        <ele>559.204523</ele>
        <time>2021-11-18T22:25:15.875Z</time>
      </trkpt>
      <trkpt lat="47.681798" lon="7.865032">
        <ele>557.998858</ele>
        <time>2021-11-18T22:25:17.470Z</time>
      </trkpt>
      <trkpt lat="47.681898" lon="7.864035">
        <ele>553.313431</ele>
        <time>2021-11-18T22:25:23.584Z</time>
      </trkpt>
      <trkpt lat="47.682205" lon="7.863412">
        <ele>549.083735</ele>
        <time>2021-11-18T22:25:28.164Z</time>
      </trkpt>
      <trkpt lat="47.682304" lon="7.862979">
        <ele>546.357932</ele>
        <time>2021-11-18T22:25:30.927Z</time>
      </trkpt>
      <trkpt lat="47.682663" lon="7.862061">
        <ele>540.029760</ele>
        <time>2021-11-18T22:25:37.222Z</time>
      </trkpt>
      <trkpt lat="47.682687" lon="7.861916">
        <ele>539.139714</ele>
        <time>2021-11-18T22:25:38.092Z</time>
      </trkpt>
      <trkpt lat="47.682694" lon="7.861840">
        <ele>538.682478</ele>
        <time>2021-11-18T22:25:38.523Z</time>
      </trkpt>
      <trkpt lat="47.682628" lon="7.861529">
        <ele>536.738765</ele>
        <time>2021-11-18T22:25:40.397Z</time>
      </trkpt>
      <trkpt lat="47.682506" lon="7.861259">
        <ele>534.243592</ele>
        <time>2021-11-18T22:25:42.263Z</time>
      </trkpt>
      <trkpt lat="47.682190" lon="7.860591">
        <ele>527.242117</ele>
        <time>2021-11-18T22:25:46.904Z</time>
      </trkpt>
      <trkpt lat="47.682095" lon="7.860439">
        <ele>525.463459</ele>
        <time>2021-11-18T22:25:48.079Z</time>
      </trkpt>
      <trkpt lat="47.681826" lon="7.860027">
        <ele>520.541513</ele>
        <time>2021-11-18T22:25:51.321Z</time>
      </trkpt>
      <trkpt lat="47.681773" lon="7.859878">
        <ele>519.096309</ele>
        <time>2021-11-18T22:25:52.277Z</time>
      </trkpt>
      <trkpt lat="47.681731" lon="7.859871">
        <ele>518.557947</ele>
        <time>2021-11-18T22:25:52.627Z</time>
      </trkpt>
      <trkpt lat="47.681168" lon="7.859511">
        <ele>510.656008</ele>
        <time>2021-11-18T22:25:57.761Z</time>
      </trkpt>
      <trkpt lat="47.680779" lon="7.859072">
        <ele>504.189902</ele>
        <time>2021-11-18T22:26:01.837Z</time>
      </trkpt>
      <trkpt lat="47.680611" lon="7.858774">
        <ele>500.726438</ele>
        <time>2021-11-18T22:26:04.066Z</time>
      </trkpt>
      <trkpt lat="47.680575" lon="7.858731">
        <ele>500.115008</ele>
        <time>2021-11-18T22:26:04.593Z</time>
      </trkpt>
      <trkpt lat="47.680332" lon="7.858437">
        <ele>495.966825</ele>
        <time>2021-11-18T22:26:08.296Z</time>
      </trkpt>
      <trkpt lat="47.680191" lon="7.858250">
        <ele>493.464944</ele>
        <time>2021-11-18T22:26:10.519Z</time>
      </trkpt>
      <trkpt lat="47.680097" lon="7.858009">
        <ele>490.983044</ele>
        <time>2021-11-18T22:26:12.820Z</time>
      </trkpt>
      <trkpt lat="47.680083" lon="7.857931">
        <ele>490.263711</ele>
        <time>2021-11-18T22:26:13.467Z</time>
      </trkpt>
      <trkpt lat="47.680083" lon="7.857871">
        <ele>489.729050</ele>
        <time>2021-11-18T22:26:13.935Z</time>
      </trkpt>
      <trkpt lat="47.680038" lon="7.857843">
        <ele>489.097364</ele>
        <time>2021-11-18T22:26:14.335Z</time>
      </trkpt>
      <trkpt lat="47.679906" lon="7.857620">
        <ele>486.589567</ele>
        <time>2021-11-18T22:26:16.047Z</time>
      </trkpt>
      <trkpt lat="47.679779" lon="7.857144">
        <ele>482.265224</ele>
        <time>2021-11-18T22:26:18.936Z</time>
      </trkpt>
      <trkpt lat="47.679706" lon="7.856954">
        <ele>480.417623</ele>
        <time>2021-11-18T22:26:20.159Z</time>
      </trkpt>
      <trkpt lat="47.679611" lon="7.856834">
        <ele>478.853221</ele>
        <time>2021-11-18T22:26:21.202Z</time>
      </trkpt>
      <trkpt lat="47.679198" lon="7.856390">
        <ele>472.457679</ele>
        <time>2021-11-18T22:26:25.520Z</time>
      </trkpt>
      <trkpt lat="47.678892" lon="7.855926">
        <ele>466.972031</ele>
        <time>2021-11-18T22:26:29.205Z</time>
      </trkpt>
      <trkpt lat="47.678772" lon="7.855769">
        <ele>465.259765</ele>
        <time>2021-11-18T22:26:30.566Z</time>
      </trkpt>
      <trkpt lat="47.678358" lon="7.855340">
        <ele>459.947459</ele>
        <time>2021-11-18T22:26:34.850Z</time>
      </trkpt>
      <trkpt lat="47.678095" lon="7.854978">
        <ele>456.174005</ele>
        <time>2021-11-18T22:26:37.921Z</time>
      </trkpt>
      <trkpt lat="47.677403" lon="7.853659">
        <ele>444.940782</ele>
        <time>2021-11-18T22:26:47.651Z</time>
      </trkpt>
      <trkpt lat="47.677228" lon="7.853226">
        <ele>441.984651</ele>
        <time>2021-11-18T22:26:50.638Z</time>
      </trkpt>
      <trkpt lat="47.677049" lon="7.852568">
        <ele>437.830531</ele>
        <time>2021-11-18T22:26:54.852Z</time>
      </trkpt>
      <trkpt lat="47.676926" lon="7.851739">
        <ele>432.861511</ele>
        <time>2021-11-18T22:26:59.912Z</time>
      </trkpt>
      <trkpt lat="47.676920" lon="7.851262">
        <ele>430.138529</ele>
        <time>2021-11-18T22:27:02.670Z</time>
      </trkpt>
      <trkpt lat="47.676977" lon="7.850091">
        <ele>423.488161</ele>
        <time>2021-11-18T22:27:09.587Z</time>
      </trkpt>
      <trkpt lat="47.677078" lon="7.849495">
        <ele>420.006874</ele>
        <time>2021-11-18T22:27:13.226Z</time>
      </trkpt>
      <trkpt lat="47.677078" lon="7.849340">
        <ele>419.128889</ele>
        <time>2021-11-18T22:27:14.120Z</time>
      </trkpt>
      <trkpt lat="47.677051" lon="7.849163">
        <ele>418.100877</ele>
        <time>2021-11-18T22:27:15.216Z</time>
      </trkpt>
      <trkpt lat="47.676884" lon="7.848674">
        <ele>415.704178</ele>
        <time>2021-11-18T22:27:18.511Z</time>
      </trkpt>
      <trkpt lat="47.676767" lon="7.848139">
        <ele>413.594819</ele>
        <time>2021-11-18T22:27:21.933Z</time>
      </trkpt>
      <trkpt lat="47.676773" lon="7.847553">
        <ele>411.397129</ele>
        <time>2021-11-18T22:27:25.570Z</time>
      </trkpt>
      <trkpt lat="47.676797" lon="7.847452">
        <ele>410.995496</ele>
        <time>2021-11-18T22:27:26.220Z</time>
      </trkpt>
      <trkpt lat="47.676871" lon="7.847270">
        <ele>410.198233</ele>
        <time>2021-11-18T22:27:27.511Z</time>
      </trkpt>
      <trkpt lat="47.676964" lon="7.847119">
        <ele>409.430843</ele>
        <time>2021-11-18T22:27:28.919Z</time>
      </trkpt>
      <trkpt lat="47.677183" lon="7.846741">
        <ele>407.560873</ele>
        <time>2021-11-18T22:27:32.345Z</time>
      </trkpt>
      <trkpt lat="47.677214" lon="7.846688">
        <ele>407.297612</ele>
        <time>2021-11-18T22:27:32.816Z</time>
      </trkpt>
      <trkpt lat="47.677546" lon="7.845887">
        <ele>405.586176</ele>
        <time>2021-11-18T22:27:39.363Z</time>
      </trkpt>
      <trkpt lat="47.677637" lon="7.845676">
        <ele>405.162700</ele>
        <time>2021-11-18T22:27:41.061Z</time>
      </trkpt>
      <trkpt lat="47.677682" lon="7.845586">
        <ele>404.973246</ele>
        <time>2021-11-18T22:27:41.900Z</time>
      </trkpt>
      <trkpt lat="47.677716" lon="7.845508">
        <ele>404.816211</ele>
        <time>2021-11-18T22:27:42.575Z</time>
      </trkpt>
      <trkpt lat="47.677882" lon="7.845190">
        <ele>404.136185</ele>
        <time>2021-11-18T22:27:45.569Z</time>
      </trkpt>
      <trkpt lat="47.677760" lon="7.845024">
        <ele>403.720881</ele>
        <time>2021-11-18T22:27:47.306Z</time>
      </trkpt>
      <trkpt lat="47.677265" lon="7.844281">
        <ele>402.083651</ele>
        <time>2021-11-18T22:27:55.038Z</time>
      </trkpt>
      <trkpt lat="47.676955" lon="7.843987">
        <ele>401.357081</ele>
        <time>2021-11-18T22:27:59.021Z</time>
      </trkpt>
      <trkpt lat="47.676707" lon="7.843807">
        <ele>400.811814</ele>
        <time>2021-11-18T22:28:01.981Z</time>
      </trkpt>
      <trkpt lat="47.676217" lon="7.843482">
        <ele>399.751735</ele>
        <time>2021-11-18T22:28:07.885Z</time>
      </trkpt>
      <trkpt lat="47.675580" lon="7.843077">
        <ele>398.587773</ele>
        <time>2021-11-18T22:28:15.700Z</time>
      </trkpt>
      <trkpt lat="47.673479" lon="7.841894">
        <ele>395.706450</ele>
        <time>2021-11-18T22:28:42.442Z</time>
      </trkpt>
      <trkpt lat="47.672326" lon="7.841134">
        <ele>394.210418</ele>
        <time>2021-11-18T22:28:57.590Z</time>
      </trkpt>
      <trkpt lat="47.671857" lon="7.840826">
        <ele>393.619313</ele>
        <time>2021-11-18T22:29:03.727Z</time>
      </trkpt>
      <trkpt lat="47.671099" lon="7.840326">
        <ele>392.663270</ele>
        <time>2021-11-18T22:29:13.506Z</time>
      </trkpt>
      <trkpt lat="47.670329" lon="7.839958">
        <ele>392.007247</ele>
        <time>2021-11-18T22:29:23.406Z</time>
      </trkpt>
      <trkpt lat="47.670198" lon="7.839918">
        <ele>391.916803</ele>
        <time>2021-11-18T22:29:25.037Z</time>
      </trkpt>
      <trkpt lat="47.670095" lon="7.839887">
        <ele>391.845731</ele>
        <time>2021-11-18T22:29:26.367Z</time>
      </trkpt>
      <trkpt lat="47.669504" lon="7.839746">
        <ele>391.440933</ele>
        <time>2021-11-18T22:29:34.123Z</time>
      </trkpt>
      <trkpt lat="47.669342" lon="7.839732">
        <ele>391.331192</ele>
        <time>2021-11-18T22:29:36.355Z</time>
      </trkpt>
      <trkpt lat="47.669145" lon="7.839725">
        <ele>391.197930</ele>
        <time>2021-11-18T22:29:39.099Z</time>
      </trkpt>
      <trkpt lat="47.668951" lon="7.839749">
        <ele>391.168017</ele>
        <time>2021-11-18T22:29:42.090Z</time>
      </trkpt>
      <trkpt lat="47.668742" lon="7.839785">
        <ele>391.149548</ele>
        <time>2021-11-18T22:29:45.298Z</time>
      </trkpt>
      <trkpt lat="47.668503" lon="7.839859">
        <ele>391.128118</ele>
        <time>2021-11-18T22:29:48.774Z</time>
      </trkpt>
      <trkpt lat="47.668277" lon="7.839973">
        <ele>391.107166</ele>
        <time>2021-11-18T22:29:52.480Z</time>
      </trkpt>
      <trkpt lat="47.668017" lon="7.840123">
        <ele>391.082681</ele>
        <time>2021-11-18T22:29:56.654Z</time>
      </trkpt>
      <trkpt lat="47.667849" lon="7.840278">
        <ele>391.065319</ele>
        <time>2021-11-18T22:29:59.462Z</time>
      </trkpt>
      <trkpt lat="47.667775" lon="7.840353">
        <ele>391.057455</ele>
        <time>2021-11-18T22:30:00.842Z</time>
      </trkpt>
      <trkpt lat="47.667628" lon="7.840369">
        <ele>391.044516</ele>
        <time>2021-11-18T22:30:03.012Z</time>
      </trkpt>
      <trkpt lat="47.667564" lon="7.840358">
        <ele>391.038861</ele>
        <time>2021-11-18T22:30:03.836Z</time>
      </trkpt>
      <trkpt lat="47.667486" lon="7.840347">
        <ele>391.031983</ele>
        <time>2021-11-18T22:30:05.015Z</time>
      </trkpt>
      <trkpt lat="47.667349" lon="7.840185">
        <ele>390.992317</ele>
        <time>2021-11-18T22:30:07.577Z</time>
      </trkpt>
      <trkpt lat="47.667237" lon="7.839925">
        <ele>390.923109</ele>
        <time>2021-11-18T22:30:10.342Z</time>
      </trkpt>
      <trkpt lat="47.666858" lon="7.839350">
        <ele>390.742693</ele>
        <time>2021-11-18T22:30:17.935Z</time>
      </trkpt>
      <trkpt lat="47.666547" lon="7.839224">
        <ele>390.635354</ele>
        <time>2021-11-18T22:30:22.337Z</time>
      </trkpt>
      <trkpt lat="47.665225" lon="7.838833">
        <ele>390.498177</ele>
        <time>2021-11-18T22:30:40.428Z</time>
      </trkpt>
      <trkpt lat="47.664640" lon="7.838771">
        <ele>390.556598</ele>
        <time>2021-11-18T22:30:50.175Z</time>
      </trkpt>
      <trkpt lat="47.663261" lon="7.838349">
        <ele>390.715561</ele>
        <time>2021-11-18T22:31:13.533Z</time>
      </trkpt>
      <trkpt lat="47.663000" lon="7.838251">
        <ele>390.747876</ele>
        <time>2021-11-18T22:31:17.891Z</time>
      </trkpt>
      <trkpt lat="47.662658" lon="7.838144">
        <ele>390.789829</ele>
        <time>2021-11-18T22:31:23.225Z</time>
      </trkpt>
      <trkpt lat="47.662483" lon="7.838090">
        <ele>390.811283</ele>
        <time>2021-11-18T22:31:25.726Z</time>
      </trkpt>
      <trkpt lat="47.662429" lon="7.838073">
        <ele>390.817909</ele>
        <time>2021-11-18T22:31:26.371Z</time>
      </trkpt>
      <trkpt lat="47.661749" lon="7.838001">
        <ele>389.935776</ele>
        <time>2021-11-18T22:31:34.705Z</time>
      </trkpt>
      <trkpt lat="47.661684" lon="7.837994">
        <ele>389.847251</ele>
        <time>2021-11-18T22:31:35.412Z</time>
      </trkpt>
      <trkpt lat="47.661603" lon="7.837979">
        <ele>389.736371</ele>
        <time>2021-11-18T22:31:36.376Z</time>
      </trkpt>
      <trkpt lat="47.661522" lon="7.837967">
        <ele>389.625798</ele>
        <time>2021-11-18T22:31:37.310Z</time>
      </trkpt>
      <trkpt lat="47.661523" lon="7.837917">
        <ele>389.580034</ele>
        <time>2021-11-18T22:31:37.672Z</time>
      </trkpt>
      <trkpt lat="47.661469" lon="7.837798">
        <ele>389.448760</ele>
        <time>2021-11-18T22:31:38.763Z</time>
      </trkpt>
      <trkpt lat="47.661437" lon="7.837781">
        <ele>389.402594</ele>
        <time>2021-11-18T22:31:39.108Z</time>
      </trkpt>
      <trkpt lat="47.661405" lon="7.837779">
        <ele>389.359088</ele>
        <time>2021-11-18T22:31:39.471Z</time>
      </trkpt>
      <trkpt lat="47.661347" lon="7.837817">
        <ele>389.272974</ele>
        <time>2021-11-18T22:31:40.214Z</time>
      </trkpt>
      <trkpt lat="47.661326" lon="7.837853">
        <ele>389.229402</ele>
        <time>2021-11-18T22:31:40.587Z</time>
      </trkpt>
      <trkpt lat="47.661264" lon="7.837815">
        <ele>389.138291</ele>
        <time>2021-11-18T22:31:41.348Z</time>
      </trkpt>
      <trkpt lat="47.661051" lon="7.837680">
        <ele>388.823701</ele>
        <time>2021-11-18T22:31:43.897Z</time>
      </trkpt>
      <trkpt lat="47.660423" lon="7.837268">
        <ele>387.922358</ele>
        <time>2021-11-18T22:31:51.584Z</time>
      </trkpt>
      <trkpt lat="47.659582" lon="7.836748">
        <ele>386.764307</ele>
        <time>2021-11-18T22:32:02.315Z</time>
      </trkpt>
      <trkpt lat="47.659525" lon="7.836713">
        <ele>386.685898</ele>
        <time>2021-11-18T22:32:02.981Z</time>
      </trkpt>
      <trkpt lat="47.659497" lon="7.836695">
        <ele>386.647112</ele>
        <time>2021-11-18T22:32:03.363Z</time>
      </trkpt>
      <trkpt lat="47.659303" lon="7.836576">
        <ele>386.380288</ele>
        <time>2021-11-18T22:32:06.007Z</time>
      </trkpt>
      <trkpt lat="47.658971" lon="7.836370">
        <ele>386.021261</ele>
        <time>2021-11-18T22:32:10.562Z</time>
      </trkpt>
      <trkpt lat="47.658828" lon="7.836282">
        <ele>385.939025</ele>
        <time>2021-11-18T22:32:12.494Z</time>
      </trkpt>
      <trkpt lat="47.658780" lon="7.836252">
        <ele>385.911358</ele>
        <time>2021-11-18T22:32:13.288Z</time>
      </trkpt>
      <trkpt lat="47.658426" lon="7.836034">
        <ele>385.707761</ele>
        <time>2021-11-18T22:32:18.502Z</time>
      </trkpt>
      <trkpt lat="47.658247" lon="7.835940">
        <ele>385.606894</ele>
        <time>2021-11-18T22:32:21.157Z</time>
      </trkpt>
      <trkpt lat="47.657840" lon="7.835631">
        <ele>385.364046</ele>
        <time>2021-11-18T22:32:27.440Z</time>
      </trkpt>
      <trkpt lat="47.657554" lon="7.835432">
        <ele>385.196251</ele>
        <time>2021-11-18T22:32:31.651Z</time>
      </trkpt>
      <trkpt lat="47.657383" lon="7.835308">
        <ele>385.073478</ele>
        <time>2021-11-18T22:32:34.145Z</time>
      </trkpt>
      <trkpt lat="47.657334" lon="7.835275">
        <ele>385.029863</ele>
        <time>2021-11-18T22:32:34.836Z</time>
      </trkpt>
      <trkpt lat="47.656421" lon="7.834647">
        <ele>384.214219</ele>
        <time>2021-11-18T22:32:47.466Z</time>
      </trkpt>
      <trkpt lat="47.656161" lon="7.834468">
        <ele>383.981906</ele>
        <time>2021-11-18T22:32:51.001Z</time>
      </trkpt>
      <trkpt lat="47.655899" lon="7.834288">
        <ele>383.747893</ele>
        <time>2021-11-18T22:32:54.511Z</time>
      </trkpt>
      <trkpt lat="47.655684" lon="7.834082">
        <ele>383.516251</ele>
        <time>2021-11-18T22:32:57.614Z</time>
      </trkpt>
      <trkpt lat="47.655431" lon="7.833824">
        <ele>383.223760</ele>
        <time>2021-11-18T22:33:01.374Z</time>
      </trkpt>
      <trkpt lat="47.655190" lon="7.833566">
        <ele>382.940620</ele>
        <time>2021-11-18T22:33:05.036Z</time>
      </trkpt>
      <trkpt lat="47.654887" lon="7.833262">
        <ele>382.592127</ele>
        <time>2021-11-18T22:33:09.615Z</time>
      </trkpt>
      <trkpt lat="47.654646" lon="7.833026">
        <ele>382.317007</ele>
        <time>2021-11-18T22:33:13.225Z</time>
      </trkpt>
      <trkpt lat="47.654403" lon="7.832787">
        <ele>382.039236</ele>
        <time>2021-11-18T22:33:16.827Z</time>
      </trkpt>
      <trkpt lat="47.653726" lon="7.831856">
        <ele>381.073246</ele>
        <time>2021-11-18T22:33:27.953Z</time>
      </trkpt>
      <trkpt lat="47.653079" lon="7.830915">
        <ele>380.117222</ele>
        <time>2021-11-18T22:33:38.916Z</time>
      </trkpt>
      <trkpt lat="47.653017" lon="7.830816">
        <ele>380.026906</ele>
        <time>2021-11-18T22:33:40.034Z</time>
      </trkpt>
      <trkpt lat="47.652858" lon="7.830561">
        <ele>379.811775</ele>
        <time>2021-11-18T22:33:42.880Z</time>
      </trkpt>
      <trkpt lat="47.652783" lon="7.830460">
        <ele>379.718705</ele>
        <time>2021-11-18T22:33:44.122Z</time>
      </trkpt>
      <trkpt lat="47.652625" lon="7.830250">
        <ele>379.523788</ele>
        <time>2021-11-18T22:33:46.699Z</time>
      </trkpt>
      <trkpt lat="47.652538" lon="7.830135">
        <ele>379.416720</ele>
        <time>2021-11-18T22:33:48.109Z</time>
      </trkpt>
      <trkpt lat="47.651671" lon="7.828915">
        <ele>378.349838</ele>
        <time>2021-11-18T22:34:03.013Z</time>
      </trkpt>
      <trkpt lat="47.650663" lon="7.827340">
        <ele>377.449328</ele>
        <time>2021-11-18T22:34:21.943Z</time>
      </trkpt>
      <trkpt lat="47.650359" lon="7.826831">
        <ele>377.306299</ele>
        <time>2021-11-18T22:34:28.267Z</time>
      </trkpt>
      <trkpt lat="47.650297" lon="7.826736">
        <ele>377.306393</ele>
        <time>2021-11-18T22:34:29.528Z</time>
      </trkpt>
      <trkpt lat="47.650264" lon="7.826680">
        <ele>377.306446</ele>
        <time>2021-11-18T22:34:30.112Z</time>
      </trkpt>
      <trkpt lat="47.650007" lon="7.827033">
        <ele>377.306814</ele>
        <time>2021-11-18T22:34:35.294Z</time>
      </trkpt>
      <trkpt lat="47.649971" lon="7.827080">
        <ele>377.306864</ele>
        <time>2021-11-18T22:34:35.965Z</time>
      </trkpt>
      <trkpt lat="47.649842" lon="7.827248">
        <ele>377.307045</ele>
        <time>2021-11-18T22:34:38.733Z</time>
      </trkpt>
      <trkpt lat="47.649400" lon="7.827829">
        <ele>377.307666</ele>
        <time>2021-11-18T22:34:47.597Z</time>
      </trkpt>
      <trkpt lat="47.649366" lon="7.827875">
        <ele>377.307714</ele>
        <time>2021-11-18T22:34:48.353Z</time>
      </trkpt>
      <trkpt lat="47.649238" lon="7.827938">
        <ele>377.307856</ele>
        <time>2021-11-18T22:34:50.601Z</time>
      </trkpt>
      <trkpt lat="47.649229" lon="7.827898">
        <ele>377.307886</ele>
        <time>2021-11-18T22:34:51.044Z</time>
      </trkpt>
      <trkpt lat="47.649213" lon="7.827864">
        <ele>377.307916</ele>
        <time>2021-11-18T22:34:51.478Z</time>
      </trkpt>
      <trkpt lat="47.649165" lon="7.827822">
        <ele>377.312732</ele>
        <time>2021-11-18T22:34:52.204Z</time>
      </trkpt>
      <trkpt lat="47.649137" lon="7.827818">
        <ele>377.319806</ele>
        <time>2021-11-18T22:34:52.682Z</time>
      </trkpt>
      <trkpt lat="47.649109" lon="7.827827">
        <ele>377.327010</ele>
        <time>2021-11-18T22:34:53.183Z</time>
      </trkpt>
      <trkpt lat="47.649051" lon="7.827916">
        <ele>377.347988</ele>
        <time>2021-11-18T22:34:54.613Z</time>
      </trkpt>
      <trkpt lat="47.649046" lon="7.827958">
        <ele>377.355213</ele>
        <time>2021-11-18T22:34:55.126Z</time>
      </trkpt>
      <trkpt lat="47.648970" lon="7.827926">
        <ele>377.375079</ele>
        <time>2021-11-18T22:34:56.454Z</time>
      </trkpt>
      <trkpt lat="47.648922" lon="7.827833">
        <ele>377.394927</ele>
        <time>2021-11-18T22:34:57.734Z</time>
      </trkpt>
      <trkpt lat="47.648378" lon="7.826663">
        <ele>377.635763</ele>
        <time>2021-11-18T22:35:12.387Z</time>
      </trkpt>
      <trkpt lat="47.648325" lon="7.826549">
        <ele>377.659228</ele>
        <time>2021-11-18T22:35:13.880Z</time>
      </trkpt>
      <trkpt lat="47.647951" lon="7.825719">
        <ele>378.265912</ele>
        <time>2021-11-18T22:35:24.867Z</time>
      </trkpt>
      <trkpt lat="47.647697" lon="7.825211">
        <ele>379.061333</ele>
        <time>2021-11-18T22:35:32.302Z</time>
      </trkpt>
      <trkpt lat="47.647653" lon="7.825123">
        <ele>379.199122</ele>
        <time>2021-11-18T22:35:33.669Z</time>
      </trkpt>
      <trkpt lat="47.647670" lon="7.825092">
        <ele>379.249381</ele>
        <time>2021-11-18T22:35:34.228Z</time>
      </trkpt>
      <trkpt lat="47.647680" lon="7.825025">
        <ele>379.335665</ele>
        <time>2021-11-18T22:35:35.237Z</time>
      </trkpt>
      <trkpt lat="47.647671" lon="7.824980">
        <ele>379.394685</ele>
        <time>2021-11-18T22:35:35.795Z</time>
      </trkpt>
      <trkpt lat="47.647651" lon="7.824941">
        <ele>379.456312</ele>
        <time>2021-11-18T22:35:36.385Z</time>
      </trkpt>
      <trkpt lat="47.647592" lon="7.824914">
        <ele>379.571541</ele>
        <time>2021-11-18T22:35:37.412Z</time>
      </trkpt>
      <trkpt lat="47.647566" lon="7.824924">
        <ele>379.621668</ele>
        <time>2021-11-18T22:35:37.886Z</time>
      </trkpt>
      <trkpt lat="47.647544" lon="7.824947">
        <ele>379.671890</ele>
        <time>2021-11-18T22:35:38.385Z</time>
      </trkpt>
      <trkpt lat="47.647519" lon="7.825045">
        <ele>379.803647</ele>
        <time>2021-11-18T22:35:39.693Z</time>
      </trkpt>
      <trkpt lat="47.647530" lon="7.825095">
        <ele>379.869781</ele>
        <time>2021-11-18T22:35:40.410Z</time>
      </trkpt>
      <trkpt lat="47.647469" lon="7.825147">
        <ele>380.001067</ele>
        <time>2021-11-18T22:35:42.008Z</time>
      </trkpt>
      <trkpt lat="47.647327" lon="7.825270">
        <ele>380.307912</ele>
        <time>2021-11-18T22:35:46.255Z</time>
      </trkpt>
      <trkpt lat="47.646953" lon="7.825621">
        <ele>381.179948</ele>
        <time>2021-11-18T22:35:58.488Z</time>
      </trkpt>
      <trkpt lat="47.646634" lon="7.825927">
        <ele>383.863673</ele>
        <time>2021-11-18T22:36:11.943Z</time>
      </trkpt>
      <trkpt lat="47.646535" lon="7.826052">
        <ele>384.782039</ele>
        <time>2021-11-18T22:36:17.172Z</time>
      </trkpt>
      <trkpt lat="47.646437" lon="7.826190">
        <ele>385.736523</ele>
        <time>2021-11-18T22:36:23.529Z</time>
      </trkpt>
      <trkpt lat="47.646245" lon="7.826452">
        <ele>387.579347</ele>
        <time>2021-11-18T22:36:34.232Z</time>
      </trkpt>
      <trkpt lat="47.646215" lon="7.826493">
        <ele>387.867490</ele>
        <time>2021-11-18T22:36:36.965Z</time>
      </trkpt>
      <trkpt lat="47.645978" lon="7.826826">
        <ele>390.173385</ele>
        <time>2021-11-18T22:36:52.427Z</time>
      </trkpt>
      <trkpt lat="47.645896" lon="7.826954">
        <ele>391.014207</ele>
        <time>2021-11-18T22:36:58.730Z</time>
      </trkpt>
      <trkpt lat="47.645853" lon="7.827035">
        <ele>391.505117</ele>
        <time>2021-11-18T22:37:01.671Z</time>
      </trkpt>
      <trkpt lat="47.645800" lon="7.827164">
        <ele>392.224384</ele>
        <time>2021-11-18T22:37:07.017Z</time>
      </trkpt>
      <trkpt lat="47.645755" lon="7.827294">
        <ele>392.920137</ele>
        <time>2021-11-18T22:37:12.453Z</time>
      </trkpt>
      <trkpt lat="47.645695" lon="7.827443">
        <ele>393.746475</ele>
        <time>2021-11-18T22:37:18.003Z</time>
      </trkpt>
      <trkpt lat="47.645563" lon="7.827696">
        <ele>395.238950</ele>
        <time>2021-11-18T22:37:28.443Z</time>
      </trkpt>
      <trkpt lat="47.645462" lon="7.827823">
        <ele>396.154290</ele>
        <time>2021-11-18T22:37:35.292Z</time>
      </trkpt>
      <trkpt lat="47.645177" lon="7.828073">
        <ele>398.443497</ele>
        <time>2021-11-18T22:37:51.446Z</time>
      </trkpt>
      <trkpt lat="47.645054" lon="7.828194">
        <ele>399.463889</ele>
        <time>2021-11-18T22:37:58.041Z</time>
      </trkpt>
      <trkpt lat="47.644970" lon="7.828283">
        <ele>400.177554</ele>
        <time>2021-11-18T22:38:02.707Z</time>
      </trkpt>
      <trkpt lat="47.644824" lon="7.828467">
        <ele>401.501978</ele>
        <time>2021-11-18T22:38:10.253Z</time>
      </trkpt>
      <trkpt lat="47.644685" lon="7.828760">
        <ele>403.171467</ele>
        <time>2021-11-18T22:38:20.055Z</time>
      </trkpt>
      <trkpt lat="47.644656" lon="7.828827">
        <ele>403.542474</ele>
        <time>2021-11-18T22:38:22.025Z</time>
      </trkpt>
      <trkpt lat="47.644594" lon="7.828980">
        <ele>404.374276</ele>
        <time>2021-11-18T22:38:26.507Z</time>
      </trkpt>
      <trkpt lat="47.644216" lon="7.830050">
        <ele>409.056868</ele>
        <time>2021-11-18T22:38:53.369Z</time>
      </trkpt>
      <trkpt lat="47.643976" lon="7.830478">
        <ele>410.994741</ele>
        <time>2021-11-18T22:39:04.832Z</time>
      </trkpt>
      <trkpt lat="47.643642" lon="7.830986">
        <ele>413.464932</ele>
        <time>2021-11-18T22:39:20.928Z</time>
      </trkpt>
      <trkpt lat="47.643346" lon="7.831476">
        <ele>415.868528</ele>
        <time>2021-11-18T22:39:38.308Z</time>
      </trkpt>
      <trkpt lat="47.643091" lon="7.831957">
        <ele>419.199760</ele>
        <time>2021-11-18T22:39:56.948Z</time>
      </trkpt>
      <trkpt lat="47.642807" lon="7.832692">
        <ele>423.811362</ele>
        <time>2021-11-18T22:40:25.105Z</time>
      </trkpt>
      <trkpt lat="47.642638" lon="7.833223">
        <ele>427.007703</ele>
        <time>2021-11-18T22:40:45.102Z</time>
      </trkpt>
      <trkpt lat="47.642385" lon="7.833924">
        <ele>431.174170</ele>
        <time>2021-11-18T22:41:12.041Z</time>
      </trkpt>
      <trkpt lat="47.641891" lon="7.835107">
        <ele>437.769822</ele>
        <time>2021-11-18T22:41:55.052Z</time>
      </trkpt>
      <trkpt lat="47.641165" lon="7.836543">
        <ele>445.154726</ele>
        <time>2021-11-18T22:42:39.812Z</time>
      </trkpt>
      <trkpt lat="47.640365" lon="7.837718">
        <ele>450.561227</ele>
        <time>2021-11-18T22:43:15.922Z</time>
      </trkpt>
      <trkpt lat="47.639834" lon="7.838208">
        <ele>453.490521</ele>
        <time>2021-11-18T22:43:37.130Z</time>
      </trkpt>
      <trkpt lat="47.639139" lon="7.838922">
        <ele>457.413120</ele>
        <time>2021-11-18T22:44:06.044Z</time>
      </trkpt>
      <trkpt lat="47.638684" lon="7.839572">
        <ele>460.107257</ele>
        <time>2021-11-18T22:44:26.959Z</time>
      </trkpt>
      <trkpt lat="47.638316" lon="7.840318">
        <ele>461.897675</ele>
        <time>2021-11-18T22:44:46.807Z</time>
      </trkpt>
      <trkpt lat="47.637571" lon="7.842262">
        <ele>465.201455</ele>
        <time>2021-11-18T22:45:19.998Z</time>
      </trkpt>
      <trkpt lat="47.637236" lon="7.842912">
        <ele>465.568719</ele>
        <time>2021-11-18T22:45:29.069Z</time>
      </trkpt>
      <trkpt lat="47.636455" lon="7.843722">
        <ele>466.123955</ele>
        <time>2021-11-18T22:45:43.555Z</time>
      </trkpt>
      <trkpt lat="47.635361" lon="7.844556">
        <ele>466.371463</ele>
        <time>2021-11-18T22:46:02.531Z</time>
      </trkpt>
      <trkpt lat="47.634649" lon="7.845085">
        <ele>466.371663</ele>
        <time>2021-11-18T22:46:15.626Z</time>
      </trkpt>
      <trkpt lat="47.633838" lon="7.846138">
        <ele>466.155535</ele>
        <time>2021-11-18T22:46:32.398Z</time>
      </trkpt>
      <trkpt lat="47.632763" lon="7.847936">
        <ele>463.239207</ele>
        <time>2021-11-18T22:46:50.697Z</time>
      </trkpt>
      <trkpt lat="47.631901" lon="7.849075">
        <ele>459.702096</ele>
        <time>2021-11-18T22:47:02.100Z</time>
      </trkpt>
      <trkpt lat="47.631225" lon="7.850277">
        <ele>455.766584</ele>
        <time>2021-11-18T22:47:12.409Z</time>
      </trkpt>
      <trkpt lat="47.630572" lon="7.851349">
        <ele>452.204039</ele>
        <time>2021-11-18T22:47:22.233Z</time>
      </trkpt>
      <trkpt lat="47.629944" lon="7.852149">
        <ele>449.182242</ele>
        <time>2021-11-18T22:47:30.441Z</time>
      </trkpt>
      <trkpt lat="47.629636" lon="7.852329">
        <ele>447.733699</ele>
        <time>2021-11-18T22:47:33.673Z</time>
      </trkpt>
      <trkpt lat="47.629450" lon="7.852437">
        <ele>446.807110</ele>
        <time>2021-11-18T22:47:35.549Z</time>
      </trkpt>
      <trkpt lat="47.628955" lon="7.852574">
        <ele>444.471138</ele>
        <time>2021-11-18T22:47:40.400Z</time>
      </trkpt>
      <trkpt lat="47.628091" lon="7.852385">
        <ele>440.435684</ele>
        <time>2021-11-18T22:47:48.551Z</time>
      </trkpt>
      <trkpt lat="47.626333" lon="7.851866">
        <ele>433.540321</ele>
        <time>2021-11-18T22:48:06.077Z</time>
      </trkpt>
      <trkpt lat="47.625550" lon="7.851952">
        <ele>432.431309</ele>
        <time>2021-11-18T22:48:14.961Z</time>
      </trkpt>
      <trkpt lat="47.625220" lon="7.852153">
        <ele>431.927438</ele>
        <time>2021-11-18T22:48:19.306Z</time>
      </trkpt>
      <trkpt lat="47.624847" lon="7.852475">
        <ele>431.317888</ele>
        <time>2021-11-18T22:48:25.089Z</time>
      </trkpt>
      <trkpt lat="47.624607" lon="7.852636">
        <ele>430.969858</ele>
        <time>2021-11-18T22:48:28.600Z</time>
      </trkpt>
      <trkpt lat="47.624152" lon="7.852848">
        <ele>430.513138</ele>
        <time>2021-11-18T22:48:35.095Z</time>
      </trkpt>
      <trkpt lat="47.623426" lon="7.853063">
        <ele>429.804156</ele>
        <time>2021-11-18T22:48:44.346Z</time>
      </trkpt>
      <trkpt lat="47.622726" lon="7.853422">
        <ele>428.928595</ele>
        <time>2021-11-18T22:48:52.738Z</time>
      </trkpt>
      <trkpt lat="47.621917" lon="7.853881">
        <ele>427.419846</ele>
        <time>2021-11-18T22:49:02.484Z</time>
      </trkpt>
      <trkpt lat="47.620941" lon="7.854385">
        <ele>425.281285</ele>
        <time>2021-11-18T22:49:14.013Z</time>
      </trkpt>
      <trkpt lat="47.620449" lon="7.854805">
        <ele>423.678691</ele>
        <time>2021-11-18T22:49:20.231Z</time>
      </trkpt>
      <trkpt lat="47.620117" lon="7.855176">
        <ele>422.505209</ele>
        <time>2021-11-18T22:49:24.573Z</time>
      </trkpt>
      <trkpt lat="47.619797" lon="7.855449">
        <ele>421.463030</ele>
        <time>2021-11-18T22:49:28.290Z</time>
      </trkpt>
      <trkpt lat="47.619340" lon="7.855676">
        <ele>418.764699</ele>
        <time>2021-11-18T22:49:32.914Z</time>
      </trkpt>
      <trkpt lat="47.618209" lon="7.856228">
        <ele>410.834862</ele>
        <time>2021-11-18T22:49:43.682Z</time>
      </trkpt>
      <trkpt lat="47.617871" lon="7.856385">
        <ele>408.238219</ele>
        <time>2021-11-18T22:49:46.761Z</time>
      </trkpt>
      <trkpt lat="47.616788" lon="7.856842">
        <ele>397.915715</ele>
        <time>2021-11-18T22:49:56.399Z</time>
      </trkpt>
      <trkpt lat="47.616206" lon="7.856813">
        <ele>392.612386</ele>
        <time>2021-11-18T22:50:01.468Z</time>
      </trkpt>
      <trkpt lat="47.616000" lon="7.856839">
        <ele>392.356004</ele>
        <time>2021-11-18T22:50:03.389Z</time>
      </trkpt>
      <trkpt lat="47.615844" lon="7.856900">
        <ele>392.155942</ele>
        <time>2021-11-18T22:50:04.872Z</time>
      </trkpt>
      <trkpt lat="47.615591" lon="7.856559">
        <ele>391.732039</ele>
        <time>2021-11-18T22:50:09.689Z</time>
      </trkpt>
      <trkpt lat="47.615230" lon="7.856082">
        <ele>391.132528</ele>
        <time>2021-11-18T22:50:17.858Z</time>
      </trkpt>
      <trkpt lat="47.615482" lon="7.855744">
        <ele>390.711227</ele>
        <time>2021-11-18T22:50:28.187Z</time>
      </trkpt>
      <trkpt lat="47.615886" lon="7.855415">
        <ele>391.739875</ele>
        <time>2021-11-18T22:50:47.013Z</time>
      </trkpt>
      <trkpt lat="47.615940" lon="7.855213">
        <ele>392.731649</ele>
        <time>2021-11-18T22:50:52.986Z</time>
      </trkpt>
      <trkpt lat="47.615853" lon="7.854674">
        <ele>395.261178</ele>
        <time>2021-11-18T22:51:11.851Z</time>
      </trkpt>
      <trkpt lat="47.615860" lon="7.854339">
        <ele>396.790850</ele>
        <time>2021-11-18T22:51:23.929Z</time>
      </trkpt>
      <trkpt lat="47.615857" lon="7.854262">
        <ele>397.142864</ele>
        <time>2021-11-18T22:51:26.380Z</time>
      </trkpt>
      <trkpt lat="47.615794" lon="7.854262">
        <ele>397.569407</ele>
        <time>2021-11-18T22:51:29.271Z</time>
      </trkpt>
      <trkpt lat="47.615213" lon="7.854374">
        <ele>401.536152</ele>
        <time>2021-11-18T22:51:59.279Z</time>
      </trkpt>
      <trkpt lat="47.614801" lon="7.854465">
        <ele>404.622866</ele>
        <time>2021-11-18T22:52:18.593Z</time>
      </trkpt>
      <trkpt lat="47.614629" lon="7.854431">
        <ele>405.972490</ele>
        <time>2021-11-18T22:52:28.539Z</time>
      </trkpt>
      <trkpt lat="47.614301" lon="7.854162">
        <ele>408.887565</ele>
        <time>2021-11-18T22:52:47.061Z</time>
      </trkpt>
      <trkpt lat="47.614100" lon="7.854196">
        <ele>410.461054</ele>
        <time>2021-11-18T22:52:54.571Z</time>
      </trkpt>
      <trkpt lat="47.613988" lon="7.854392">
        <ele>411.808265</ele>
        <time>2021-11-18T22:53:04.423Z</time>
      </trkpt>
      <trkpt lat="47.613792" lon="7.854776">
        <ele>414.333703</ele>
        <time>2021-11-18T22:53:22.087Z</time>
      </trkpt>
      <trkpt lat="47.613659" lon="7.854700">
        <ele>415.442261</ele>
        <time>2021-11-18T22:53:29.627Z</time>
      </trkpt>
      <trkpt lat="47.613607" lon="7.854572">
        <ele>416.225850</ele>
        <time>2021-11-18T22:53:34.316Z</time>
      </trkpt>
      <trkpt lat="47.613564" lon="7.854464">
        <ele>416.897619</ele>
        <time>2021-11-18T22:53:40.535Z</time>
      </trkpt>
      <trkpt lat="47.613558" lon="7.853788">
        <ele>420.594491</ele>
        <time>2021-11-18T22:54:07.530Z</time>
      </trkpt>
      <trkpt lat="47.613350" lon="7.853629">
        <ele>422.492559</ele>
        <time>2021-11-18T22:54:21.038Z</time>
      </trkpt>
      <trkpt lat="47.613147" lon="7.853586">
        <ele>424.155923</ele>
        <time>2021-11-18T22:54:32.537Z</time>
      </trkpt>
      <trkpt lat="47.612894" lon="7.853499">
        <ele>426.262586</ele>
        <time>2021-11-18T22:54:46.884Z</time>
      </trkpt>
      <trkpt lat="47.612473" lon="7.853153">
        <ele>430.166694</ele>
        <time>2021-11-18T22:55:10.100Z</time>
      </trkpt>
      <trkpt lat="47.612366" lon="7.853056">
        <ele>431.160186</ele>
        <time>2021-11-18T22:55:15.505Z</time>
      </trkpt>
      <trkpt lat="47.612224" lon="7.852925">
        <ele>431.694975</ele>
        <time>2021-11-18T22:55:22.648Z</time>
      </trkpt>
      <trkpt lat="47.611909" lon="7.852604">
        <ele>432.917188</ele>
        <time>2021-11-18T22:55:38.232Z</time>
      </trkpt>
      <trkpt lat="47.611487" lon="7.852197">
        <ele>434.526963</ele>
        <time>2021-11-18T22:55:54.844Z</time>
      </trkpt>
      <trkpt lat="47.611373" lon="7.852022">
        <ele>435.051630</ele>
        <time>2021-11-18T22:55:58.956Z</time>
      </trkpt>
      <trkpt lat="47.611197" lon="7.851511">
        <ele>436.288804</ele>
        <time>2021-11-18T22:56:08.387Z</time>
      </trkpt>
      <trkpt lat="47.610866" lon="7.850970">
        <ele>437.641896</ele>
        <time>2021-11-18T22:56:19.538Z</time>
      </trkpt>
      <trkpt lat="47.610164" lon="7.850132">
        <ele>439.861935</ele>
        <time>2021-11-18T22:56:45.728Z</time>
      </trkpt>
      <trkpt lat="47.609900" lon="7.849721">
        <ele>440.804837</ele>
        <time>2021-11-18T22:56:58.498Z</time>
      </trkpt>
      <trkpt lat="47.609671" lon="7.849581">
        <ele>441.456246</ele>
        <time>2021-11-18T22:57:07.324Z</time>
      </trkpt>
      <trkpt lat="47.609318" lon="7.849456">
        <ele>442.774672</ele>
        <time>2021-11-18T22:57:21.650Z</time>
      </trkpt>
      <trkpt lat="47.609180" lon="7.849407">
        <ele>443.290167</ele>
        <time>2021-11-18T22:57:27.263Z</time>
      </trkpt>
      <trkpt lat="47.608958" lon="7.849213">
        <ele>444.226215</ele>
        <time>2021-11-18T22:57:36.724Z</time>
      </trkpt>
      <trkpt lat="47.608929" lon="7.849170">
        <ele>444.375180</ele>
        <time>2021-11-18T22:57:38.475Z</time>
      </trkpt>
      <trkpt lat="47.608647" lon="7.848750">
        <ele>445.826963</ele>
        <time>2021-11-18T22:57:52.967Z</time>
      </trkpt>
      <trkpt lat="47.608499" lon="7.848767">
        <ele>446.366232</ele>
        <time>2021-11-18T22:57:57.966Z</time>
      </trkpt>
      <trkpt lat="47.608193" lon="7.849027">
        <ele>447.647353</ele>
        <time>2021-11-18T22:58:09.079Z</time>
      </trkpt>
      <trkpt lat="47.607779" lon="7.849458">
        <ele>448.042685</ele>
        <time>2021-11-18T22:58:23.363Z</time>
      </trkpt>
      <trkpt lat="47.607512" lon="7.849734">
        <ele>448.174022</ele>
        <time>2021-11-18T22:58:31.689Z</time>
      </trkpt>
      <trkpt lat="47.607206" lon="7.849906">
        <ele>448.306081</ele>
        <time>2021-11-18T22:58:38.955Z</time>
      </trkpt>
      <trkpt lat="47.606841" lon="7.850541">
        <ele>448.533123</ele>
        <time>2021-11-18T22:58:48.870Z</time>
      </trkpt>
      <trkpt lat="47.606642" lon="7.850761">
        <ele>448.204527</ele>
        <time>2021-11-18T22:58:52.782Z</time>
      </trkpt>
      <trkpt lat="47.606432" lon="7.850826">
        <ele>447.465590</ele>
        <time>2021-11-18T22:58:56.118Z</time>
      </trkpt>
      <trkpt lat="47.606259" lon="7.850845">
        <ele>446.868053</ele>
        <time>2021-11-18T22:58:58.839Z</time>
      </trkpt>
      <trkpt lat="47.605922" lon="7.850724">
        <ele>445.673713</ele>
        <time>2021-11-18T22:59:03.948Z</time>
      </trkpt>
      <trkpt lat="47.605584" lon="7.850507">
        <ele>444.405064</ele>
        <time>2021-11-18T22:59:09.163Z</time>
      </trkpt>
      <trkpt lat="47.605181" lon="7.850167">
        <ele>442.808045</ele>
        <time>2021-11-18T22:59:15.525Z</time>
      </trkpt>
      <trkpt lat="47.605011" lon="7.850048">
        <ele>441.889926</ele>
        <time>2021-11-18T22:59:18.056Z</time>
      </trkpt>
      <trkpt lat="47.604823" lon="7.849877">
        <ele>440.245311</ele>
        <time>2021-11-18T22:59:21.000Z</time>
      </trkpt>
      <trkpt lat="47.604551" lon="7.849629">
        <ele>437.864297</ele>
        <time>2021-11-18T22:59:25.189Z</time>
      </trkpt>
      <trkpt lat="47.603736" lon="7.848907">
        <ele>430.784944</ele>
        <time>2021-11-18T22:59:37.251Z</time>
      </trkpt>
      <trkpt lat="47.602606" lon="7.848016">
        <ele>417.706162</ele>
        <time>2021-11-18T22:59:52.668Z</time>
      </trkpt>
      <trkpt lat="47.602486" lon="7.847821">
        <ele>415.772266</ele>
        <time>2021-11-18T22:59:54.813Z</time>
      </trkpt>
      <trkpt lat="47.602400" lon="7.847680">
        <ele>414.379528</ele>
        <time>2021-11-18T22:59:56.328Z</time>
      </trkpt>
      <trkpt lat="47.602282" lon="7.847374">
        <ele>411.797309</ele>
        <time>2021-11-18T22:59:59.246Z</time>
      </trkpt>
      <trkpt lat="47.602236" lon="7.847007">
        <ele>409.114265</ele>
        <time>2021-11-18T23:00:02.293Z</time>
      </trkpt>
      <trkpt lat="47.602243" lon="7.846717">
        <ele>407.278668</ele>
        <time>2021-11-18T23:00:04.610Z</time>
      </trkpt>
      <trkpt lat="47.602229" lon="7.845655">
        <ele>400.559605</ele>
        <time>2021-11-18T23:00:13.269Z</time>
      </trkpt>
      <trkpt lat="47.602253" lon="7.845252">
        <ele>398.000468</ele>
        <time>2021-11-18T23:00:16.729Z</time>
      </trkpt>
      <trkpt lat="47.602198" lon="7.844937">
        <ele>395.942185</ele>
        <time>2021-11-18T23:00:19.503Z</time>
      </trkpt>
      <trkpt lat="47.600807" lon="7.843916">
        <ele>383.919861</ele>
        <time>2021-11-18T23:00:39.163Z</time>
      </trkpt>
      <trkpt lat="47.600072" lon="7.843673">
        <ele>378.722408</ele>
        <time>2021-11-18T23:00:48.858Z</time>
      </trkpt>
      <trkpt lat="47.599763" lon="7.843535">
        <ele>376.963299</ele>
        <time>2021-11-18T23:00:53.070Z</time>
      </trkpt>
      <trkpt lat="47.599568" lon="7.843496">
        <ele>375.890712</ele>
        <time>2021-11-18T23:00:55.662Z</time>
      </trkpt>
      <trkpt lat="47.598937" lon="7.843561">
        <ele>372.442782</ele>
        <time>2021-11-18T23:01:04.139Z</time>
      </trkpt>
      <trkpt lat="47.598696" lon="7.843499">
        <ele>371.109446</ele>
        <time>2021-11-18T23:01:07.465Z</time>
      </trkpt>
      <trkpt lat="47.598536" lon="7.843376">
        <ele>370.127049</ele>
        <time>2021-11-18T23:01:09.957Z</time>
      </trkpt>
      <trkpt lat="47.598238" lon="7.842763">
        <ele>367.974496</ele>
        <time>2021-11-18T23:01:17.053Z</time>
      </trkpt>
      <trkpt lat="47.598058" lon="7.842175">
        <ele>366.227720</ele>
        <time>2021-11-18T23:01:23.158Z</time>
      </trkpt>
      <trkpt lat="47.597842" lon="7.841614">
        <ele>364.480251</ele>
        <time>2021-11-18T23:01:29.264Z</time>
      </trkpt>
      <trkpt lat="47.597727" lon="7.841333">
        <ele>363.591100</ele>
        <time>2021-11-18T23:01:32.374Z</time>
      </trkpt>
      <trkpt lat="47.597263" lon="7.840840">
        <ele>361.565697</ele>
        <time>2021-11-18T23:01:40.553Z</time>
      </trkpt>
      <trkpt lat="47.596993" lon="7.840544">
        <ele>360.515464</ele>
        <time>2021-11-18T23:01:45.400Z</time>
      </trkpt>
      <trkpt lat="47.596578" lon="7.839929">
        <ele>358.680363</ele>
        <time>2021-11-18T23:01:53.928Z</time>
      </trkpt>
      <trkpt lat="47.595964" lon="7.838747">
        <ele>355.362499</ele>
        <time>2021-11-18T23:02:09.157Z</time>
      </trkpt>
      <trkpt lat="47.595487" lon="7.838131">
        <ele>353.132311</ele>
        <time>2021-11-18T23:02:18.667Z</time>
      </trkpt>
      <trkpt lat="47.594966" lon="7.837645">
        <ele>350.962114</ele>
        <time>2021-11-18T23:02:27.488Z</time>
      </trkpt>
      <trkpt lat="47.594385" lon="7.837297">
        <ele>345.630590</ele>
        <time>2021-11-18T23:02:35.620Z</time>
      </trkpt>
      <trkpt lat="47.593826" lon="7.836849">
        <ele>339.462762</ele>
        <time>2021-11-18T23:02:43.493Z</time>
      </trkpt>
      <trkpt lat="47.593342" lon="7.836538">
        <ele>334.342590</ele>
        <time>2021-11-18T23:02:49.828Z</time>
      </trkpt>
      <trkpt lat="47.593173" lon="7.836468">
        <ele>332.444632</ele>
        <time>2021-11-18T23:02:51.821Z</time>
      </trkpt>
      <trkpt lat="47.592897" lon="7.836379">
        <ele>328.477349</ele>
        <time>2021-11-18T23:02:55.131Z</time>
      </trkpt>
      <trkpt lat="47.592250" lon="7.836371">
        <ele>319.389323</ele>
        <time>2021-11-18T23:03:02.726Z</time>
      </trkpt>
      <trkpt lat="47.592182" lon="7.836371">
        <ele>318.434201</ele>
        <time>2021-11-18T23:03:03.518Z</time>
      </trkpt>
      <trkpt lat="47.592110" lon="7.836372">
        <ele>317.422850</ele>
        <time>2021-11-18T23:03:04.347Z</time>
      </trkpt>
      <trkpt lat="47.591953" lon="7.836379">
        <ele>315.216644</ele>
        <time>2021-11-18T23:03:06.258Z</time>
      </trkpt>
      <trkpt lat="47.591704" lon="7.836354">
        <ele>311.711201</ele>
        <time>2021-11-18T23:03:09.131Z</time>
      </trkpt>
      <trkpt lat="47.590166" lon="7.836338">
        <ele>297.133437</ele>
        <time>2021-11-18T23:03:27.964Z</time>
      </trkpt>
      <trkpt lat="47.590263" lon="7.835856">
        <ele>294.259435</ele>
        <time>2021-11-18T23:03:31.215Z</time>
      </trkpt>
      <trkpt lat="47.589181" lon="7.835983">
        <ele>288.860770</ele>
        <time>2021-11-18T23:03:41.649Z</time>
      </trkpt>
      <trkpt lat="47.588272" lon="7.836090">
        <ele>285.041385</ele>
        <time>2021-11-18T23:03:50.615Z</time>
      </trkpt>
      <trkpt lat="47.587903" lon="7.836007">
        <ele>284.116522</ele>
        <time>2021-11-18T23:03:54.313Z</time>
      </trkpt>
      <trkpt lat="47.587628" lon="7.835942">
        <ele>283.426982</ele>
        <time>2021-11-18T23:03:57.128Z</time>
      </trkpt>
      <trkpt lat="47.587848" lon="7.834235">
        <ele>280.584007</ele>
        <time>2021-11-18T23:04:09.767Z</time>
      </trkpt>
      <trkpt lat="47.586496" lon="7.833050">
        <ele>280.461348</ele>
        <time>2021-11-18T23:04:32.079Z</time>
      </trkpt>
      <trkpt lat="47.586276" lon="7.833601">
        <ele>281.071713</ele>
        <time>2021-11-18T23:04:40.332Z</time>
      </trkpt>
      <trkpt lat="47.585278" lon="7.832688">
        <ele>284.284655</ele>
        <time>2021-11-18T23:05:11.786Z</time>
      </trkpt>
      <trkpt lat="47.585247" lon="7.832651">
        <ele>284.393691</ele>
        <time>2021-11-18T23:05:13.087Z</time>
      </trkpt>
      <trkpt lat="47.585195" lon="7.832588">
        <ele>284.577678</ele>
        <time>2021-11-18T23:05:15.282Z</time>
      </trkpt>
      <trkpt lat="47.585027" lon="7.832425">
        <ele>285.127764</ele>
        <time>2021-11-18T23:05:20.690Z</time>
      </trkpt>
      <trkpt lat="47.584717" lon="7.832264">
        <ele>286.392216</ele>
        <time>2021-11-18T23:05:30.355Z</time>
      </trkpt>
      <trkpt lat="47.584367" lon="7.832247">
        <ele>287.886136</ele>
        <time>2021-11-18T23:05:41.456Z</time>
      </trkpt>
      <trkpt lat="47.584156" lon="7.832334">
        <ele>288.820437</ele>
        <time>2021-11-18T23:05:49.163Z</time>
      </trkpt>
      <trkpt lat="47.584029" lon="7.832543">
        <ele>289.629888</ele>
        <time>2021-11-18T23:05:55.899Z</time>
      </trkpt>
      <trkpt lat="47.583849" lon="7.832883">
        <ele>290.873600</ele>
        <time>2021-11-18T23:06:06.288Z</time>
      </trkpt>
      <trkpt lat="47.583696" lon="7.833171">
        <ele>291.928495</ele>
        <time>2021-11-18T23:06:14.994Z</time>
      </trkpt>
      <trkpt lat="47.583523" lon="7.833509">
        <ele>293.103462</ele>
        <time>2021-11-18T23:06:23.454Z</time>
      </trkpt>
      <trkpt lat="47.583401" lon="7.833658">
        <ele>293.476766</ele>
        <time>2021-11-18T23:06:27.326Z</time>
      </trkpt>
      <trkpt lat="47.583327" lon="7.833750">
        <ele>293.704849</ele>
        <time>2021-11-18T23:06:30.453Z</time>
      </trkpt>
      <trkpt lat="47.583163" lon="7.833942">
        <ele>294.198372</ele>
        <time>2021-11-18T23:06:35.945Z</time>
      </trkpt>
      <trkpt lat="47.582828" lon="7.834117">
        <ele>295.037220</ele>
        <time>2021-11-18T23:06:44.392Z</time>
      </trkpt>
      <trkpt lat="47.580816" lon="7.834599">
        <ele>298.393863</ele>
        <time>2021-11-18T23:07:28.272Z</time>
      </trkpt>
      <trkpt lat="47.580667" lon="7.834627">
        <ele>298.546435</ele>
        <time>2021-11-18T23:07:30.654Z</time>
      </trkpt>
      <trkpt lat="47.579073" lon="7.834987">
        <ele>298.711789</ele>
        <time>2021-11-18T23:07:54.815Z</time>
      </trkpt>
      <trkpt lat="47.577537" lon="7.835344">
        <ele>297.302725</ele>
        <time>2021-11-18T23:08:13.777Z</time>
      </trkpt>
      <trkpt lat="47.577317" lon="7.835395">
        <ele>296.993459</ele>
        <time>2021-11-18T23:08:16.249Z</time>
      </trkpt>
      <trkpt lat="47.576219" lon="7.835650">
        <ele>295.652417</ele>
        <time>2021-11-18T23:08:28.762Z</time>
      </trkpt>
      <trkpt lat="47.575959" lon="7.835718">
        <ele>295.444005</ele>
        <time>2021-11-18T23:08:31.896Z</time>
      </trkpt>
      <trkpt lat="47.575033" lon="7.835907">
        <ele>294.706128</ele>
        <time>2021-11-18T23:08:44.063Z</time>
      </trkpt>
      <trkpt lat="47.574568" lon="7.836025">
        <ele>294.571342</ele>
        <time>2021-11-18T23:08:50.994Z</time>
      </trkpt>
      <trkpt lat="47.574158" lon="7.836106">
        <ele>294.713428</ele>
        <time>2021-11-18T23:08:57.667Z</time>
      </trkpt>
      <trkpt lat="47.573815" lon="7.836215">
        <ele>294.833930</ele>
        <time>2021-11-18T23:09:05.346Z</time>
      </trkpt>
      <trkpt lat="47.573348" lon="7.836386">
        <ele>294.999174</ele>
        <time>2021-11-18T23:09:16.198Z</time>
      </trkpt>
      <trkpt lat="47.572760" lon="7.836606">
        <ele>295.276039</ele>
        <time>2021-11-18T23:09:29.809Z</time>
      </trkpt>
      <trkpt lat="47.572296" lon="7.836777">
        <ele>295.564891</ele>
        <time>2021-11-18T23:09:40.234Z</time>
      </trkpt>
      <trkpt lat="47.572139" lon="7.836834">
        <ele>295.662544</ele>
        <time>2021-11-18T23:09:43.721Z</time>
      </trkpt>
      <trkpt lat="47.571871" lon="7.836932">
        <ele>295.829306</ele>
        <time>2021-11-18T23:09:49.758Z</time>
      </trkpt>
      <trkpt lat="47.571771" lon="7.836971">
        <ele>295.891776</ele>
        <time>2021-11-18T23:09:51.994Z</time>
      </trkpt>
      <trkpt lat="47.571254" lon="7.837161">
        <ele>296.225201</ele>
        <time>2021-11-18T23:10:04.445Z</time>
      </trkpt>
      <trkpt lat="47.570985" lon="7.837265">
        <ele>296.592479</ele>
        <time>2021-11-18T23:10:11.398Z</time>
      </trkpt>
      <trkpt lat="47.570872" lon="7.837307">
        <ele>296.746390</ele>
        <time>2021-11-18T23:10:14.414Z</time>
      </trkpt>
      <trkpt lat="47.570298" lon="7.837528">
        <ele>297.529892</ele>
        <time>2021-11-18T23:10:29.736Z</time>
      </trkpt>
      <trkpt lat="47.570038" lon="7.837643">
        <ele>297.888357</ele>
        <time>2021-11-18T23:10:36.859Z</time>
      </trkpt>
      <trkpt lat="47.569907" lon="7.837696">
        <ele>298.067758</ele>
        <time>2021-11-18T23:10:40.380Z</time>
      </trkpt>
      <trkpt lat="47.569814" lon="7.837733">
        <ele>298.194974</ele>
        <time>2021-11-18T23:10:42.942Z</time>
      </trkpt>
      <trkpt lat="47.569665" lon="7.837789">
        <ele>298.398054</ele>
        <time>2021-11-18T23:10:46.906Z</time>
      </trkpt>
      <trkpt lat="47.569522" lon="7.837844">
        <ele>298.592372</ele>
        <time>2021-11-18T23:10:50.761Z</time>
      </trkpt>
      <trkpt lat="47.569310" lon="7.837922">
        <ele>298.862118</ele>
        <time>2021-11-18T23:10:56.508Z</time>
      </trkpt>
      <trkpt lat="47.568988" lon="7.838054">
        <ele>299.274687</ele>
        <time>2021-11-18T23:11:05.285Z</time>
      </trkpt>
      <trkpt lat="47.568420" lon="7.838300">
        <ele>300.005447</ele>
        <time>2021-11-18T23:11:20.543Z</time>
      </trkpt>
      <trkpt lat="47.568160" lon="7.838415">
        <ele>300.340514</ele>
        <time>2021-11-18T23:11:27.304Z</time>
      </trkpt>
      <trkpt lat="47.568042" lon="7.838436">
        <ele>300.487280</ele>
        <time>2021-11-18T23:11:30.051Z</time>
      </trkpt>
      <trkpt lat="47.567936" lon="7.838380">
        <ele>300.626247</ele>
        <time>2021-11-18T23:11:32.866Z</time>
      </trkpt>
      <trkpt lat="47.567846" lon="7.838609">
        <ele>300.828925</ele>
        <time>2021-11-18T23:11:35.746Z</time>
      </trkpt>
      <trkpt lat="47.567823" lon="7.838648">
        <ele>300.855021</ele>
        <time>2021-11-18T23:11:36.364Z</time>
      </trkpt>
      <trkpt lat="47.567634" lon="7.839037">
        <ele>301.096529</ele>
        <time>2021-11-18T23:11:41.819Z</time>
      </trkpt>
      <trkpt lat="47.567626" lon="7.839064">
        <ele>301.111386</ele>
        <time>2021-11-18T23:11:42.211Z</time>
      </trkpt>
      <trkpt lat="47.567564" lon="7.839283">
        <ele>301.231040</ele>
        <time>2021-11-18T23:11:45.093Z</time>
      </trkpt>
      <trkpt lat="47.567530" lon="7.839459">
        <ele>301.323274</ele>
        <time>2021-11-18T23:11:47.201Z</time>
      </trkpt>
      <trkpt lat="47.567510" lon="7.839548">
        <ele>301.370536</ele>
        <time>2021-11-18T23:11:48.254Z</time>
      </trkpt>
      <trkpt lat="47.567481" lon="7.839664">
        <ele>301.432861</ele>
        <time>2021-11-18T23:11:49.503Z</time>
      </trkpt>
      <trkpt lat="47.567406" lon="7.839778">
        <ele>301.513080</ele>
        <time>2021-11-18T23:11:51.830Z</time>
      </trkpt>
      <trkpt lat="47.567111" lon="7.839998">
        <ele>301.759671</ele>
        <time>2021-11-18T23:11:57.755Z</time>
      </trkpt>
      <trkpt lat="47.566826" lon="7.840179">
        <ele>301.991197</ele>
        <time>2021-11-18T23:12:03.113Z</time>
      </trkpt>
      <trkpt lat="47.566592" lon="7.840279">
        <ele>302.186178</ele>
        <time>2021-11-18T23:12:07.782Z</time>
      </trkpt>
      <trkpt lat="47.566515" lon="7.840312">
        <ele>302.273316</ele>
        <time>2021-11-18T23:12:08.983Z</time>
      </trkpt>
      <trkpt lat="47.566450" lon="7.840326">
        <ele>302.344722</ele>
        <time>2021-11-18T23:12:10.366Z</time>
      </trkpt>
      <trkpt lat="47.566350" lon="7.840350">
        <ele>302.454851</ele>
        <time>2021-11-18T23:12:12.340Z</time>
      </trkpt>
      <trkpt lat="47.566221" lon="7.840340">
        <ele>302.595281</ele>
        <time>2021-11-18T23:12:14.532Z</time>
      </trkpt>
      <trkpt lat="47.566142" lon="7.840322">
        <ele>302.682173</ele>
        <time>2021-11-18T23:12:15.704Z</time>
      </trkpt>
      <trkpt lat="47.566081" lon="7.840309">
        <ele>302.749170</ele>
        <time>2021-11-18T23:12:17.093Z</time>
      </trkpt>
      <trkpt lat="47.565906" lon="7.840272">
        <ele>302.941343</ele>
        <time>2021-11-18T23:12:20.474Z</time>
      </trkpt>
      <trkpt lat="47.565343" lon="7.840185">
        <ele>303.556713</ele>
        <time>2021-11-18T23:12:31.274Z</time>
      </trkpt>
      <trkpt lat="47.565233" lon="7.840176">
        <ele>303.676478</ele>
        <time>2021-11-18T23:12:33.612Z</time>
      </trkpt>
      <trkpt lat="47.565168" lon="7.840179">
        <ele>303.747176</ele>
        <time>2021-11-18T23:12:34.988Z</time>
      </trkpt>
      <trkpt lat="47.565057" lon="7.840213">
        <ele>303.870397</ele>
        <time>2021-11-18T23:12:37.231Z</time>
      </trkpt>
      <trkpt lat="47.564936" lon="7.840261">
        <ele>304.006570</ele>
        <time>2021-11-18T23:12:39.947Z</time>
      </trkpt>
      <trkpt lat="47.564558" lon="7.840516">
        <ele>304.448282</ele>
        <time>2021-11-18T23:12:48.229Z</time>
      </trkpt>
      <trkpt lat="47.564534" lon="7.840532">
        <ele>304.476110</ele>
        <time>2021-11-18T23:12:48.726Z</time>
      </trkpt>
      <trkpt lat="47.564463" lon="7.840580">
        <ele>304.558631</ele>
        <time>2021-11-18T23:12:50.340Z</time>
      </trkpt>
      <trkpt lat="47.564094" lon="7.840838">
        <ele>304.990068</ele>
        <time>2021-11-18T23:12:58.010Z</time>
      </trkpt>
      <trkpt lat="47.563986" lon="7.840916">
        <ele>305.117110</ele>
        <time>2021-11-18T23:13:00.293Z</time>
      </trkpt>
      <trkpt lat="47.563941" lon="7.840948">
        <ele>305.169889</ele>
        <time>2021-11-18T23:13:01.218Z</time>
      </trkpt>
      <trkpt lat="47.563805" lon="7.841046">
        <ele>305.329799</ele>
        <time>2021-11-18T23:13:04.031Z</time>
      </trkpt>
      <trkpt lat="47.563659" lon="7.841150">
        <ele>305.501092</ele>
        <time>2021-11-18T23:13:06.916Z</time>
      </trkpt>
      <trkpt lat="47.563483" lon="7.841269">
        <ele>305.705655</ele>
        <time>2021-11-18T23:13:10.651Z</time>
      </trkpt>
      <trkpt lat="47.563300" lon="7.841391">
        <ele>305.917844</ele>
        <time>2021-11-18T23:13:14.204Z</time>
      </trkpt>
      <trkpt lat="47.563016" lon="7.841568">
        <ele>306.279393</ele>
        <time>2021-11-18T23:13:20.063Z</time>
      </trkpt>
      <trkpt lat="47.562965" lon="7.841597">
        <ele>306.345688</ele>
        <time>2021-11-18T23:13:21.039Z</time>
      </trkpt>
      <trkpt lat="47.562904" lon="7.841632">
        <ele>306.425075</ele>
        <time>2021-11-18T23:13:22.279Z</time>
      </trkpt>
      <trkpt lat="47.562574" lon="7.841873">
        <ele>306.871564</ele>
        <time>2021-11-18T23:13:29.245Z</time>
      </trkpt>
      <trkpt lat="47.562440" lon="7.842083">
        <ele>307.108258</ele>
        <time>2021-11-18T23:13:32.857Z</time>
      </trkpt>
      <trkpt lat="47.562385" lon="7.842183">
        <ele>307.213910</ele>
        <time>2021-11-18T23:13:34.420Z</time>
      </trkpt>
      <trkpt lat="47.562300" lon="7.842326">
        <ele>307.369975</ele>
        <time>2021-11-18T23:13:37.329Z</time>
      </trkpt>
      <trkpt lat="47.562179" lon="7.842500">
        <ele>307.574597</ele>
        <time>2021-11-18T23:13:40.801Z</time>
      </trkpt>
      <trkpt lat="47.561498" lon="7.843130">
        <ele>308.525775</ele>
        <time>2021-11-18T23:13:57.369Z</time>
      </trkpt>
      <trkpt lat="47.561434" lon="7.843181">
        <ele>308.608369</ele>
        <time>2021-11-18T23:13:59.179Z</time>
      </trkpt>
      <trkpt lat="47.561038" lon="7.843502">
        <ele>309.121409</ele>
        <time>2021-11-18T23:14:07.661Z</time>
      </trkpt>
      <trkpt lat="47.560934" lon="7.843550">
        <ele>309.245218</ele>
        <time>2021-11-18T23:14:09.510Z</time>
      </trkpt>
      <trkpt lat="47.560934" lon="7.843550">
        <ele>309.245218</ele>
        <time>2021-11-18T23:14:09.567Z</time>
      </trkpt>
      <trkpt lat="47.560812" lon="7.843560">
        <ele>309.384098</ele>
        <time>2021-11-18T23:14:11.837Z</time>
      </trkpt>
      <trkpt lat="47.560515" lon="7.843379">
        <ele>309.749107</ele>
        <time>2021-11-18T23:14:17.549Z</time>
      </trkpt>
      <trkpt lat="47.560430" lon="7.843341">
        <ele>309.850021</ele>
        <time>2021-11-18T23:14:19.459Z</time>
      </trkpt>
      <trkpt lat="47.560413" lon="7.843159">
        <ele>309.990947</ele>
        <time>2021-11-18T23:14:22.116Z</time>
      </trkpt>
      <trkpt lat="47.560307" lon="7.842813">
        <ele>310.266431</ele>
        <time>2021-11-18T23:14:28.727Z</time>
      </trkpt>
      <trkpt lat="47.560248" lon="7.842719">
        <ele>310.335557</ele>
        <time>2021-11-18T23:14:30.655Z</time>
      </trkpt>
      <trkpt lat="47.560158" lon="7.842633">
        <ele>310.421008</ele>
        <time>2021-11-18T23:14:33.525Z</time>
      </trkpt>
      <trkpt lat="47.560053" lon="7.842546">
        <ele>310.517001</ele>
        <time>2021-11-18T23:14:36.843Z</time>
      </trkpt>
      <trkpt lat="47.559955" lon="7.842474">
        <ele>310.604283</ele>
        <time>2021-11-18T23:14:39.262Z</time>
      </trkpt>
      <trkpt lat="47.559909" lon="7.842445">
        <ele>310.644172</ele>
        <time>2021-11-18T23:14:40.410Z</time>
      </trkpt>
      <trkpt lat="47.559814" lon="7.842380">
        <ele>310.727668</ele>
        <time>2021-11-18T23:14:43.033Z</time>
      </trkpt>
      <trkpt lat="47.559793" lon="7.842362">
        <ele>310.747026</ele>
        <time>2021-11-18T23:14:43.391Z</time>
      </trkpt>
      <trkpt lat="47.559738" lon="7.842322">
        <ele>310.795914</ele>
        <time>2021-11-18T23:14:44.787Z</time>
      </trkpt>
      <trkpt lat="47.559669" lon="7.842263">
        <ele>310.859481</ele>
        <time>2021-11-18T23:14:46.201Z</time>
      </trkpt>
      <trkpt lat="47.559559" lon="7.842133">
        <ele>310.971751</ele>
        <time>2021-11-18T23:14:48.220Z</time>
      </trkpt>
      <trkpt lat="47.559512" lon="7.842082">
        <ele>311.018235</ele>
        <time>2021-11-18T23:14:49.118Z</time>
      </trkpt>
      <trkpt lat="47.559372" lon="7.841862">
        <ele>311.181065</ele>
        <time>2021-11-18T23:14:52.658Z</time>
      </trkpt>
      <trkpt lat="47.559116" lon="7.841194">
        <ele>311.594726</ele>
        <time>2021-11-18T23:15:01.181Z</time>
      </trkpt>
      <trkpt lat="47.559091" lon="7.841128">
        <ele>311.635481</ele>
        <time>2021-11-18T23:15:02.041Z</time>
      </trkpt>
      <trkpt lat="47.559056" lon="7.841071">
        <ele>311.688786</ele>
        <time>2021-11-18T23:15:03.474Z</time>
      </trkpt>
      <trkpt lat="47.558998" lon="7.841160">
        <ele>311.816167</ele>
        <time>2021-11-18T23:15:04.785Z</time>
      </trkpt>
      <trkpt lat="47.558866" lon="7.841362">
        <ele>312.105660</ele>
        <time>2021-11-18T23:15:08.259Z</time>
      </trkpt>
      <trkpt lat="47.558866" lon="7.841362">
        <ele>312.105660</ele>
        <time>2021-11-18T23:15:08.265Z</time>
      </trkpt>
      <trkpt lat="47.558866" lon="7.841362">
        <ele>312.105660</ele>
        <time>2021-11-18T23:15:08.348Z</time>
      </trkpt>
      <trkpt lat="47.558828" lon="7.841419">
        <ele>312.188151</ele>
        <time>2021-11-18T23:15:09.360Z</time>
      </trkpt>
      <trkpt lat="47.558786" lon="7.841479">
        <ele>312.277155</ele>
        <time>2021-11-18T23:15:10.756Z</time>
      </trkpt>
      <trkpt lat="47.558630" lon="7.841744">
        <ele>312.639204</ele>
        <time>2021-11-18T23:15:15.618Z</time>
      </trkpt>
      <trkpt lat="47.558490" lon="7.841946">
        <ele>312.937317</ele>
        <time>2021-11-18T23:15:19.675Z</time>
      </trkpt>
      <trkpt lat="47.558197" lon="7.842240">
        <ele>313.477168</ele>
        <time>2021-11-18T23:15:27.077Z</time>
      </trkpt>
      <trkpt lat="47.557745" lon="7.842642">
        <ele>314.281425</ele>
        <time>2021-11-18T23:15:38.822Z</time>
      </trkpt>
      <trkpt lat="47.557662" lon="7.842713">
        <ele>314.448044</ele>
        <time>2021-11-18T23:15:40.058Z</time>
      </trkpt>
      <trkpt lat="47.557551" lon="7.842810">
        <ele>314.849991</ele>
        <time>2021-11-18T23:15:43.591Z</time>
      </trkpt>
      <trkpt lat="47.557481" lon="7.842900">
        <ele>315.139061</ele>
        <time>2021-11-18T23:15:45.837Z</time>
      </trkpt>
      <trkpt lat="47.557362" lon="7.842995">
        <ele>315.560679</ele>
        <time>2021-11-18T23:15:48.880Z</time>
      </trkpt>
      <trkpt lat="47.557134" lon="7.843279">
        <ele>316.489726</ele>
        <time>2021-11-18T23:15:57.653Z</time>
      </trkpt>
      <trkpt lat="47.557087" lon="7.843406">
        <ele>316.794615</ele>
        <time>2021-11-18T23:15:59.971Z</time>
      </trkpt>
      <trkpt lat="47.556914" lon="7.843392">
        <ele>317.335030</ele>
        <time>2021-11-18T23:16:05.597Z</time>
      </trkpt>
      <trkpt lat="47.556372" lon="7.843758">
        <ele>319.192877</ele>
        <time>2021-11-18T23:16:22.814Z</time>
      </trkpt>
      <trkpt lat="47.556224" lon="7.843775">
        <ele>319.655895</ele>
        <time>2021-11-18T23:16:27.168Z</time>
      </trkpt>
      <trkpt lat="47.556133" lon="7.843776">
        <ele>319.939744</ele>
        <time>2021-11-18T23:16:30.064Z</time>
      </trkpt>
      <trkpt lat="47.556084" lon="7.843774">
        <ele>320.075170</ele>
        <time>2021-11-18T23:16:31.152Z</time>
      </trkpt>
      <trkpt lat="47.555933" lon="7.843754">
        <ele>320.436880</ele>
        <time>2021-11-18T23:16:35.809Z</time>
      </trkpt>
      <trkpt lat="47.555703" lon="7.843562">
        <ele>321.066735</ele>
        <time>2021-11-18T23:16:43.319Z</time>
      </trkpt>
      <trkpt lat="47.555295" lon="7.842901">
        <ele>322.509109</ele>
        <time>2021-11-18T23:16:59.433Z</time>
      </trkpt>
      <trkpt lat="47.555123" lon="7.842678">
        <ele>323.054404</ele>
        <time>2021-11-18T23:17:04.463Z</time>
      </trkpt>
      <trkpt lat="47.554952" lon="7.842565">
        <ele>323.501131</ele>
        <time>2021-11-18T23:17:08.854Z</time>
      </trkpt>
      <trkpt lat="47.554783" lon="7.842488">
        <ele>323.922984</ele>
        <time>2021-11-18T23:17:12.482Z</time>
      </trkpt>
      <trkpt lat="47.554476" lon="7.842450">
        <ele>324.300888</ele>
        <time>2021-11-18T23:17:17.820Z</time>
      </trkpt>
      <trkpt lat="47.554289" lon="7.842424">
        <ele>324.289497</ele>
        <time>2021-11-18T23:17:20.572Z</time>
      </trkpt>
      <trkpt lat="47.554019" lon="7.842386">
        <ele>324.273048</ele>
        <time>2021-11-18T23:17:24.645Z</time>
      </trkpt>
      <trkpt lat="47.553449" lon="7.842365">
        <ele>324.238467</ele>
        <time>2021-11-18T23:17:32.682Z</time>
      </trkpt>
      <trkpt lat="47.553273" lon="7.842406">
        <ele>324.227661</ele>
        <time>2021-11-18T23:17:36.131Z</time>
      </trkpt>
      <trkpt lat="47.553133" lon="7.842431">
        <ele>324.219109</ele>
        <time>2021-11-18T23:17:38.677Z</time>
      </trkpt>
      <trkpt lat="47.552833" lon="7.842495">
        <ele>324.200726</ele>
        <time>2021-11-18T23:17:44.133Z</time>
      </trkpt>
      <trkpt lat="47.552380" lon="7.842592">
        <ele>324.078050</ele>
        <time>2021-11-18T23:17:52.374Z</time>
      </trkpt>
      <trkpt lat="47.551922" lon="7.842704">
        <ele>323.953384</ele>
        <time>2021-11-18T23:18:01.133Z</time>
      </trkpt>
      <trkpt lat="47.551668" lon="7.842770">
        <ele>323.884127</ele>
        <time>2021-11-18T23:18:06.091Z</time>
      </trkpt>
      <trkpt lat="47.551454" lon="7.842815">
        <ele>323.826079</ele>
        <time>2021-11-18T23:18:10.270Z</time>
      </trkpt>
      <trkpt lat="47.551243" lon="7.842849">
        <ele>323.769077</ele>
        <time>2021-11-18T23:18:14.260Z</time>
      </trkpt>
      <trkpt lat="47.549927" lon="7.842747">
        <ele>324.858878</ele>
        <time>2021-11-18T23:18:43.835Z</time>
      </trkpt>
      <trkpt lat="47.549582" lon="7.842702">
        <ele>325.209870</ele>
        <time>2021-11-18T23:18:52.740Z</time>
      </trkpt>
      <trkpt lat="47.549188" lon="7.842622">
        <ele>325.687054</ele>
        <time>2021-11-18T23:19:04.182Z</time>
      </trkpt>
      <trkpt lat="47.548560" lon="7.842426">
        <ele>327.003011</ele>
        <time>2021-11-18T23:19:23.382Z</time>
      </trkpt>
      <trkpt lat="47.548105" lon="7.842284">
        <ele>327.956449</ele>
        <time>2021-11-18T23:19:37.253Z</time>
      </trkpt>
      <trkpt lat="47.547674" lon="7.842266">
        <ele>328.840553</ele>
        <time>2021-11-18T23:19:49.537Z</time>
      </trkpt>
      <trkpt lat="47.547549" lon="7.842268">
        <ele>329.096877</ele>
        <time>2021-11-18T23:19:52.723Z</time>
      </trkpt>
      <trkpt lat="47.547448" lon="7.842262">
        <ele>329.273114</ele>
        <time>2021-11-18T23:19:55.314Z</time>
      </trkpt>
      <trkpt lat="47.547354" lon="7.842839">
        <ele>329.757659</ele>
        <time>2021-11-18T23:20:05.391Z</time>
      </trkpt>
      <trkpt lat="47.547313" lon="7.843735">
        <ele>330.490766</ele>
        <time>2021-11-18T23:20:20.663Z</time>
      </trkpt>
      <trkpt lat="47.547295" lon="7.844722">
        <ele>331.296774</ele>
        <time>2021-11-18T23:20:36.386Z</time>
      </trkpt>
      <trkpt lat="47.547274" lon="7.845536">
        <ele>332.189934</ele>
        <time>2021-11-18T23:20:49.838Z</time>
      </trkpt>
      <trkpt lat="47.547124" lon="7.848795">
        <ele>336.196238</ele>
        <time>2021-11-18T23:21:51.992Z</time>
      </trkpt>
      <trkpt lat="47.547143" lon="7.849985">
        <ele>337.796090</ele>
        <time>2021-11-18T23:22:14.843Z</time>
      </trkpt>
      <trkpt lat="47.547141" lon="7.850355">
        <ele>338.182486</ele>
        <time>2021-11-18T23:22:21.943Z</time>
      </trkpt>
      <trkpt lat="47.546945" lon="7.851719">
        <ele>339.202098</ele>
        <time>2021-11-18T23:22:46.476Z</time>
      </trkpt>
      <trkpt lat="47.546582" lon="7.856413">
        <ele>340.677457</ele>
        <time>2021-11-18T23:23:54.788Z</time>
      </trkpt>
      <trkpt lat="47.546537" lon="7.857497">
        <ele>340.861831</ele>
        <time>2021-11-18T23:24:10.150Z</time>
      </trkpt>
      <trkpt lat="47.546487" lon="7.859119">
        <ele>341.208301</ele>
        <time>2021-11-18T23:24:33.550Z</time>
      </trkpt>
      <trkpt lat="47.546499" lon="7.859914">
        <ele>341.398737</ele>
        <time>2021-11-18T23:24:45.505Z</time>
      </trkpt>
      <trkpt lat="47.546512" lon="7.860751">
        <ele>341.599237</ele>
        <time>2021-11-18T23:24:57.805Z</time>
      </trkpt>
      <trkpt lat="47.546526" lon="7.861665">
        <ele>341.236734</ele>
        <time>2021-11-18T23:25:10.746Z</time>
      </trkpt>
      <trkpt lat="47.546592" lon="7.863006">
        <ele>340.687979</ele>
        <time>2021-11-18T23:25:27.150Z</time>
      </trkpt>
      <trkpt lat="47.546877" lon="7.864345">
        <ele>339.248266</ele>
        <time>2021-11-18T23:25:42.344Z</time>
      </trkpt>
      <trkpt lat="47.546885" lon="7.864500">
        <ele>339.047578</ele>
        <time>2021-11-18T23:25:44.023Z</time>
      </trkpt>
      <trkpt lat="47.546894" lon="7.864837">
        <ele>338.612173</ele>
        <time>2021-11-18T23:25:47.502Z</time>
      </trkpt>
      <trkpt lat="47.546889" lon="7.865225">
        <ele>338.111176</ele>
        <time>2021-11-18T23:25:51.623Z</time>
      </trkpt>
      <trkpt lat="47.546819" lon="7.865489">
        <ele>337.745000</ele>
        <time>2021-11-18T23:25:54.701Z</time>
      </trkpt>
      <trkpt lat="47.546510" lon="7.865766">
        <ele>337.062539</ele>
        <time>2021-11-18T23:26:00.395Z</time>
      </trkpt>
      <trkpt lat="47.546327" lon="7.865959">
        <ele>336.800706</ele>
        <time>2021-11-18T23:26:03.727Z</time>
      </trkpt>
      <trkpt lat="47.546096" lon="7.866147">
        <ele>336.493499</ele>
        <time>2021-11-18T23:26:07.793Z</time>
      </trkpt>
      <trkpt lat="47.545240" lon="7.866887">
        <ele>335.338298</ele>
        <time>2021-11-18T23:26:24.467Z</time>
      </trkpt>
      <trkpt lat="47.545160" lon="7.866985">
        <ele>335.217301</ele>
        <time>2021-11-18T23:26:26.422Z</time>
      </trkpt>
      <trkpt lat="47.545003" lon="7.867278">
        <ele>334.979006</ele>
        <time>2021-11-18T23:26:32.091Z</time>
      </trkpt>
      <trkpt lat="47.544568" lon="7.867693">
        <ele>334.979006</ele>
        <time>2021-11-18T23:26:44.665Z</time>
      </trkpt>
      <trkpt lat="47.544469" lon="7.867776">
        <ele>334.979006</ele>
        <time>2021-11-18T23:26:47.258Z</time>
      </trkpt>
      <trkpt lat="47.544410" lon="7.867825">
        <ele>334.979006</ele>
        <time>2021-11-18T23:26:49.055Z</time>
      </trkpt>
      <trkpt lat="47.544246" lon="7.867967">
        <ele>334.979006</ele>
        <time>2021-11-18T23:26:53.685Z</time>
      </trkpt>
      <trkpt lat="47.544214" lon="7.867988">
        <ele>334.979006</ele>
        <time>2021-11-18T23:26:54.491Z</time>
      </trkpt>
      <trkpt lat="47.543801" lon="7.868269">
        <ele>334.979006</ele>
        <time>2021-11-18T23:27:05.535Z</time>
      </trkpt>
      <trkpt lat="47.543657" lon="7.868359">
        <ele>334.979006</ele>
        <time>2021-11-18T23:27:09.785Z</time>
      </trkpt>
      <trkpt lat="47.543404" lon="7.868525">
        <ele>334.979006</ele>
        <time>2021-11-18T23:27:15.526Z</time>
      </trkpt>
    </trkseg>
  </trk>
</gpx>